Date StartTime U_cm/s V_cm/s W_cm/s Ustd_cm/s Vstd_cm/s Wstd_cm/s Uvar_(cm/s)^2 Vvar_(cm/s)^2 Wvar_(cm/s)^2 KE_(m/s)^2 TurbulentKE_(m/s)^2 HorizWindSpeed_cm/s FrictionSpeec_cm/s DragCoef SpeedOfSound_m/s SonicTemperature_C Pressure_mb 
05/19/2014  00:00:00     -412.710       -7.330      -37.128       99.400      112.026       48.932     9880.379    12549.921     2394.372        9.829        1.241      412.775       44.224        0.011      338.893       11.850      858.108
05/19/2014  00:01:00     -206.363      -62.632        2.870      104.725       91.377       53.253    10967.273     8349.731     2835.863        3.433        1.108      215.658       57.479        0.071      338.872       11.816      858.110
05/19/2014  00:02:00     -348.856      -82.764      -26.896      157.562       99.528       60.389    24825.843     9905.907     3646.775        8.382        1.919      358.540       63.350        0.031      338.831       11.747      858.117
05/19/2014  00:03:00     -384.901      -96.576       -5.765      157.346      130.726       66.259    24757.708    17089.369     4390.294       10.186        2.312      396.832       72.877        0.034      338.826       11.738      858.112
05/19/2014  00:04:00     -367.047      -58.076      -16.195      128.232       95.343       54.536    16443.468     9090.366     2974.174        8.343        1.425      371.613       61.965        0.028      338.813       11.717      858.124
05/19/2014  00:05:00     -368.187      -63.650      -24.190      107.877       92.114       58.672    11637.413     8484.909     3442.361        8.188        1.178      373.648       58.948        0.025      338.876       11.822      858.133
05/19/2014  00:06:00     -290.472      -52.249      -15.298      110.518       93.714       52.533    12214.139     8782.257     2759.698        5.554        1.188      295.134       50.982        0.030      338.880       11.830      858.137
05/19/2014  00:07:00     -277.314      -16.265      -16.533      106.242      129.698       59.447    11287.375    16821.591     3533.951        5.454        1.582      277.791       54.453        0.038      338.907       11.874      858.143
05/19/2014  00:08:00     -280.565      -85.278       -4.002      146.785      100.563       56.229    21545.713    10112.890     3161.652        6.041        1.741      293.238       54.686        0.035      338.835       11.755      858.142
05/19/2014  00:09:00     -288.331      -89.622        4.129      145.209       80.237       53.468    21085.772     6438.037     2858.819        6.078        1.519      301.939       65.485        0.047      338.791       11.681      858.141
05/19/2014  00:10:00     -417.593     -112.940      -22.136      146.705       90.543       65.857    21522.414     8198.106     4337.165       11.084        1.703      432.596       65.217        0.023      338.782       11.665      858.139
05/19/2014  00:11:00     -268.006      -28.854        0.548      161.096      112.575       71.230    25951.932    12673.122     5073.710        5.817        2.185      269.555       81.217        0.091      338.852       11.783      858.144
05/19/2014  00:12:00     -396.637      -73.907      -23.685      143.697      133.458       73.871    20648.793    17810.921     5456.900       10.362        2.196      403.464       78.489        0.038      338.821       11.730      858.147
05/19/2014  00:13:00     -324.094      -51.045       -4.776      144.374      102.669       67.045    20843.954    10540.931     4494.983        7.177        1.794      328.089       74.217        0.051      338.807       11.707      858.163
05/19/2014  00:14:00     -403.528      -98.799       -2.514      172.585      130.245       75.852    29785.484    16963.711     5753.545       11.254        2.625      415.447       75.752        0.033      338.810       11.712      858.160
05/19/2014  00:15:00     -258.331       13.214        2.773      146.144      102.582       68.509    21358.139    10523.147     4693.429        5.174        1.829      258.669       70.800        0.075      338.877       11.823      858.162
05/19/2014  00:16:00     -339.711      -44.352       -4.947      144.079      101.980       70.544    20758.707    10400.001     4976.428        7.676        1.807      342.594       72.978        0.045      338.812       11.715      858.150
05/19/2014  00:17:00     -296.636      -60.601       -6.284      113.660       92.618       56.771    12918.591     8578.066     3222.929        5.821        1.236      302.763       58.845        0.038      338.802       11.697      858.156
05/19/2014  00:18:00     -185.242     -104.240       -0.061       97.663       90.087       48.735     9537.986     8115.712     2375.093        3.260        1.001      212.557       49.843        0.055      338.795       11.686      858.167
05/19/2014  00:19:00     -276.376     -123.251       -8.090       92.970       96.557       51.620     8643.493     9323.244     2664.590        5.613        1.032      302.613       42.188        0.019      338.768       11.641      858.174
05/19/2014  00:20:00     -198.147     -102.563        6.882      119.943       87.893       46.780    14386.263     7725.180     2188.337        3.706        1.215      223.117       59.622        0.071      338.754       11.620      858.160
05/19/2014  00:21:00     -158.245      -87.575       29.426      125.408      109.809       60.170    15727.197    12058.073     3620.374        3.248        1.570      180.861       65.330        0.130      338.723       11.567      858.158
05/19/2014  00:22:00     -156.277      -74.177        6.946      119.086       87.055       55.955    14181.397     7578.525     3130.910        2.743        1.245      172.988       63.304        0.134      338.766       11.640      858.166
05/19/2014  00:23:00     -287.218        1.585      -16.507      120.075       89.176       51.938    14417.927     7952.384     2697.516        5.391        1.253      287.222       53.495        0.035      338.804       11.701      858.171
05/19/2014  00:24:00     -161.137      -30.010       15.777      103.348       84.916       55.934    10680.909     7210.783     3128.666        2.406        1.051      163.907       61.560        0.141      338.742       11.599      858.163
05/19/2014  00:25:00     -187.826      -49.361        6.029      100.232       60.256       39.338    10046.419     3630.805     1547.466        2.648        0.761      194.203       38.386        0.039      338.739       11.594      858.172
05/19/2014  00:26:00     -223.467      -58.610      -20.961       78.653       70.894       42.115     6186.273     5025.953     1773.644        3.340        0.649      231.025       38.895        0.028      338.789       11.677      858.180
05/19/2014  00:27:00     -233.208      -13.359       -4.764       94.210       77.530       47.372     8875.558     6010.866     2244.110        3.586        0.857      233.591       43.864        0.035      338.760       11.629      858.189
05/19/2014  00:28:00     -223.979      -45.483      -11.732       87.538       90.024       49.515     7662.959     8104.268     2451.726        3.529        0.911      228.550       43.519        0.036      338.742       11.597      858.204
05/19/2014  00:29:00     -224.486      -32.974      -19.303       92.683       63.616       38.939     8590.163     4047.051     1516.233        3.300        0.708      226.895       37.932        0.028      338.791       11.680      858.215
05/19/2014  00:30:00     -228.935       10.220      -25.968       51.977       62.037       26.453     2701.659     3848.604      699.786        3.022        0.363      229.163       16.094        0.005      338.766       11.637      858.220
05/19/2014  00:31:00     -185.691        7.484      -11.234       59.368       64.842       30.919     3524.517     4204.445      956.011        2.167        0.434      185.842       31.110        0.028      338.803       11.701      858.217
05/19/2014  00:32:00     -128.937       -2.459       -3.778       38.697       64.658       35.813     1497.443     4180.615     1282.586        1.180        0.348      128.960       29.414        0.052      338.849       11.780      858.209
05/19/2014  00:33:00     -129.482      -53.535      -10.472       63.941       37.888       24.491     4088.396     1435.503      599.818        1.293        0.306      140.113       16.086        0.013      338.709       11.544      858.213
05/19/2014  00:34:00      -48.058       19.916       -2.334       34.834       47.508       26.321     1213.406     2256.995      692.792        0.344        0.208       52.021       29.473        0.321      338.710       11.546      858.210
05/19/2014  00:35:00      -82.574      100.791      -15.440       31.858       53.261       27.996     1014.920     2836.730      783.800        1.092        0.232      130.297       24.348        0.035      338.694       11.518      858.210
05/19/2014  00:36:00      -95.879       66.067      -17.272       39.366       54.429       26.847     1549.706     2962.503      720.736        0.954        0.262      116.437       25.115        0.047      338.845       11.772      858.204
05/19/2014  00:37:00     -123.329      138.084      -26.049       62.929       56.990       32.299     3960.054     3247.876     1043.198        2.160        0.413      185.141       29.721        0.026      338.654       11.451      858.202
05/19/2014  00:38:00     -144.329       67.872      -12.407       78.331       63.672       36.188     6135.731     4054.164     1309.576        1.854        0.575      159.491       36.767        0.053      338.709       11.544      858.209
05/19/2014  00:39:00     -153.767       33.665      -19.261       44.563       66.936       29.324     1985.850     4480.428      859.887        1.624        0.366      157.409       22.978        0.021      338.713       11.551      858.208
05/19/2014  00:40:00     -117.956      -14.405      -15.007       43.979       42.142       27.613     1934.145     1775.931      762.497        0.941        0.224      118.833       21.272        0.032      338.710       11.545      858.203
05/19/2014  00:41:00      -82.184      -16.477       -4.630       49.421       40.245       29.472     2442.425     1619.667      868.609        0.599        0.247       83.820       18.823        0.050      338.613       11.383      858.209
05/19/2014  00:42:00     -135.226       -3.498      -23.478       71.229       51.574       38.796     5073.605     2659.832     1505.147        1.404        0.462      135.272       36.635        0.073      338.661       11.465      858.200
05/19/2014  00:43:00     -128.328       14.264      -20.341       48.126       40.790       33.477     2316.121     1663.848     1120.739        1.109        0.255      129.119       22.025        0.029      338.623       11.400      858.199
05/19/2014  00:44:00     -125.275      -43.525      -19.248       56.753       80.882       37.517     3220.944     6541.938     1407.558        1.456        0.559      132.621       27.627        0.043      338.680       11.495      858.201
05/19/2014  00:45:00     -115.093      -38.777       -4.374       84.510       51.675       30.413     7141.985     2670.271      924.938        1.275        0.537      121.449       36.073        0.088      338.581       11.329      858.197
05/19/2014  00:46:00     -132.633      -42.156      -22.799       62.949       66.855       30.703     3962.552     4469.654      942.656        1.463        0.469      139.172       31.864        0.052      338.631       11.412      858.188
05/19/2014  00:47:00     -142.745       24.881       -7.713       58.489       76.550       40.941     3421.001     5859.859     1676.174        1.600        0.548      144.897       28.866        0.040      338.652       11.449      858.180
05/19/2014  00:48:00     -123.323       13.302      -14.874       80.207       59.824       41.699     6433.109     3578.958     1738.803        1.368        0.588      124.038       34.573        0.078      338.658       11.458      858.171
05/19/2014  00:49:00     -145.341       -2.860      -12.029       79.540       92.198       38.486     6326.684     8500.483     1481.187        1.879        0.815      145.369       26.291        0.033      338.599       11.360      858.159
05/19/2014  00:50:00     -212.822      -60.122      -17.635      103.399       77.947       40.446    10691.351     6075.714     1635.879        3.381        0.920      221.151       45.482        0.042      338.572       11.312      858.146
05/19/2014  00:51:00     -280.242      -47.472      -25.518       71.069       52.399       38.395     5050.774     2745.666     1474.158        4.535        0.464      284.234       36.150        0.016      338.506       11.200      858.140
05/19/2014  00:52:00     -187.464      -14.303       -3.816      100.776       86.494       52.358    10155.880     7481.238     2741.404        2.787        1.019      188.009       52.857        0.079      338.574       11.315      858.132
05/19/2014  00:53:00     -183.581      -44.923      -11.169       87.383       65.099       45.113     7635.775     4237.938     2035.157        2.487        0.695      188.997       42.686        0.051      338.536       11.250      858.118
05/19/2014  00:54:00     -145.589       -7.919       -3.541       64.089       58.091       34.796     4107.424     3374.618     1210.758        1.498        0.435      145.804       33.952        0.054      338.595       11.351      858.119
05/19/2014  00:55:00     -208.360      -29.102      -12.234       72.953       57.685       38.480     5322.204     3327.602     1480.674        2.727        0.507      210.382       38.796        0.034      338.549       11.274      858.112
05/19/2014  00:56:00     -272.190      -70.736      -17.325       63.358       69.444       36.058     4014.267     4822.416     1300.201        4.476        0.507      281.231       26.445        0.009      338.467       11.133      858.100
05/19/2014  00:57:00     -228.045      -54.563       -1.250       89.334       74.011       51.590     7980.652     5477.700     2661.520        3.555        0.806      234.482       48.539        0.043      338.470       11.139      858.106
05/19/2014  00:58:00     -246.048      -25.913      -17.607       96.882       70.754       49.031     9386.034     5006.166     2404.029        3.916        0.840      247.409       52.196        0.045      338.553       11.280      858.102
05/19/2014  00:59:00     -282.832      -25.306      -28.597       71.938       60.956       45.793     5175.043     3715.596     2096.967        4.622        0.549      283.962       37.191        0.017      338.541       11.257      858.100
05/19/2014  01:00:00     -265.284      -27.202      -17.502       83.813      101.971       50.218     7024.570    10398.054     2521.851        4.568        0.997      266.675       43.510        0.027      338.645       11.434      858.093
05/19/2014  01:01:00     -137.520      -26.402        7.936       87.513       82.083       46.500     7658.555     6737.569     2162.252        1.811        0.828      140.031       54.298        0.150      338.581       11.328      858.070
05/19/2014  01:02:00      -75.859      -25.155        6.057       72.381       64.400       41.142     5239.008     4147.326     1692.665        0.875        0.554       79.921       33.490        0.176      338.543       11.267      858.052
05/19/2014  01:03:00     -160.716      -26.931       -8.056       81.200       95.416       40.799     6593.379     9104.264     1664.569        2.199        0.868      162.956       43.707        0.072      338.559       11.292      858.035
05/19/2014  01:04:00     -149.926      -74.775       -5.450       60.068       73.344       38.733     3608.122     5379.295     1500.276        1.929        0.524      167.539       30.087        0.032      338.531       11.245      858.034
05/19/2014  01:05:00     -233.713      -51.756      -13.039       65.799       67.143       35.506     4329.558     4508.197     1260.658        3.378        0.505      239.375       28.165        0.014      338.512       11.210      858.024
05/19/2014  01:06:00     -197.180       -0.757       -9.590      106.142       65.772       38.654    11266.124     4325.923     1494.166        2.803        0.854      197.181       52.321        0.070      338.535       11.253      858.028
05/19/2014  01:07:00     -166.378      -20.039      -17.799       63.766       49.828       31.565     4066.130     2482.839      996.348        1.797        0.377      167.581       27.423        0.027      338.557       11.288      858.026
05/19/2014  01:08:00      -76.676      -14.137       -2.811       52.859       54.080       24.710     2794.105     2924.605      610.578        0.621        0.316       77.968       20.815        0.071      338.495       11.186      858.023
05/19/2014  01:09:00      -61.723       14.030       13.797       44.186       64.506       27.022     1952.430     4161.015      730.182        0.552        0.342       63.297       29.218        0.213      338.642       11.432      858.018
05/19/2014  01:10:00      -83.652      144.520      -23.420       52.267       58.824       35.436     2731.879     3460.206     1255.743        1.794        0.372      166.984       27.653        0.027      338.523       11.231      858.030
05/19/2014  01:11:00     -122.014      187.035      -18.600       56.166       61.500       41.029     3154.574     3782.248     1683.349        2.942        0.431      223.315       28.136        0.016      338.494       11.181      858.028
05/19/2014  01:12:00     -105.652      117.768      -14.359       53.112       63.346       39.298     2820.906     4012.686     1544.314        1.681        0.419      158.214       33.455        0.045      338.489       11.174      858.035
05/19/2014  01:13:00      -96.317       45.618       -0.733       49.649       94.912       39.207     2464.991     9008.283     1537.157        1.218        0.651      106.574       38.392        0.130      338.552       11.281      858.046
05/19/2014  01:14:00      -96.284      136.793      -21.518       59.820       67.969       48.186     3578.436     4619.782     2321.860        1.948        0.526      167.281       38.482        0.053      338.585       11.336      858.047
05/19/2014  01:15:00      -97.426       50.069       -4.740       43.392       46.027       34.470     1882.860     2118.455     1188.192        0.860        0.259      109.539       22.944        0.044      338.644       11.435      858.044
05/19/2014  01:16:00      -89.962       31.721      -12.001       55.653       78.530       48.526     3097.253     6166.948     2354.785        1.043        0.581       95.390       41.250        0.187      338.669       11.478      858.041
05/19/2014  01:17:00     -127.460       88.018      -11.318       87.207      100.566       37.078     7605.099    10113.593     1374.778        2.160        0.955      154.898       39.670        0.066      338.651       11.445      858.034
05/19/2014  01:18:00     -120.502       16.843       -9.683      113.520       81.686       57.964    12886.870     6672.543     3359.828        1.890        1.146      121.673       68.022        0.313      338.655       11.452      858.019
05/19/2014  01:19:00      -82.789      -15.104       -2.860       72.948       77.892       45.390     5321.371     6067.110     2060.255        1.027        0.672       84.155       50.990        0.367      338.635       11.422      858.011
05/19/2014  01:20:00     -125.355      -13.127      -20.212       70.223       63.790       53.243     4931.319     4069.183     2834.860        1.406        0.592      126.041       39.070        0.096      338.721       11.564      858.005
05/19/2014  01:21:00     -149.097       22.913      -20.617       94.051       74.254       43.406     8845.555     5513.592     1884.094        1.971        0.812      150.847       39.212        0.068      338.723       11.568      858.012
05/19/2014  01:22:00      -72.597      133.869      -26.974       64.738       71.131       35.340     4191.058     5059.685     1248.950        1.721        0.525      152.286       35.705        0.055      338.691       11.513      858.031
05/19/2014  01:23:00       52.462      188.599      -21.517       71.307      103.230       50.087     5084.734    10656.344     2508.756        2.851        0.912      195.759       55.931        0.082      338.598       11.356      858.012
05/19/2014  01:24:00       52.545      133.579      -25.227       42.551       77.693       32.832     1810.554     6036.270     1077.956        1.508        0.446      143.542       32.026        0.050      338.562       11.298      858.012
05/19/2014  01:25:00      -64.245        2.952      -10.481       84.095       40.715       27.888     7072.053     1657.745      777.738        0.687        0.475       64.313       26.752        0.173      338.648       11.443      858.014
05/19/2014  01:26:00     -138.653       78.181      -27.211       41.875       40.763       28.930     1753.534     1661.634      836.964        1.516        0.213      159.176       26.961        0.029      338.732       11.584      858.052
05/19/2014  01:27:00     -102.221       94.966      -21.159       38.459       51.431       24.152     1479.068     2645.123      583.325        1.231        0.235      139.526       29.022        0.043      338.630       11.413      858.053
05/19/2014  01:28:00      -16.047       89.688       -4.751       50.126       41.459       23.387     2512.644     1718.826      546.966        0.655        0.239       91.112       22.040        0.059      338.634       11.419      858.023
05/19/2014  01:29:00       -6.101       18.802       -4.469       56.601       20.026       19.115     3203.660      401.046      365.369        0.219        0.199       19.767       12.187        0.380      338.757       11.625      858.003
05/19/2014  01:30:00     -147.056       17.171      -24.415       56.017       30.628       20.406     3137.860      938.090      416.415        1.350        0.225      148.056       15.970        0.012      338.862       11.803      858.054
05/19/2014  01:31:00     -110.259       48.067      -13.315       49.049       40.637       23.639     2405.810     1651.328      558.794        0.963        0.231      120.280       23.135        0.037      338.630       11.412      858.080
05/19/2014  01:32:00      -47.570       60.080       -9.496       20.265       24.167       13.161      410.656      584.046      173.203        0.357        0.058       76.632        5.204        0.005      338.564       11.299      858.065
05/19/2014  01:33:00      -34.427      110.385      -23.444       28.580       36.105       18.745      816.804     1303.548      351.373        0.820        0.124      115.629       17.363        0.023      338.695       11.522      858.059
05/19/2014  01:34:00     -115.405       62.130      -11.437       39.223       31.265       26.020     1538.481      977.497      677.034        1.025        0.160      131.067       18.579        0.020      338.778       11.660      858.083
05/19/2014  01:35:00      -72.760       87.288      -18.442       31.491       28.935       25.485      991.700      837.260      649.464        0.787        0.124      113.636       21.758        0.037      338.463       11.131      858.089
05/19/2014  01:36:00      -27.131      159.033      -28.734       44.327       57.590       23.339     1964.850     3316.665      544.723        1.634        0.291      161.330       26.228        0.026      338.438       11.087      858.091
05/19/2014  01:37:00       27.797      201.276      -32.867       40.748       34.174       23.704     1660.362     1167.872      561.884        2.288        0.170      203.187       17.639        0.008      338.394       11.014      858.079
05/19/2014  01:38:00      -39.542      171.936      -33.188       58.175       44.227       27.682     3384.362     1955.992      766.314        1.917        0.305      176.424       28.500        0.026      338.392       11.012      858.074
05/19/2014  01:39:00      -58.487      203.573      -33.104       49.374       58.973       30.559     2437.804     3477.861      933.850        2.640        0.342      211.808       27.752        0.017      338.357       10.951      858.082
05/19/2014  01:40:00       17.205      206.943      -34.048       48.118       74.311       34.509     2315.374     5522.190     1190.887        2.665        0.451      207.657       32.733        0.025      338.280       10.822      858.066
05/19/2014  01:41:00      -74.927       89.283      -18.725       96.859       56.452       32.776     9381.730     3186.812     1074.291        1.379        0.682      116.557       24.825        0.045      338.527       11.240      858.069
05/19/2014  01:42:00     -118.664       10.805      -14.871       47.605       39.948       20.523     2266.243     1595.860      421.193        0.935        0.214      119.154       15.738        0.017      338.507       11.205      858.100
05/19/2014  01:43:00      -54.684       -0.373        6.154       32.174       34.458       17.726     1035.151     1187.371      314.220        0.278        0.127       54.685       17.363        0.101      338.255       10.782      858.099
05/19/2014  01:44:00      -24.375       -6.629       -0.057       15.329       25.114       12.945      234.987      630.729      167.580        0.084        0.052       25.260        8.350        0.109      338.101       10.525      858.092
05/19/2014  01:45:00      -89.427        2.344      -11.565       49.812       31.987       18.508     2481.258     1023.137      342.557        0.599        0.192       89.458       15.353        0.029      338.196       10.684      858.099
05/19/2014  01:46:00      -78.599       75.348      -14.996       60.530       45.075       28.266     3663.903     2031.748      798.953        0.929        0.325      108.881       22.656        0.043      338.185       10.664      858.113
05/19/2014  01:47:00      -53.760       44.141       -5.798       39.364       41.981       23.971     1549.535     1762.438      574.626        0.438        0.194       69.560       21.525        0.096      338.219       10.723      858.098
05/19/2014  01:48:00      -40.800       68.958      -17.036       28.586       32.380       17.895      817.175     1048.443      320.241        0.445        0.109       80.124       19.549        0.060      338.113       10.545      858.093
05/19/2014  01:49:00      -64.229       19.067      -10.486       50.093       29.692       16.254     2509.278      881.604      264.189        0.413        0.183       66.999       17.890        0.071      338.278       10.820      858.102
05/19/2014  01:50:00      -70.181      -34.648       -9.461       37.248       16.931       17.953     1387.433      286.661      322.317        0.411        0.100       78.268       13.449        0.030      338.114       10.545      858.109
05/19/2014  01:51:00      -14.801      -26.211        6.541       18.991       20.074       15.330      360.641      402.952      235.021        0.097        0.050       30.101       12.503        0.173      338.057       10.450      858.111
05/19/2014  01:52:00      -70.067      -17.409       -7.344       31.948       35.054       18.522     1020.700     1228.768      343.071        0.393        0.130       72.197       16.234        0.051      338.157       10.618      858.125
05/19/2014  01:53:00      -14.989      -51.482       -8.859       31.377       17.385       19.016      984.486      302.238      361.600        0.230        0.082       53.619       20.238        0.142      337.990       10.339      858.109
05/19/2014  01:54:00       -0.472       -5.340       22.096       20.300       30.322       21.753      412.096      919.439      473.205        0.116        0.090        5.361       18.023       11.302      338.017       10.383      858.076
05/19/2014  01:55:00       -3.043       32.074       52.059       23.971       26.787       20.544      574.604      717.520      422.037        0.273        0.086       32.218       15.521        0.232      337.926       10.231      858.059
05/19/2014  01:56:00      -72.625       -9.527       -2.853       39.684       49.030       29.647     1574.799     2403.911      878.972        0.511        0.243       73.247       21.922        0.090      338.164       10.630      858.067
05/19/2014  01:57:00     -103.425      -73.821        1.892       42.815       30.337       27.368     1833.130      920.350      749.016        0.983        0.175      127.068       23.269        0.034      337.953       10.275      858.088
05/19/2014  01:58:00      -37.791      -44.646        1.922       37.162       19.003       16.592     1381.007      361.101      275.298        0.272        0.101       58.493       16.012        0.075      337.997       10.350      858.094
05/19/2014  01:59:00      -27.739      -75.773        1.686       15.043       21.324       13.092      226.297      454.695      171.388        0.368        0.043       80.691        4.852        0.004      338.051       10.441      858.091
05/19/2014  02:00:00      -42.133      -12.401        3.746       12.932       24.441       13.147      167.226      597.348      172.840        0.144        0.047       43.920        6.410        0.021      338.064       10.463      858.090
05/19/2014  02:01:00      -67.310      -17.768       -1.542       20.841       20.910       14.930      434.345      437.239      222.914        0.297        0.055       69.616        4.478        0.004      338.099       10.522      858.090
05/19/2014  02:02:00      -95.292      -29.535        0.339       55.050       45.527       18.269     3030.548     2072.748      333.765        0.769        0.272       99.764       16.493        0.027      338.120       10.557      858.115
05/19/2014  02:03:00     -115.697      -51.565        5.975       57.421       49.936       23.014     3297.222     2493.653      529.663        1.120        0.316      126.668       20.259        0.026      337.943       10.258      858.137
05/19/2014  02:04:00     -110.276      -94.726       -3.861       46.975       42.104       28.309     2206.681     1772.738      801.374        1.296        0.239      145.374       24.751        0.029      337.846       10.097      858.148
05/19/2014  02:05:00     -109.387      -66.514       -0.898       35.300       33.300       22.445     1246.112     1108.871      503.790        0.962        0.143      128.022       20.655        0.026      337.807       10.029      858.150
05/19/2014  02:06:00      -68.835      -44.941        7.279       59.905       27.137       25.383     3588.620      736.427      644.315        0.589        0.248       82.206       33.860        0.170      337.744        9.924      858.147
05/19/2014  02:07:00     -112.880      -19.980      -12.215       46.750       36.234       23.688     2185.533     1312.935      561.118        0.867        0.203      114.634       25.941        0.051      337.760        9.952      858.136
05/19/2014  02:08:00      -79.817       -3.814        2.486       49.314       29.376       22.169     2431.918      862.952      491.449        0.509        0.189       79.908       27.369        0.117      337.796       10.011      858.131
05/19/2014  02:09:00      -80.594      -14.450       -0.474       41.027       36.509       22.463     1683.245     1332.928      504.578        0.511        0.176       81.879       18.096        0.049      337.759        9.951      858.131
05/19/2014  02:10:00     -101.382      -27.370       -9.191       36.634       45.992       24.228     1342.071     2115.273      586.987        0.758        0.202      105.012       18.955        0.033      337.742        9.922      858.130
05/19/2014  02:11:00     -104.853      -12.247      -10.569       59.229       26.891       23.664     3508.031      723.111      560.003        0.802        0.240      105.566       15.438        0.021      337.611        9.702      858.127
05/19/2014  02:12:00      -55.291      -13.308        1.722       53.166       24.768       21.942     2826.676      613.437      481.465        0.358        0.196       56.870       24.709        0.189      337.626        9.727      858.128
05/19/2014  02:13:00      -46.707       20.556       -6.646       25.547       29.652       18.631      652.632      879.257      347.122        0.226        0.094       51.031       14.967        0.086      337.621        9.718      858.126
05/19/2014  02:14:00      -56.895       13.328       -6.381       35.951       17.374       20.368     1292.473      301.869      414.850        0.273        0.100       58.436       22.119        0.143      337.685        9.824      858.123
05/19/2014  02:15:00      -27.310       39.258       -0.526       48.132       28.013       24.602     2316.737      784.706      605.255        0.300        0.185       47.823       31.800        0.442      337.541        9.584      858.119
05/19/2014  02:16:00       15.406       22.499       -0.612       23.475       19.999       18.663      551.087      399.955      348.305        0.102        0.065       27.268       11.141        0.167      337.435        9.405      858.113
05/19/2014  02:17:00       50.342       27.464       -4.626       28.306       16.521       14.554      801.254      272.950      211.820        0.230        0.064       57.346        9.239        0.026      337.438        9.409      858.108
05/19/2014  02:18:00       68.509       38.087       -3.318       18.373       19.398       11.756      337.570      376.281      138.213        0.350        0.043       78.384        6.350        0.007      337.389        9.329      858.103
05/19/2014  02:19:00       22.139       31.940        7.233       18.079       10.761       16.389      326.842      115.789      268.602        0.114        0.036       38.863       13.228        0.116      337.419        9.380      858.090
05/19/2014  02:20:00        5.106       15.367       -3.703       11.227       23.547        6.828      126.040      554.465       46.627        0.050        0.036       16.193        8.021        0.245      337.667        9.796      858.076
05/19/2014  02:21:00      -18.998       -6.264        1.272       13.166        7.691        8.306      173.343       59.144       68.982        0.035        0.015       20.004        8.172        0.167      337.674        9.807      858.072
05/19/2014  02:22:00      -79.965      -17.196      -14.221       14.000       16.614       11.199      196.002      276.036      125.411        0.374        0.030       81.793        7.292        0.008      337.481        9.484      858.065
05/19/2014  02:23:00     -112.299      -33.697      -14.787       22.584       14.216       10.988      510.019      202.081      120.747        0.740        0.042      117.245        9.932        0.007      337.514        9.538      858.069
05/19/2014  02:24:00     -104.524      -28.866       -4.791       29.614       26.817       18.345      876.983      719.168      336.527        0.686        0.097      108.437       17.926        0.027      337.425        9.390      858.082
05/19/2014  02:25:00     -142.864      -30.220       -8.293       44.177       32.316       21.599     1951.582     1044.335      466.498        1.243        0.173      146.025       21.491        0.022      337.353        9.269      858.087
05/19/2014  02:26:00     -130.517      -10.774      -15.300       32.734       26.590       21.060     1071.538      707.042      443.536        0.980        0.111      130.961       20.624        0.025      337.525        9.558      858.085
05/19/2014  02:27:00      -79.583      -37.328       -0.505       21.310       27.009       16.586      454.108      729.461      275.081        0.459        0.073       87.903       14.635        0.028      337.495        9.506      858.069
05/19/2014  02:28:00      -37.899      -43.272        4.293       40.409       26.607       17.693     1632.897      707.907      313.045        0.299        0.133       57.522       20.772        0.130      337.520        9.551      858.053
05/19/2014  02:29:00      -68.257      -46.498       -0.092       29.183       18.649       11.644      851.637      347.776      135.583        0.408        0.067       82.590        1.883        0.001      337.530        9.566      858.035
05/19/2014  02:30:00      -62.329      -41.015        2.345       29.848       20.010       14.253      890.906      400.403      203.160        0.353        0.075       74.614        6.431        0.007      337.518        9.547      858.024
05/19/2014  02:31:00      -58.681      -36.514       -2.439       33.204       17.854       12.930     1102.534      318.749      167.197        0.319        0.079       69.114       15.661        0.051      337.419        9.382      858.009
05/19/2014  02:32:00      -65.776      -45.655       -3.703       24.362       11.649        8.395      593.491      135.696       70.483        0.361        0.040       80.067        6.938        0.008      337.503        9.520      857.998
05/19/2014  02:33:00      -60.793      -51.405        5.532       19.374       21.029       13.398      375.368      442.227      179.501        0.368        0.050       79.613        8.619        0.012      337.528        9.562      857.992
05/19/2014  02:34:00      -77.368      -27.155       -6.891       18.728       17.230       12.432      350.749      296.885      154.548        0.379        0.040       81.995        8.926        0.012      337.423        9.387      857.980
05/19/2014  02:35:00      -20.678      -31.077       -3.029       17.924       13.171        7.087      321.272      173.464       50.229        0.097        0.027       37.328        4.750        0.016      337.467        9.459      857.963
05/19/2014  02:36:00        2.056       -4.385       -2.657        4.407        9.215        3.554       19.418       84.920       12.628        0.007        0.006        4.843        2.947        0.370      337.607        9.695      857.946
05/19/2014  02:37:00       38.045       23.095        3.262       19.511       17.240       13.847      380.673      297.229      191.726        0.143        0.043       44.506        7.965        0.032      337.535        9.576      857.926
05/19/2014  02:38:00       84.547       68.847       11.968       47.352       54.189       34.053     2242.199     2936.476     1159.640        0.918        0.317      109.033       28.649        0.069      337.069        8.794      857.929
05/19/2014  02:39:00       52.336       30.799        7.877       40.150       38.022       32.811     1611.994     1445.651     1076.532        0.394        0.207       60.725       24.485        0.163      336.983        8.651      857.916
05/19/2014  02:40:00       34.982       29.958        4.764       28.361       18.806       18.708      804.362      353.667      349.992        0.183        0.075       46.057       13.080        0.081      336.977        8.638      857.910
05/19/2014  02:41:00       68.299       27.435        2.347       25.803       24.021       17.823      665.821      577.010      317.670        0.349        0.078       73.603        8.445        0.013      337.026        8.720      857.910
05/19/2014  02:42:00       38.235       16.756        9.224       19.947       21.964       19.184      397.884      482.434      368.023        0.154        0.062       41.745       13.737        0.108      337.154        8.937      857.907
05/19/2014  02:43:00        1.468        3.793        4.256       22.717       13.765        9.373      516.077      189.465       87.857        0.041        0.040        4.067        9.569        5.536      337.125        8.888      857.908
05/19/2014  02:44:00      -16.610        7.014       -2.044       13.039       12.580        6.833      170.008      158.244       46.687        0.035        0.019       18.030        6.192        0.118      337.388        9.329      857.911
05/19/2014  02:45:00      -44.320       -2.359       -0.410       18.750       18.172       11.002      351.556      330.217      121.039        0.139        0.040       44.382        8.386        0.036      337.335        9.239      857.917
05/19/2014  02:46:00      -13.441       14.522        9.196       16.282       21.593       11.624      265.107      466.250      135.113        0.067        0.043       19.787        9.957        0.253      337.287        9.159      857.924
05/19/2014  02:47:00      -16.830        9.668      -11.573       16.599       18.699       12.110      275.531      349.635      146.646        0.064        0.039       19.409       11.005        0.322      337.398        9.345      857.923
05/19/2014  02:48:00      -32.434      -38.639        0.885       18.433       16.495       14.987      339.766      272.084      224.621        0.169        0.042       50.447        6.891        0.019      337.349        9.262      857.928
05/19/2014  02:49:00      -51.685      -21.625       -1.436       17.434       12.283        9.959      303.958      150.874       99.174        0.185        0.028       56.027        6.728        0.014      337.317        9.208      857.926
05/19/2014  02:50:00      -75.113      -22.954       -8.032       26.541       17.106       13.802      704.411      292.607      190.487        0.371        0.059       78.542       12.562        0.026      337.279        9.145      857.928
05/19/2014  02:51:00      -73.779      -14.324       -1.875       34.109       27.341       18.665     1163.409      747.518      348.390        0.396        0.113       75.157       15.350        0.042      337.490        9.499      857.921
05/19/2014  02:52:00      -70.797      -12.625       -2.148       38.204       32.582       21.856     1459.565     1061.579      477.702        0.409        0.150       71.914       22.730        0.100      337.432        9.401      857.911
05/19/2014  02:53:00      -54.077      -19.833       -2.613       31.100       26.434       19.401      967.180      698.783      376.383        0.268        0.102       57.599       18.728        0.106      337.503        9.520      857.900
05/19/2014  02:54:00      -60.283      -15.396       -3.956       41.491       33.950       20.156     1721.539     1152.570      406.271        0.358        0.164       62.218       21.916        0.124      337.420        9.381      857.886
05/19/2014  02:55:00      -32.566       -6.798       -4.408       29.654       24.710       17.401      879.378      610.599      302.778        0.146        0.090       33.268       15.979        0.231      337.570        9.632      857.885
05/19/2014  02:56:00      -15.045      -12.890        1.284       28.767       24.796       17.695      827.535      614.861      313.103        0.107        0.088       19.811       12.118        0.374      337.475        9.474      857.884
05/19/2014  02:57:00      -11.985      -11.116       -0.276       32.540       19.037       18.239     1058.861      362.421      332.662        0.101        0.088       16.347       11.121        0.463      337.402        9.352      857.883
05/19/2014  02:58:00       -1.263      -10.977        3.649       17.775       15.340       10.337      315.957      235.306      106.855        0.040        0.033       11.050        7.142        0.418      337.359        9.278      857.888
05/19/2014  02:59:00      -19.161      -13.699       -6.781       16.584       10.923        8.757      275.015      119.304       76.690        0.054        0.024       23.555        7.570        0.103      337.399        9.346      857.891
05/19/2014  03:00:00      -36.591      -12.031       -8.468       14.579       20.051        9.167      212.534      402.050       84.040        0.113        0.035       38.518        3.376        0.008      337.360        9.283      857.893
05/19/2014  03:01:00      -56.268      -35.919       -7.644       29.585       15.896       14.767      875.300      252.697      218.066        0.293        0.067       66.755       11.857        0.032      337.285        9.155      857.899
05/19/2014  03:02:00      -88.441      -55.203      -11.539       30.612       22.936       16.148      937.117      526.040      260.749        0.636        0.086      104.255        5.418        0.003      337.031        8.731      857.900
05/19/2014  03:03:00      -96.285      -60.687       -4.461       26.824       18.464       17.152      719.529      340.938      294.197        0.716        0.068      113.815       17.447        0.023      337.019        8.709      857.899
05/19/2014  03:04:00      -96.530      -55.155       -6.353       18.488       20.674       12.790      341.810      427.399      163.584        0.667        0.047      111.176        7.082        0.004      337.052        8.766      857.904
05/19/2014  03:05:00      -83.889      -49.080       -0.946       26.543       22.620       16.524      704.556      511.653      273.027        0.547        0.074       97.192       15.506        0.025      337.104        8.851      857.906
05/19/2014  03:06:00      -99.135      -52.792       -4.822       31.004       31.150       16.892      961.254      970.347      285.330        0.743        0.111      112.315       10.652        0.009      337.127        8.891      857.919
05/19/2014  03:07:00     -147.824      -57.081      -13.425       42.221       46.642       22.302     1782.650     2175.439      497.363        1.487        0.223      158.462       25.205        0.025      336.982        8.649      857.932
05/19/2014  03:08:00     -107.026      -23.848       -2.805       57.339       35.858       28.495     3287.797     1285.800      811.990        0.871        0.269      109.651       30.414        0.077      337.034        8.736      857.955
05/19/2014  03:09:00      -79.704      -16.936       -4.697       42.644       32.338       25.221     1818.545     1045.725      636.120        0.508        0.175       81.484       25.142        0.095      337.085        8.820      857.965
05/19/2014  03:10:00      -73.703      -26.480       -5.157       37.838       24.897       15.761     1431.748      619.881      248.418        0.423        0.115       78.315       14.353        0.034      336.924        8.551      857.976
05/19/2014  03:11:00      -71.049      -40.938       -3.650       28.467       24.661       16.899      810.392      608.151      285.561        0.422        0.085       82.000       15.884        0.038      336.948        8.591      857.986
05/19/2014  03:12:00      -73.215      -62.889       -0.609       23.311       23.340       16.668      543.383      544.776      277.838        0.534        0.068       96.516       13.079        0.018      336.956        8.604      857.994
05/19/2014  03:13:00      -35.991      -32.856       -0.663       41.488       20.141       22.363     1721.258      405.643      500.097        0.250        0.131       48.732       18.513        0.144      337.073        8.799      858.001
05/19/2014  03:14:00      -40.291      -39.439        2.596       61.016       26.228       22.729     3723.011      687.916      516.602        0.406        0.246       56.380       32.726        0.337      336.913        8.532      858.013
05/19/2014  03:15:00      -68.177      -43.301       -5.573       44.197       23.288       16.249     1953.374      542.322      264.015        0.466        0.138       80.766       21.715        0.072      336.817        8.375      858.031
05/19/2014  03:16:00      -89.880      -21.163       -5.556       46.642       26.651       20.998     2175.459      710.265      440.913        0.594        0.166       92.338       24.259        0.069      336.942        8.582      858.043
05/19/2014  03:17:00      -78.095      -15.190        0.096       44.524       32.656       23.315     1982.429     1066.408      543.611        0.496        0.180       79.558       24.066        0.092      336.942        8.582      858.056
05/19/2014  03:18:00     -100.684       -8.529      -11.470       29.781       23.522       19.939      886.938      553.262      397.545        0.609        0.092      101.044       19.670        0.038      336.904        8.520      858.066
05/19/2014  03:19:00      -63.176      -35.060       -2.974       26.168       24.513       12.617      684.743      600.881      159.186        0.334        0.072       72.252       12.749        0.031      336.961        8.613      858.069
05/19/2014  03:20:00      -72.414      -19.709       -1.243       24.258       16.576       11.357      588.430      274.765      128.983        0.331        0.050       75.048       10.791        0.021      336.973        8.634      858.060
05/19/2014  03:21:00      -93.962      -31.259      -11.424       15.237       12.260        9.641      232.160      150.303       92.954        0.521        0.024       99.026        6.788        0.005      336.905        8.522      858.059
05/19/2014  03:22:00     -112.457      -44.110      -10.428       12.510       16.335        8.259      156.505      266.822       68.213        0.760        0.025      120.799        5.067        0.002      336.927        8.556      858.058
05/19/2014  03:23:00     -138.256      -50.303      -17.450        9.850       15.486        8.626       97.025      239.829       74.414        1.118        0.021      147.123        4.645        0.001      336.868        8.459      858.052
05/19/2014  03:24:00     -130.763      -37.237      -12.887       24.383       22.136       16.353      594.540      489.989      267.409        1.000        0.068      135.961       13.431        0.010      336.939        8.577      858.035
05/19/2014  03:25:00     -126.647      -27.506      -14.310       31.591       33.632       17.103      997.994     1131.140      292.497        0.971        0.121      129.599       17.921        0.019      336.902        8.515      858.025
05/19/2014  03:26:00     -137.153      -26.951      -16.331       19.189       19.036       16.349      368.226      362.358      267.292        1.040        0.050      139.776       10.568        0.006      336.813        8.369      858.014
05/19/2014  03:27:00      -90.546      -21.492       -1.333       32.661       25.851       16.471     1066.763      668.285      271.304        0.533        0.100       93.062       15.331        0.027      336.943        8.583      858.006
05/19/2014  03:28:00      -61.885      -44.691        3.111       47.380       28.615       24.632     2244.875      818.826      606.746        0.475        0.184       76.335       26.739        0.123      336.874        8.468      857.996
05/19/2014  03:29:00     -113.530      -42.094       -4.197       21.106       17.814       13.292      445.452      317.324      176.681        0.781        0.047      121.083        9.572        0.006      336.813        8.368      857.999
05/19/2014  03:30:00      -37.503      -18.471        2.448       61.199       43.183       24.280     3745.354     1864.783      589.509        0.398        0.310       41.805       33.719        0.651      336.820        8.377      858.003
05/19/2014  03:31:00      -67.782      -20.160        3.920       43.828       27.308       22.882     1920.877      745.747      523.591        0.410        0.160       70.717       18.899        0.071      336.919        8.543      858.003
05/19/2014  03:32:00      -63.043      -58.090       -1.740       39.448       27.498       20.879     1556.165      756.164      435.916        0.505        0.137       85.725       20.916        0.060      336.855        8.436      858.003
05/19/2014  03:33:00      -96.865      -40.495       -4.037       36.674       19.453       15.339     1344.997      378.437      235.288        0.650        0.098      104.989       17.955        0.029      336.828        8.392      858.002
05/19/2014  03:34:00      -81.919      -11.098       -3.452       25.858       18.526       13.956      668.615      343.203      194.764        0.403        0.060       82.668        9.621        0.014      336.800        8.345      857.999
05/19/2014  03:35:00      -14.813      -30.475        7.362       30.028       23.566       18.297      901.655      555.344      334.778        0.150        0.090       33.885       19.602        0.335      336.952        8.599      857.995
05/19/2014  03:36:00      -34.364       20.569       -5.635       37.272       22.757       13.273     1389.217      517.898      176.185        0.186        0.104       40.049       20.611        0.265      336.973        8.633      857.984
05/19/2014  03:37:00      -53.205       26.632       -7.147       23.090       17.693       15.697      533.141      313.057      246.403        0.234        0.055       59.498        7.676        0.017      337.022        8.715      857.977
05/19/2014  03:38:00      -82.284       13.532       -4.597       36.017       18.187       21.494     1297.207      330.755      461.983        0.453        0.104       83.389       18.768        0.051      336.977        8.642      857.972
05/19/2014  03:39:00     -108.422       13.486      -17.727       21.413       22.675       15.942      458.519      514.137      254.147        0.674        0.061      109.257       13.832        0.016      336.751        8.264      857.972
05/19/2014  03:40:00      -91.195      -18.972      -11.187       25.053       26.310       14.294      627.675      692.236      204.314        0.516        0.076       93.147       13.356        0.021      336.739        8.244      857.973
05/19/2014  03:41:00      -89.929      -35.750       -9.264       19.626       22.018       14.205      385.174      484.800      201.773        0.526        0.054       96.775       10.775        0.012      336.778        8.309      857.984
05/19/2014  03:42:00      -79.369       -7.127       -9.014       23.692       23.282       19.320      561.307      542.060      373.246        0.395        0.074       79.688       15.396        0.037      336.836        8.405      857.993
05/19/2014  03:43:00      -98.918       12.972      -17.225       20.165       20.700       15.063      406.627      428.476      226.885        0.566        0.053       99.765        8.043        0.006      336.815        8.370      857.990
05/19/2014  03:44:00      -95.263       -8.717       -6.634       24.414       25.684       14.658      596.033      659.652      214.865        0.533        0.074       95.661        8.452        0.008      336.848        8.425      857.983
05/19/2014  03:45:00      -89.385       -9.180       -9.231       26.103       29.562       19.023      681.371      873.911      361.864        0.504        0.096       89.855       16.805        0.035      336.847        8.424      857.972
05/19/2014  03:46:00      -87.863      -19.616       -8.796       23.954       21.944       16.902      573.816      481.550      285.665        0.476        0.067       90.027       12.783        0.020      336.758        8.276      857.966
05/19/2014  03:47:00      -98.982      -20.718       -9.603       23.197       23.865       17.730      538.079      569.534      314.356        0.587        0.071      101.127       12.321        0.015      336.661        8.116      857.950
05/19/2014  03:48:00     -117.056      -24.868       -7.411       33.879       30.983       17.886     1147.810      959.957      319.917        0.840        0.121      119.669       16.253        0.018      336.557        7.940      857.924
05/19/2014  03:49:00     -114.267      -10.223       -2.929       40.316       27.993       16.399     1625.356      783.600      268.920        0.792        0.134      114.724       17.248        0.023      336.480        7.810      857.911
05/19/2014  03:50:00     -127.711       14.795       -8.583       26.425       30.392       19.761      698.301      923.684      390.506        0.931        0.101      128.565       10.284        0.006      336.557        7.940      857.897
05/19/2014  03:51:00     -107.124       -9.360      -12.069       38.186       28.311       15.570     1458.186      801.531      242.423        0.710        0.125      107.532       18.135        0.028      336.605        8.021      857.885
05/19/2014  03:52:00     -103.279      -23.424       -3.812       36.616       30.002       17.062     1340.765      900.107      291.124        0.688        0.127      105.902       18.182        0.029      336.542        7.914      857.890
05/19/2014  03:53:00     -115.606      -17.099       -8.534       37.592       24.922       19.351     1413.130      621.111      374.470        0.807        0.120      116.864       16.341        0.020      336.489        7.826      857.894
05/19/2014  03:54:00      -86.091       -8.371       -8.445       31.648       21.158       14.069     1001.574      447.673      197.941        0.460        0.082       86.497       11.375        0.017      336.550        7.927      857.894
05/19/2014  03:55:00      -56.616      -47.221       -4.221       30.321       26.056       17.664      919.364      678.907      312.030        0.368        0.096       73.724       14.634        0.039      336.667        8.124      857.904
05/19/2014  03:56:00      -52.014      -16.666        0.912       24.990       17.122       11.944      624.478      293.160      142.648        0.202        0.053       54.619       11.772        0.046      336.717        8.208      857.907
05/19/2014  03:57:00      -42.730      -18.374       -2.048       15.745       16.997       11.669      247.913      288.907      136.159        0.142        0.034       46.513        9.723        0.044      336.717        8.209      857.925
05/19/2014  03:58:00      -30.540       -9.616       -2.234       21.193       13.345       10.016      449.151      178.086      100.330        0.088        0.036       32.018       11.369        0.126      336.677        8.141      857.926
05/19/2014  03:59:00      -61.736        0.199       -7.474       14.675       12.880        8.365      215.360      165.891       69.967        0.216        0.023       61.737        5.853        0.009      336.701        8.181      857.945
05/19/2014  04:00:00      -43.159      -16.767       -3.074       19.715       19.578       12.812      388.697      383.287      164.150        0.154        0.047       46.301       11.072        0.057      336.742        8.249      857.964
05/19/2014  04:01:00      -37.446      -32.111      -12.612       26.421       13.781       11.423      698.064      189.906      130.481        0.181        0.051       49.329       12.271        0.062      336.724        8.219      857.971
05/19/2014  04:02:00      -20.491      -30.489       -1.239       34.990       18.460       15.781     1224.275      340.769      249.034        0.158        0.091       36.735        6.928        0.036      336.773        8.300      857.990
05/19/2014  04:03:00      -36.806      -12.791        6.051       30.397       20.011       17.312      923.968      400.460      299.713        0.159        0.081       38.965       11.703        0.090      336.577        7.973      858.001
05/19/2014  04:04:00      -62.843      -20.477       -1.511       16.437       24.909       13.901      270.165      620.444      193.241        0.273        0.054       66.095        7.375        0.012      336.569        7.960      857.994
05/19/2014  04:05:00      -75.198      -15.470       -6.312        8.226       11.931        7.579       67.667      142.356       57.442        0.310        0.013       76.773        1.906        0.001      336.574        7.966      858.009
05/19/2014  04:06:00      -87.168      -16.946       -6.437       15.111       17.701       12.334      228.356      313.315      152.126        0.431        0.035       88.800       11.330        0.016      336.638        8.076      858.011
05/19/2014  04:07:00      -93.921      -25.566       -9.701       14.728       17.933       14.541      216.914      321.598      211.453        0.516        0.037       97.338        8.716        0.008      336.618        8.042      858.009
05/19/2014  04:08:00     -109.981      -37.768       -5.984       17.001       22.466       13.558      289.026      504.744      183.812        0.727        0.049      116.285        6.761        0.003      336.595        8.003      858.005
05/19/2014  04:09:00     -120.700      -36.264      -15.623       16.717       19.294       13.398      279.443      372.248      179.508        0.848        0.042      126.030        8.142        0.004      336.464        7.784      857.992
05/19/2014  04:10:00     -132.211      -20.908      -18.270       16.597       19.370       12.822      275.462      375.209      164.410        0.953        0.041      133.854        6.506        0.002      336.524        7.884      857.992
05/19/2014  04:11:00     -105.180      -46.743       -7.486       57.607       30.183       23.247     3318.621      911.014      540.445        0.904        0.239      115.099       21.110        0.034      336.559        7.943      857.973
05/19/2014  04:12:00     -112.638      -36.346       -3.040       38.292       28.324       20.341     1466.285      802.266      413.752        0.835        0.134      118.357       14.328        0.015      336.500        7.844      857.959
05/19/2014  04:13:00     -137.737      -69.646       -5.569       33.286       22.881       21.881     1107.990      523.546      478.759        1.298        0.106      154.344       17.951        0.014      336.462        7.781      857.950
05/19/2014  04:14:00      -86.907      -53.078       -0.572       40.534       38.966       19.482     1642.995     1518.351      379.561        0.695        0.177      101.834       20.002        0.039      336.494        7.833      857.949
05/19/2014  04:15:00     -123.538      -60.107       -2.655       26.155       26.621       17.508      684.104      708.665      306.532        1.029        0.085      137.384       14.630        0.011      336.486        7.820      857.940
05/19/2014  04:16:00     -118.445      -43.269       -8.339       34.403       25.152       16.885     1183.560      632.623      285.108        0.904        0.105      126.101       10.068        0.006      336.539        7.910      857.943
05/19/2014  04:17:00      -80.686      -52.196       -4.092       42.828       28.764       17.975     1834.274      827.357      323.109        0.612        0.149       96.097        6.815        0.005      336.515        7.869      857.956
05/19/2014  04:18:00      -47.981      -32.685        2.983       49.257       28.995       19.926     2426.203      840.697      397.064        0.352        0.183       58.056       24.634        0.180      336.555        7.936      857.957
05/19/2014  04:19:00      -15.932      -23.201        3.317       36.390       33.488       18.866     1324.205     1121.473      355.925        0.180        0.140       28.145       23.024        0.669      336.596        8.006      857.956
05/19/2014  04:20:00      -53.327      -56.119        0.930       27.758       24.023       14.506      770.511      577.094      210.432        0.378        0.078       77.415       14.132        0.033      336.580        7.978      857.959
05/19/2014  04:21:00      -65.771      -33.939       -3.636       32.561       20.640       15.758     1060.242      426.011      248.304        0.361        0.087       74.012        6.601        0.008      336.575        7.969      857.948
05/19/2014  04:22:00      -70.971      -44.127       -2.306       32.858       15.706       13.732     1079.655      246.679      188.566        0.425        0.076       83.570       16.706        0.040      336.469        7.791      857.950
05/19/2014  04:23:00      -16.493      -23.406        9.386       33.515       21.355       14.105     1123.225      456.054      198.957        0.134        0.089       28.633       17.415        0.370      336.553        7.933      857.961
05/19/2014  04:24:00      -74.861      -18.978       -3.090       25.517       31.245       17.852      651.107      976.258      318.684        0.396        0.097       77.230       10.932        0.020      336.412        7.695      857.957
05/19/2014  04:25:00      -93.816      -38.901       -8.584       24.721       27.554       18.719      611.121      759.215      350.413        0.605        0.086      101.562       12.043        0.014      336.375        7.634      857.954
05/19/2014  04:26:00      -80.037      -65.449       -4.578       52.501       25.764       23.053     2756.370      663.808      531.421        0.733        0.198      103.390       25.515        0.061      336.482        7.815      857.952
05/19/2014  04:27:00      -72.103      -81.674       -5.562       35.169       27.028       21.980     1236.871      730.488      483.101        0.717        0.123      108.947       22.028        0.041      336.480        7.809      857.956
05/19/2014  04:28:00      -64.562      -66.657       -2.696       28.984       27.583       16.910      840.054      760.847      285.949        0.525        0.094       92.797       11.335        0.015      336.533        7.899      857.945
05/19/2014  04:29:00      -84.710      -53.548        0.562       36.214       26.515       16.742     1311.446      703.036      280.290        0.617        0.115      100.215       14.597        0.021      336.540        7.912      857.929
05/19/2014  04:30:00      -87.062      -39.318        6.835       41.421       28.446       20.185     1715.682      809.172      407.415        0.605        0.147       95.528       18.947        0.039      336.531        7.895      857.908
05/19/2014  04:31:00     -104.862      -69.615       -0.425       38.507       28.531       19.877     1482.825      814.005      395.113        0.927        0.135      125.866       21.300        0.029      336.535        7.902      857.903
05/19/2014  04:32:00     -139.002      -42.983       -5.798       32.761       30.036       22.034     1073.271      902.139      485.495        1.183        0.123      145.496       18.305        0.016      336.497        7.839      857.893
05/19/2014  04:33:00     -139.761      -53.444        7.532       35.007       33.819       22.833     1225.462     1143.740      521.345        1.267        0.145      149.631       19.604        0.017      336.510        7.861      857.886
05/19/2014  04:34:00     -153.743      -53.405        0.114       37.874       26.769       16.874     1434.472      716.563      284.732        1.446        0.122      162.754       17.822        0.012      336.533        7.899      857.879
05/19/2014  04:35:00     -160.193      -49.024       -2.560       38.291       34.329       22.754     1466.196     1178.495      517.764        1.562        0.158      167.527       21.180        0.016      336.590        7.995      857.879
05/19/2014  04:36:00     -134.957      -51.913       -8.968       39.081       27.680       20.392     1527.359      766.205      415.821        1.185        0.135      144.598       20.107        0.019      336.592        7.998      857.867
05/19/2014  04:37:00      -78.244      -20.739        1.228       61.956       32.019       18.056     3838.535     1025.192      326.028        0.587        0.259       80.946       24.932        0.095      336.568        7.959      857.868
05/19/2014  04:38:00     -130.502      -57.435        2.259       32.915       32.253       19.633     1083.390     1040.279      385.452        1.142        0.125      142.582       17.044        0.014      336.526        7.888      857.864
05/19/2014  04:39:00     -122.702      -55.792       -5.284       32.193       25.658       16.383     1036.415      658.335      268.387        1.008        0.098      134.791       13.257        0.010      336.562        7.948      857.879
05/19/2014  04:40:00      -34.007      -52.477       10.989       29.704       22.972       13.945      882.356      527.721      194.459        0.282        0.080       62.533       10.464        0.028      336.644        8.086      857.883
05/19/2014  04:41:00      -20.609      -50.951        5.367       31.784       34.085       18.643     1010.225     1161.758      347.558        0.278        0.126       54.961       15.377        0.078      336.694        8.169      857.874
05/19/2014  04:42:00      -29.227      -38.119        5.386       41.471       23.282       19.208     1719.863      542.046      368.946        0.248        0.132       48.034       10.602        0.049      336.725        8.221      857.868
05/19/2014  04:43:00     -114.594      -72.614       -0.794       51.810       39.639       31.319     2684.279     1571.242      980.869        1.182        0.262      135.664       35.072        0.067      336.614        8.036      857.873
05/19/2014  04:44:00     -113.331      -57.532      -10.023       26.935       20.784       16.420      725.514      431.966      269.627        0.884        0.071      127.098        9.260        0.005      336.654        8.103      857.864
05/19/2014  04:45:00      -86.788      -58.014       -0.319       38.401       39.129       21.744     1474.668     1531.090      472.789        0.719        0.174      104.392       23.195        0.049      336.636        8.072      857.861
05/19/2014  04:46:00      -92.573      -46.996      -10.015       21.997       34.405       17.821      483.878     1183.736      317.577        0.643        0.099      103.819       14.598        0.020      336.691        8.163      857.858
05/19/2014  04:47:00      -56.726      -10.173       -0.516       26.843       22.882       14.844      720.560      523.571      220.333        0.239        0.073       57.631       16.137        0.078      336.712        8.199      857.859
05/19/2014  04:48:00      -51.788      -11.453       -5.040       17.653       22.184       12.445      311.628      492.113      154.868        0.190        0.048       53.039       10.236        0.037      336.648        8.091      857.852
05/19/2014  04:49:00      -46.543        2.251       -1.899       15.642       14.591        9.684      244.660      212.909       93.776        0.136        0.028       46.597        5.924        0.016      336.617        8.041      857.850
05/19/2014  04:50:00      -26.048      -21.071       -1.751       14.636       15.194        9.065      214.199      230.871       82.180        0.083        0.026       33.504        8.343        0.062      336.691        8.164      857.837
05/19/2014  04:51:00      -19.576       -8.015       -1.615       14.099       13.520        5.667      198.789      182.787       32.112        0.043        0.021       21.153        1.816        0.007      336.711        8.199      857.839
05/19/2014  04:52:00       -8.991        2.739        1.111        4.167        6.284        4.255       17.366       39.492       18.105        0.008        0.004        9.399        3.420        0.132      336.756        8.275      857.848
05/19/2014  04:53:00       -9.962       31.228        1.820        8.577       16.246        6.792       73.564      263.939       46.128        0.073        0.019       32.778        1.229        0.001      336.683        8.151      857.848
05/19/2014  04:54:00        1.006       40.116       -4.385        7.137        6.890        6.420       50.931       47.466       41.216        0.088        0.007       40.128        3.455        0.007      336.545        7.919      857.849
05/19/2014  04:55:00       -4.541       44.614       -5.904        5.888        8.962        4.353       34.667       80.313       18.951        0.109        0.007       44.845        4.515        0.010      336.581        7.983      857.843
05/19/2014  04:56:00      -50.124       18.590       -1.298       18.125       14.642       10.631      328.533      214.378      113.023        0.176        0.033       53.460        6.374        0.014      336.559        7.943      857.845
05/19/2014  04:57:00      -56.992      -11.829       -3.647       13.859       14.624       10.788      192.066      213.870      116.377        0.196        0.026       58.207        6.499        0.012      336.571        7.964      857.844
05/19/2014  04:58:00      -70.595      -28.803      -10.141       19.282       13.654        9.306      371.790      186.425       86.611        0.328        0.032       76.245        9.678        0.016      336.482        7.814      857.840
05/19/2014  04:59:00      -69.117      -39.827       -8.964       23.275       12.457       11.696      541.732      155.183      136.797        0.364        0.042       79.770        8.665        0.012      336.483        7.815      857.831
05/19/2014  05:00:00      -12.011      -34.252        5.000       20.210       14.041       11.054      408.448      197.151      122.193        0.103        0.036       36.297        5.648        0.024      336.576        7.971      857.823
05/19/2014  05:01:00      -37.929      -40.004       -1.792       18.568       11.628        8.197      344.760      135.206       67.189        0.179        0.027       55.126        5.890        0.011      336.636        8.073      857.818
05/19/2014  05:02:00      -49.725      -14.469       -4.003       11.707        9.358        7.679      137.053       87.564       58.970        0.149        0.014       51.787        3.845        0.006      336.650        8.095      857.811
05/19/2014  05:03:00      -49.448      -26.863       -7.046       11.124       15.135       10.437      123.733      229.067      108.924        0.184        0.023       56.274        4.726        0.007      336.701        8.181      857.799
05/19/2014  05:04:00      -23.992      -26.221        1.490       19.945       14.927       12.042      397.792      222.803      144.999        0.102        0.038       35.541        9.056        0.065      336.756        8.273      857.784
05/19/2014  05:05:00        4.927      -10.472        9.969       10.862       14.416       12.117      117.991      207.814      146.823        0.035        0.024       11.573       10.221        0.780      336.796        8.338      857.771
05/19/2014  05:06:00      -32.003        0.560        3.242       18.584        9.328        6.918      345.350       87.004       47.857        0.076        0.024       32.008        6.669        0.043      336.703        8.184      857.766
05/19/2014  05:07:00      -27.717      -11.008        0.017       13.473       14.197        8.607      181.522      201.551       74.078        0.067        0.023       29.822       10.255        0.118      336.721        8.214      857.770
05/19/2014  05:08:00      -57.505      -27.702       -2.400       15.936       12.665        9.453      253.961      160.392       89.365        0.229        0.025       63.829        2.617        0.002      336.774        8.301      857.770
05/19/2014  05:09:00      -14.328      -27.593        5.906       25.769       14.929       17.589      664.041      222.883      309.378        0.110        0.060       31.091       12.988        0.175      336.830        8.398      857.770
05/19/2014  05:10:00      -36.964      -45.306        6.609       37.709       31.088       20.358     1421.947      966.457      414.444        0.313        0.140       58.471       19.014        0.106      336.777        8.307      857.770
05/19/2014  05:11:00      -60.356      -57.086        3.778       45.396       37.770       28.295     2060.766     1426.579      800.602        0.560        0.214       83.076       26.301        0.100      336.711        8.195      857.778
05/19/2014  05:12:00     -109.369      -83.436       -7.631       32.966       29.273       22.853     1086.777      856.919      522.246        1.072        0.123      137.561       11.982        0.008      336.580        7.978      857.782
05/19/2014  05:13:00      -99.982      -46.661        2.857       39.702       35.486       19.301     1576.247     1259.276      372.545        0.769        0.160      110.334       17.097        0.024      336.587        7.990      857.782
05/19/2014  05:14:00     -121.316      -67.677       -3.648       36.777       47.528       22.768     1352.581     2258.877      518.376        1.172        0.206      138.916       20.774        0.022      336.551        7.930      857.778
05/19/2014  05:15:00     -106.844      -39.414       -9.273       36.523       37.553       21.636     1333.924     1410.196      468.116        0.813        0.161      113.882       16.448        0.021      336.561        7.946      857.771
05/19/2014  05:16:00      -85.472      -54.766       -3.503       36.540       22.981       19.583     1335.173      528.145      383.494        0.628        0.112      101.512       19.264        0.036      336.566        7.954      857.774
05/19/2014  05:17:00     -103.008      -41.143       -2.734       42.908       27.262       22.468     1841.124      743.200      504.808        0.770        0.154      110.921       19.116        0.030      336.554        7.934      857.768
05/19/2014  05:18:00     -104.613      -52.610      -17.555       30.420       33.745       18.525      925.357     1138.738      343.183        0.821        0.120      117.097       15.597        0.018      336.422        7.714      857.770
05/19/2014  05:19:00     -118.137        4.228       -4.495       22.512       31.182       15.034      506.787      972.290      226.008        0.785        0.085      118.213       11.164        0.009      336.378        7.639      857.762
05/19/2014  05:20:00      -78.716       -1.956       -0.389       37.749       24.630       18.567     1424.956      606.641      344.742        0.429        0.119       78.741       18.885        0.058      336.376        7.636      857.763
05/19/2014  05:21:00      -83.348      -11.454       -2.302       41.197       23.094       18.770     1697.169      533.334      352.313        0.483        0.129       84.131       17.204        0.042      336.321        7.545      857.762
05/19/2014  05:22:00      -92.227      -33.280        0.917       34.464       24.480       15.305     1187.795      599.289      234.247        0.582        0.101       98.047       13.294        0.018      336.256        7.434      857.758
05/19/2014  05:23:00      -75.762      -31.907       -0.761       39.605       33.916       17.334     1568.570     1150.293      300.472        0.489        0.151       82.207       17.319        0.044      336.392        7.662      857.751
05/19/2014  05:24:00     -131.681      -51.383       -9.455       27.708       26.901       14.488      767.759      723.642      209.913        1.089        0.085      141.351        6.606        0.002      336.378        7.638      857.739
05/19/2014  05:25:00     -144.382      -43.039       -7.541       26.296       18.593       19.488      691.481      345.700      379.776        1.209        0.071      150.660       14.886        0.010      336.317        7.538      857.733
05/19/2014  05:26:00     -120.715      -52.658      -11.100       30.409       20.829       11.317      924.677      433.831      128.067        0.948        0.074      131.700        9.421        0.005      336.324        7.550      857.729
05/19/2014  05:27:00      -65.783       -7.274        1.994       36.121       23.352       20.061     1304.735      545.309      402.454        0.332        0.113       66.183       21.150        0.102      336.383        7.649      857.723
05/19/2014  05:28:00      -66.567      -22.185      -14.079       21.112       17.971       14.161      445.734      322.952      200.547        0.305        0.048       70.166        6.737        0.009      336.423        7.714      857.721
05/19/2014  05:29:00        2.145       -8.246        2.309       16.940       15.903       12.749      286.952      252.916      162.528        0.039        0.035        8.521       10.660        1.565      336.466        7.788      857.722
05/19/2014  05:30:00       -7.402      -34.938        2.329       17.425       24.565       13.357      303.636      603.462      178.411        0.118        0.054       35.713        8.120        0.052      336.354        7.598      857.727
05/19/2014  05:31:00      -29.250      -21.156        5.698       19.144       16.903        9.085      366.502      285.715       82.533        0.104        0.037       36.099        6.465        0.032      336.377        7.637      857.748
05/19/2014  05:32:00      -15.596      -24.473        6.177       34.110       20.758       16.630     1163.468      430.902      276.567        0.138        0.094       29.020       12.666        0.191      336.473        7.797      857.755
05/19/2014  05:33:00      -61.961      -57.252        3.760       43.028       25.906       21.090     1851.416      671.137      444.774        0.505        0.148       84.362       24.096        0.082      336.368        7.624      857.770
05/19/2014  05:34:00      -77.307      -63.088       -3.459       29.770       22.013       20.654      886.254      484.590      426.593        0.588        0.090       99.782       19.344        0.038      336.342        7.579      857.774
05/19/2014  05:35:00      -67.826      -67.333       -2.282       35.750       23.271       17.695     1278.035      541.546      313.121        0.564        0.107       95.573       17.072        0.032      336.238        7.405      857.784
05/19/2014  05:36:00      -72.593      -82.187       -7.144       26.515       29.515       17.121      703.035      871.156      293.128        0.697        0.093      109.656       14.104        0.017      336.208        7.357      857.788
05/19/2014  05:37:00      -51.067      -51.623       -2.314       30.753       22.359       14.360      945.727      499.929      206.201        0.346        0.083       72.614        9.314        0.016      336.279        7.476      857.797
05/19/2014  05:38:00      -47.572      -37.676       -1.640       32.852       22.125       22.745     1079.225      489.537      517.329        0.289        0.104       60.684       22.265        0.135      336.274        7.465      857.805
05/19/2014  05:39:00      -55.290      -62.597        7.773       39.233       29.617       21.518     1539.257      877.152      463.035        0.496        0.144       83.518       21.730        0.068      336.338        7.572      857.814
05/19/2014  05:40:00      -95.937     -101.397       -4.635       50.770       30.926       30.224     2577.602      956.404      913.477        1.198        0.222      139.590       25.962        0.035      336.261        7.444      857.821
05/19/2014  05:41:00     -115.908     -112.992      -15.288       17.806       26.620       15.139      317.071      708.650      229.183        1.384        0.063      161.870        8.088        0.002      336.244        7.416      857.829
05/19/2014  05:42:00      -85.285      -68.588        5.078       41.671       39.497       24.917     1736.444     1560.011      620.873        0.796        0.196      109.443       21.224        0.038      336.269        7.457      857.831
05/19/2014  05:43:00     -108.551     -124.098      -16.501       34.696       42.146       22.089     1203.829     1776.306      487.945        1.546        0.173      164.875       15.383        0.009      336.248        7.421      857.835
05/19/2014  05:44:00     -111.724      -82.828        1.596       43.059       39.150       25.272     1854.093     1532.749      638.680        1.168        0.201      139.078       22.663        0.027      336.308        7.522      857.830
05/19/2014  05:45:00     -100.759      -78.722       -3.882       41.060       43.242       22.685     1685.910     1869.836      514.616        1.022        0.204      127.865       24.124        0.036      336.319        7.541      857.821
05/19/2014  05:46:00      -74.384      -46.288        3.328       47.725       35.816       17.883     2277.716     1282.783      319.790        0.578        0.194       87.610       17.921        0.042      336.359        7.608      857.810
05/19/2014  05:47:00      -88.960      -52.108       -2.087       37.267       24.243       17.506     1388.836      587.731      306.446        0.646        0.114      103.098       14.888        0.021      336.319        7.541      857.797
05/19/2014  05:48:00      -78.010      -75.249        6.452       52.980       25.080       20.615     2806.859      629.000      424.981        0.782        0.193      108.389       22.260        0.042      336.365        7.619      857.789
05/19/2014  05:49:00      -59.711      -42.861        3.738       38.304       17.160       14.991     1467.206      294.482      224.738        0.370        0.099       73.501       13.479        0.034      336.357        7.602      857.789
05/19/2014  05:50:00      -39.606      -38.585        2.032       21.742       29.572       15.501      472.711      874.474      240.275        0.232        0.079       55.294       16.007        0.084      336.357        7.604      857.798
05/19/2014  05:51:00      -20.876      -28.932        7.303       28.040       20.589       15.758      786.233      423.914      248.326        0.139        0.073       35.677        8.573        0.058      336.489        7.826      857.807
05/19/2014  05:52:00      -23.795      -47.216        6.473       23.480       17.960       19.180      551.297      322.555      367.880        0.204        0.062       52.872        8.573        0.026      336.462        7.780      857.810
05/19/2014  05:53:00      -25.000      -33.109        3.513       27.044       29.291       17.840      731.367      857.971      318.275        0.182        0.095       41.488       14.111        0.116      336.438        7.739      857.810
05/19/2014  05:54:00      -21.661      -17.568        8.538       23.401       19.052       18.210      547.604      362.985      331.615        0.105        0.062       27.889       16.128        0.334      336.369        7.626      857.806
05/19/2014  05:55:00      -34.718       -9.573        1.305       19.754       19.592       19.830      390.223      383.846      393.209        0.123        0.058       36.014       15.504        0.185      336.355        7.600      857.793
05/19/2014  05:56:00      -43.897      -24.167       10.563       39.511       26.895       16.903     1561.150      723.360      285.718        0.260        0.129       50.110       20.511        0.168      336.381        7.645      857.785
05/19/2014  05:57:00      -61.447      -23.832        3.892       60.053       30.982       15.045     3606.319      959.869      226.338        0.457        0.240       65.906       18.323        0.077      336.357        7.603      857.777
05/19/2014  05:58:00      -40.945      -25.403        8.173       41.781       27.744       21.689     1745.677      769.743      470.428        0.269        0.149       48.185       18.792        0.152      336.335        7.568      857.760
05/19/2014  05:59:00      -65.199      -35.890        0.853       24.571       21.261       12.205      603.725      452.013      148.961        0.337        0.060       74.425       10.171        0.019      336.370        7.625      857.752
05/19/2014  06:00:00      -34.254      -16.134        1.497       30.336       16.649       15.632      920.287      277.173      244.369        0.144        0.072       37.864       11.708        0.096      336.426        7.721      857.749
05/19/2014  06:01:00      -60.326       -7.779       -6.010       12.416       12.310        8.781      154.159      151.542       77.110        0.206        0.019       60.825        5.255        0.007      336.370        7.627      857.749
05/19/2014  06:02:00      -50.545       -2.928       -0.091       11.377       11.363        8.866      129.440      129.121       78.614        0.145        0.017       50.630        5.176        0.010      336.428        7.722      857.754
05/19/2014  06:03:00      -44.311       -6.790       -3.976       14.470       14.609        7.606      209.395      213.431       57.846        0.125        0.024       44.828        5.452        0.015      336.459        7.776      857.756
05/19/2014  06:04:00      -65.636        7.073       -4.286       13.375       12.402        9.755      178.885      153.800       95.152        0.240        0.021       66.016        6.878        0.011      336.470        7.793      857.765
05/19/2014  06:05:00      -69.881       -8.868       -9.209       13.184       11.954        7.510      173.806      142.905       56.405        0.271        0.019       70.441        3.205        0.002      336.450        7.760      857.765
05/19/2014  06:06:00      -63.359       -2.386       -2.350       19.475       15.604       12.506      379.277      243.480      156.407        0.240        0.039       63.404       11.623        0.034      336.446        7.754      857.770
05/19/2014  06:07:00      -69.071       -7.376       -0.975       23.321       20.242       15.663      543.865      409.734      245.321        0.301        0.060       69.464       12.332        0.032      336.392        7.663      857.778
05/19/2014  06:08:00      -59.175       -8.698       -6.016       14.326       12.128        8.952      205.237      147.099       80.133        0.202        0.022       59.811        6.708        0.013      336.443        7.749      857.786
05/19/2014  06:09:00      -45.793       -0.591       -4.392       27.330       14.679       10.634      746.930      215.475      113.086        0.160        0.054       45.797       13.912        0.092      336.426        7.720      857.789
05/19/2014  06:10:00      -58.175        5.607       -3.575       13.799       15.238       14.559      190.411      232.202      211.976        0.203        0.032       58.445        9.477        0.026      336.385        7.650      857.782
05/19/2014  06:11:00      -73.119       18.286       -8.720       14.857       13.521       10.220      220.738      182.804      104.456        0.313        0.025       75.371        2.356        0.001      336.344        7.582      857.788
05/19/2014  06:12:00      -59.572       -0.052       -9.639       13.068       15.641        9.432      170.777      244.644       88.970        0.207        0.025       59.572        5.577        0.009      336.427        7.721      857.786
05/19/2014  06:13:00      -51.634        2.558       -6.121       14.619       16.186        9.625      213.723      261.985       92.647        0.164        0.028       51.697        5.289        0.010      336.403        7.681      857.791
05/19/2014  06:14:00      -68.382        8.466       -6.370       20.282       20.631       15.067      411.349      425.630      227.025        0.293        0.053       68.904       10.458        0.023      336.337        7.572      857.794
05/19/2014  06:15:00      -64.759      -15.706       -9.692       16.394       22.491       10.294      268.776      505.837      105.964        0.271        0.044       66.637        8.854        0.018      336.278        7.473      857.797
05/19/2014  06:16:00      -64.782       -8.624       -5.267       26.409       21.227       11.460      697.452      450.566      131.335        0.279        0.064       65.353        6.227        0.009      336.323        7.548      857.808
05/19/2014  06:17:00      -68.349      -14.924       -2.102       30.445       13.977       15.694      926.915      195.370      246.301        0.313        0.068       69.960       17.521        0.063      336.301        7.511      857.816
05/19/2014  06:18:00      -72.041      -21.303        1.135       21.007       23.763       13.269      441.273      564.659      176.066        0.341        0.059       75.125       11.180        0.022      336.363        7.613      857.820
05/19/2014  06:19:00     -106.354      -58.886       -5.221       23.996       21.464       14.869      575.812      460.698      221.096        0.803        0.063      121.567       10.282        0.007      336.462        7.781      857.831
05/19/2014  06:20:00      -77.884      -34.604        2.268       21.650       35.164       17.163      468.711     1236.528      294.564        0.463        0.100       85.225        9.370        0.012      336.488        7.823      857.841
05/19/2014  06:21:00      -34.944      -38.420        7.174       30.355       19.033       18.628      921.450      362.274      346.998        0.219        0.082       51.934       17.580        0.115      336.506        7.854      857.841
05/19/2014  06:22:00      -41.444      -42.262        6.327       23.623       21.659       14.597      558.038      469.108      213.076        0.239        0.062       59.192       13.510        0.052      336.519        7.876      857.837
05/19/2014  06:23:00      -54.708      -46.815       -5.045       12.761       14.450       11.324      162.837      208.803      128.235        0.285        0.025       72.004        4.880        0.005      336.460        7.775      857.828
05/19/2014  06:24:00      -37.824       -9.088       -3.205       14.186       19.477       15.643      201.252      379.353      244.688        0.117        0.041       38.901       10.290        0.070      336.541        7.914      857.815
05/19/2014  06:25:00      -38.707      -24.336       -2.070       32.926       21.146       14.392     1084.123      447.153      207.118        0.192        0.087       45.722       13.674        0.089      336.510        7.860      857.804
05/19/2014  06:26:00      -74.023      -12.171       -3.971       43.399       26.736       14.141     1883.435      714.820      199.973        0.422        0.140       75.017       17.191        0.053      336.435        7.735      857.794
05/19/2014  06:27:00      -30.651      -58.014        4.003       30.083       30.047       19.075      904.985      902.811      363.842        0.325        0.109       65.613       17.943        0.075      336.484        7.816      857.794
05/19/2014  06:28:00      -34.912      -80.622        0.599       40.828       30.131       29.076     1666.949      907.903      845.389        0.557        0.171       87.857       30.651        0.122      336.449        7.758      857.796
05/19/2014  06:29:00      -59.037      -46.863        5.591       51.598       27.972       18.655     2662.379      782.408      347.999        0.475        0.190       75.375       20.913        0.077      336.408        7.689      857.801
05/19/2014  06:30:00      -67.145      -60.760        4.766       48.354       34.572       26.779     2338.089     1195.251      717.104        0.624        0.213       90.555       30.043        0.110      336.448        7.757      857.810
05/19/2014  06:31:00      -89.841      -86.553        3.025       49.406       37.191       23.538     2440.970     1383.163      554.044        0.997        0.219      124.751       27.826        0.050      336.438        7.739      857.819
05/19/2014  06:32:00      -97.902      -62.141       -2.718       34.517       28.920       19.692     1191.430      836.384      387.791        0.793        0.121      115.958       18.563        0.026      336.514        7.866      857.834
05/19/2014  06:33:00     -100.210      -55.662        7.127       56.845       40.629       23.791     3231.370     1650.720      566.006        0.932        0.272      114.631       23.423        0.042      336.489        7.826      857.843
05/19/2014  06:34:00     -105.033      -63.389        4.063       36.679       31.166       22.020     1345.369      971.307      484.897        0.893        0.140      122.679       19.072        0.024      336.492        7.830      857.860
05/19/2014  06:35:00     -116.984      -54.767        4.412       54.649       42.441       24.202     2986.531     1801.275      585.758        1.104        0.269      129.169       23.073        0.032      336.446        7.753      857.871
05/19/2014  06:36:00     -150.772      -72.419       -7.179       56.428       36.127       25.424     3184.154     1305.190      646.379        1.658        0.257      167.262       27.060        0.026      336.420        7.708      857.879
05/19/2014  06:37:00     -132.522      -67.738        3.485       51.898       28.875       26.882     2693.366      833.763      722.647        1.321        0.212      148.830       27.317        0.034      336.400        7.675      857.885
05/19/2014  06:38:00     -103.673      -84.249        6.403       60.376       45.690       29.637     3645.202     2087.572      878.364        1.225        0.331      133.589       34.771        0.068      336.428        7.723      857.890
05/19/2014  06:39:00     -119.208      -93.117        2.149       51.737       42.816       25.552     2676.747     1833.211      652.892        1.402        0.258      151.265       23.472        0.024      336.423        7.714      857.894
05/19/2014  06:40:00     -104.094     -103.192        4.625       63.045       50.063       33.807     3974.670     2506.279     1142.902        1.456        0.381      146.575       32.896        0.050      336.371        7.628      857.896
05/19/2014  06:41:00     -116.899      -97.584      -10.915       60.757       36.414       27.722     3691.370     1325.967      768.495        1.455        0.289      152.276       22.364        0.022      336.436        7.735      857.905
05/19/2014  06:42:00     -113.817     -105.118       -5.207       46.320       37.147       34.471     2145.586     1379.871     1188.264        1.437        0.236      154.932       34.459        0.049      336.417        7.704      857.911
05/19/2014  06:43:00     -125.680      -91.235       -3.737       38.737       48.623       24.349     1500.544     2364.159      592.868        1.429        0.223      155.304       22.875        0.022      336.411        7.693      857.911
05/19/2014  06:44:00     -118.891     -105.177       -3.125       57.488       42.513       34.861     3304.840     1807.373     1215.318        1.577        0.316      158.736       32.164        0.041      336.451        7.762      857.924
05/19/2014  06:45:00      -62.731      -75.326        2.281       53.221       34.975       26.991     2832.506     1223.242      728.509        0.720        0.239       98.027       26.713        0.074      336.496        7.837      857.933
05/19/2014  06:46:00      -43.632      -79.539        4.647       39.187       35.805       24.258     1535.647     1282.016      588.432        0.583        0.170       90.720       20.663        0.052      336.471        7.795      857.942
05/19/2014  06:47:00      -55.346      -82.124       -3.892       29.152       36.262       19.377      849.851     1314.963      375.450        0.618        0.127       99.032       12.614        0.016      336.459        7.774      857.943
05/19/2014  06:48:00     -106.050      -34.596       -3.447       30.386       27.159       20.176      923.338      737.631      407.087        0.726        0.103      111.550       13.517        0.015      336.452        7.763      857.940
05/19/2014  06:49:00      -68.814      -29.566       -7.444       25.850       23.615       12.798      668.216      557.690      163.792        0.353        0.069       74.896       10.123        0.018      336.498        7.840      857.937
05/19/2014  06:50:00      -51.877      -27.680        0.368       28.032       19.528       13.715      785.781      381.329      188.098        0.241        0.068       58.800       12.909        0.048      336.589        7.993      857.935
05/19/2014  06:51:00      -63.076      -48.519       -3.388       24.793       36.136       19.544      614.700     1305.822      381.962        0.432        0.115       79.578       12.114        0.023      336.555        7.936      857.927
05/19/2014  06:52:00      -62.747      -70.370       -3.943       29.207       28.317       14.902      853.036      801.857      222.056        0.539        0.094       94.282       16.920        0.032      336.572        7.965      857.932
05/19/2014  06:53:00      -56.277      -52.273       -2.313       30.442       28.140       17.723      926.704      791.885      314.122        0.397        0.102       76.809       15.806        0.042      336.642        8.082      857.935
05/19/2014  06:54:00      -44.844      -44.013       -1.339       23.203       18.262       11.726      538.397      333.495      137.490        0.248        0.050       62.834        8.229        0.017      336.704        8.185      857.934
05/19/2014  06:55:00      -23.931      -42.691        0.989       20.580       16.962       12.551      423.545      287.721      157.517        0.163        0.043       48.941        7.523        0.024      336.706        8.188      857.929
05/19/2014  06:56:00      -12.807      -29.098        4.378       11.662       31.763       15.171      136.001     1008.887      230.153        0.120        0.069       31.792       14.556        0.210      336.784        8.318      857.933
05/19/2014  06:57:00      -31.287      -52.551       -2.316       25.796       26.337        9.594      665.412      693.655       92.051        0.260        0.073       61.160        4.891        0.006      336.701        8.180      857.938
05/19/2014  06:58:00      -73.272      -26.581       -5.679       24.586       30.190       14.534      604.486      911.454      211.237        0.392        0.086       77.945       12.057        0.024      336.722        8.216      857.925
05/19/2014  06:59:00      -65.167      -25.688        5.000       34.709       20.264       17.109     1204.728      410.641      292.718        0.342        0.095       70.047        9.986        0.020      336.769        8.293      857.925
05/19/2014  07:00:00      -61.199      -26.749       -1.078       25.422       21.056       15.168      646.264      443.372      230.061        0.289        0.066       66.789       11.370        0.029      336.842        8.416      857.927
05/19/2014  07:01:00      -56.466      -27.824       -3.596       22.269       20.029       12.522      495.900      401.147      156.789        0.251        0.053       62.950       11.771        0.035      336.814        8.367      857.920
05/19/2014  07:02:00      -84.679      -54.885       -3.830       25.221       12.721       11.613      636.109      161.828      134.853        0.557        0.047      100.911       10.596        0.011      336.800        8.343      857.918
05/19/2014  07:03:00      -48.779      -50.766      -11.286       17.636       13.096       13.949      311.040      171.510      194.585        0.288        0.034       70.403        6.895        0.010      336.837        8.405      857.926
05/19/2014  07:04:00      -42.700      -46.772       -8.432       18.190       29.935       12.404      330.883      896.077      153.856        0.273        0.069       63.331        9.433        0.022      336.900        8.510      857.927
05/19/2014  07:05:00       -2.045       -9.402        2.361        9.314       10.695        9.964       86.759      114.389       99.286        0.020        0.015        9.622        4.568        0.225      337.129        8.893      857.939
05/19/2014  07:06:00        0.485        6.905       12.710        7.596       13.765       12.358       57.693      189.473      152.711        0.030        0.020        6.922       11.708        2.861      337.362        9.284      857.939
05/19/2014  07:07:00        6.199       56.727       -5.145       19.275       20.361       15.040      371.520      414.582      226.210        0.215        0.051       57.064       13.285        0.054      337.030        8.727      857.949
05/19/2014  07:08:00        9.107       61.549       -5.372       12.086       19.017        9.283      146.076      361.641       86.170        0.225        0.030       62.220        7.962        0.016      336.932        8.565      857.938
05/19/2014  07:09:00        3.020       54.255       -0.673       13.813       15.946       13.297      190.793      254.288      176.798        0.179        0.031       54.339        7.878        0.021      337.022        8.716      857.933
05/19/2014  07:10:00        4.489       40.373       -3.520        8.528       15.276       15.896       72.733      233.352      252.679        0.111        0.028       40.622       10.842        0.071      337.104        8.853      857.921
05/19/2014  07:11:00       20.460       36.287       -5.892       11.108       11.466       10.530      123.392      131.474      110.889        0.107        0.018       41.658        7.647        0.034      336.968        8.624      857.923
05/19/2014  07:12:00       -2.214       48.624       -5.186       11.428       13.710       10.573      130.607      187.961      111.788        0.141        0.022       48.675        2.460        0.003      336.983        8.649      857.920
05/19/2014  07:13:00        6.414       27.667       -1.065       11.488       21.388       11.869      131.964      457.432      140.883        0.077        0.037       28.401       10.737        0.143      337.120        8.880      857.921
05/19/2014  07:14:00       -1.231        0.612       14.665        6.671        4.392        5.608       44.504       19.289       31.449        0.016        0.005        1.375        3.260        5.620      337.414        9.372      857.922
05/19/2014  07:15:00        7.556        8.324        3.029        8.265        9.937       11.565       68.309       98.752      133.748        0.022        0.015       11.241        8.525        0.575      337.196        9.007      857.925
05/19/2014  07:16:00        0.644        3.308       16.594        7.699        5.947        7.767       59.273       35.361       60.322        0.022        0.008        3.370        4.541        1.816      337.462        9.451      857.932
05/19/2014  07:17:00      -10.346       16.624        3.455       11.952       19.378       11.481      142.853      375.496      131.817        0.052        0.033       19.581        5.449        0.077      337.244        9.088      857.924
05/19/2014  07:18:00        1.649       35.170        8.566       15.169       34.938       20.604      230.108     1220.668      424.510        0.159        0.094       35.208       23.787        0.456      337.320        9.215      857.930
05/19/2014  07:19:00       21.569       17.973       18.740       17.436       19.525       16.422      304.029      381.242      269.666        0.105        0.048       28.075       15.594        0.308      337.368        9.295      857.939
05/19/2014  07:20:00       35.742       53.995       -3.720       16.462       16.921       14.690      271.013      286.332      215.802        0.249        0.039       64.753       13.294        0.042      337.141        8.916      857.929
05/19/2014  07:21:00       37.506       35.012       -1.233       17.396       24.430       13.056      302.616      596.823      170.457        0.185        0.053       51.308       12.502        0.059      337.184        8.986      857.931
05/19/2014  07:22:00       44.741       37.741        3.531       19.841       15.044       14.342      393.670      226.330      205.705        0.213        0.041       58.534       11.240        0.037      337.201        9.017      857.922
05/19/2014  07:23:00       72.633       32.362        7.937       33.873       24.683       18.082     1147.382      609.235      326.974        0.423        0.104       79.516       13.948        0.031      337.258        9.111      857.915
05/19/2014  07:24:00      105.331       48.138        5.591       21.125       20.345       20.652      446.254      413.900      426.525        0.736        0.064      115.810       11.517        0.010      337.193        9.003      857.911
05/19/2014  07:25:00       58.461       21.998        7.582       50.380       34.083       26.872     2538.141     1161.618      722.105        0.419        0.221       62.463       14.882        0.057      337.282        9.150      857.901
05/19/2014  07:26:00       45.879       40.426       -2.199       28.214       23.153       17.856      796.015      536.069      318.821        0.270        0.083       61.148       11.449        0.035      337.211        9.032      857.909
05/19/2014  07:27:00       70.230       45.560        1.926       32.646       29.187       24.211     1065.786      851.881      586.154        0.476        0.125       83.714       17.388        0.043      337.196        9.007      857.919
05/19/2014  07:28:00       76.410       39.882       -3.967       24.921       26.397       19.366      621.080      696.798      375.055        0.457        0.085       86.192        4.993        0.003      337.193        9.002      857.933
05/19/2014  07:29:00       82.959       54.227       19.585       21.353       15.446       21.881      455.964      238.593      478.760        0.569        0.059       99.110       11.639        0.014      337.197        9.008      857.954
05/19/2014  07:30:00       70.057       42.214        7.665       22.987       22.633       19.257      528.397      512.247      370.824        0.408        0.071       81.793        9.435        0.013      337.146        8.922      857.948
05/19/2014  07:31:00       41.921       53.109        7.029       16.410       18.695       20.431      269.275      349.517      417.425        0.283        0.052       67.660       14.657        0.047      337.195        9.004      857.935
05/19/2014  07:32:00       34.977       62.172       -2.236       21.815       26.058       14.984      475.875      679.009      224.535        0.324        0.069       71.335       13.134        0.034      337.247        9.094      857.924
05/19/2014  07:33:00       67.859       35.751        6.649       31.070       19.558       17.024      965.364      382.519      289.812        0.378        0.082       76.701       12.718        0.027      337.308        9.195      857.908
05/19/2014  07:34:00       25.142       20.567       11.710       22.350       13.981       18.854      499.505      195.474      355.479        0.112        0.053       32.483       13.485        0.172      337.527        9.561      857.886
05/19/2014  07:35:00       28.257       31.745       -0.596       11.989       11.970       16.815      143.732      143.289      282.761        0.119        0.028       42.499        9.451        0.049      337.288        9.163      857.870
05/19/2014  07:36:00       40.483       41.103        0.874       12.391       10.124       15.353      153.532      102.492      235.718        0.191        0.025       57.692        4.033        0.005      337.252        9.102      857.850
05/19/2014  07:37:00       48.469       59.638        0.654       27.267       15.143       19.269      743.471      229.304      371.289        0.362        0.067       76.850       11.883        0.024      337.362        9.285      857.839
05/19/2014  07:38:00       47.592       41.817       20.867       28.533       22.992       23.727      814.135      528.622      562.980        0.318        0.095       63.354       21.060        0.111      337.530        9.565      857.825
05/19/2014  07:39:00       11.040       16.324       54.066       22.051       40.619       27.394      486.265     1649.874      750.458        0.310        0.144       19.707       29.542        2.247      337.650        9.767      857.811
05/19/2014  07:40:00       90.521       37.587       14.334       26.768       25.576       30.966      716.525      654.128      958.914        0.607        0.116       98.014       17.425        0.032      337.251        9.098      857.809
05/19/2014  07:41:00       35.438       24.230       32.790       24.733       28.443       23.250      611.701      808.981      540.548        0.244        0.098       42.930       17.984        0.175      337.435        9.407      857.792
05/19/2014  07:42:00       30.962       68.207       50.299       25.365       24.211       21.120      643.407      586.169      446.068        0.491        0.084       74.905       15.865        0.045      337.410        9.365      857.783
05/19/2014  07:43:00       21.763       15.287       31.729       18.191       27.876       21.890      330.925      777.056      479.190        0.165        0.079       26.595       16.596        0.389      337.493        9.505      857.773
05/19/2014  07:44:00       16.588        6.120       34.358       19.950       43.106       17.853      398.017     1858.124      318.713        0.203        0.129       17.681       18.366        1.079      337.839       10.086      857.783
05/19/2014  07:45:00       58.432       49.496       38.080       36.451       24.943       29.572     1328.699      622.148      874.494        0.507        0.141       76.577       17.195        0.050      337.663        9.789      857.800
05/19/2014  07:46:00       43.645       67.743       61.292       35.984       40.383       23.686     1294.814     1630.778      561.043        0.687        0.174       80.585       15.898        0.039      337.679        9.818      857.812
05/19/2014  07:47:00       36.378       51.456       55.307       41.169       36.391       27.070     1694.861     1324.293      732.792        0.539        0.188       63.017       24.568        0.152      337.703        9.855      857.816
05/19/2014  07:48:00       59.541       72.496       57.686       55.622       26.919       34.991     3093.775      724.637     1224.346        0.858        0.252       93.812       33.572        0.128      337.593        9.671      857.812
05/19/2014  07:49:00       97.539       41.992       20.535       51.401       35.150       41.249     2642.110     1235.521     1701.486        0.864        0.279      106.194       28.369        0.071      337.648        9.765      857.799
05/19/2014  07:50:00       99.508       60.884       22.186       42.640       23.523       26.144     1818.188      553.327      683.521        0.858        0.153      116.657       21.043        0.033      337.667        9.797      857.791
05/19/2014  07:51:00       99.649       71.883        6.242       38.731       28.335       31.534     1500.068      802.876      994.376        0.922        0.165      122.871       17.300        0.020      337.552        9.602      857.793
05/19/2014  07:52:00       95.686       72.687        1.180       27.483       38.498       30.896      755.328     1482.098      954.590        0.882        0.160      120.163       17.409        0.021      337.529        9.564      857.794
05/19/2014  07:53:00       85.046       61.179        8.673       48.190       34.582       31.572     2322.230     1195.928      996.809        0.778        0.226      104.765       21.611        0.043      337.674        9.807      857.795
05/19/2014  07:54:00       73.354       61.299       -1.958       40.807       32.388       26.984     1665.200     1048.985      728.162        0.629        0.172       95.595       14.123        0.022      337.692        9.837      857.777
05/19/2014  07:55:00      102.395       44.495        7.381       35.789       30.798       25.721     1280.835      948.533      661.582        0.770        0.145      111.645       14.014        0.016      337.646        9.760      857.763
05/19/2014  07:56:00       79.777       47.179        0.611       30.447       21.773       18.664      927.044      474.068      348.358        0.517        0.087       92.683       15.797        0.029      337.613        9.705      857.738
05/19/2014  07:57:00       69.072       30.073       13.318       26.851       26.219       27.608      720.972      687.422      762.184        0.401        0.109       75.335       15.099        0.040      337.653        9.772      857.724
05/19/2014  07:58:00       72.550       43.375       22.302       19.582       14.709       22.303      383.454      216.365      497.436        0.437        0.055       84.527        7.376        0.008      337.690        9.833      857.711
05/19/2014  07:59:00       45.987       27.528        0.964       23.893       20.345       20.563      570.853      413.910      422.851        0.214        0.070       53.596       13.236        0.061      337.783        9.990      857.715
05/19/2014  08:00:00       19.459       14.641       15.790       20.160       16.066       16.069      406.423      258.130      258.224        0.088        0.046       24.352       14.071        0.334      338.147       10.602      857.715
05/19/2014  08:01:00       34.629       39.966       28.144       36.594       33.479       22.354     1339.135     1120.825      499.692        0.327        0.148       52.882       15.159        0.082      338.102       10.526      857.719
05/19/2014  08:02:00       26.268       28.049       19.109       45.235       21.528       18.077     2046.202      463.441      326.762        0.234        0.142       38.428       20.171        0.276      338.269       10.805      857.723
05/19/2014  08:03:00       15.212       17.018        1.091       21.317       24.673       15.495      454.425      608.767      240.108        0.091        0.065       22.825       13.158        0.332      338.045       10.431      857.729
05/19/2014  08:04:00       54.461       39.450       15.858       40.200       28.093       24.066     1616.039      789.206      579.180        0.388        0.149       67.248       18.218        0.073      338.108       10.536      857.739
05/19/2014  08:05:00       47.659       35.625       16.937       28.986       29.568       21.169      840.198      874.263      448.137        0.299        0.108       59.503       10.446        0.031      338.011       10.372      857.743
05/19/2014  08:06:00        9.872       47.618       20.405       25.566       24.509       28.722      653.635      600.704      824.930        0.243        0.104       48.631       16.885        0.121      338.192       10.677      857.740
05/19/2014  08:07:00       11.990       31.641       16.118       14.812       20.134       14.909      219.409      405.373      222.271        0.113        0.042       33.836        7.305        0.047      338.381       10.995      857.742
05/19/2014  08:08:00       10.641       78.249        4.119       22.787       34.190       23.103      519.243     1168.933      533.746        0.424        0.111       78.969       20.013        0.064      338.190       10.673      857.747
05/19/2014  08:09:00       16.666       63.613        5.029       38.066       28.301       28.806     1449.046      800.954      829.786        0.371        0.154       65.760       22.050        0.112      338.259       10.790      857.752
05/19/2014  08:10:00       -7.791       32.676       24.898       25.796       48.589       24.435      665.420     2360.906      597.081        0.269        0.181       33.592        9.192        0.075      338.633       11.418      857.763
05/19/2014  08:11:00       28.654       -7.810       25.869       26.043       16.148       22.300      678.231      260.763      497.279        0.149        0.072       29.700       12.064        0.165      338.449       11.109      857.762
05/19/2014  08:12:00       -6.082       53.341       11.610       19.990       54.367       24.699      399.605     2955.737      610.022        0.349        0.198       53.687       29.805        0.308      338.588       11.343      857.746
05/19/2014  08:13:00      -15.151       47.316       11.311       25.837       45.174       27.115      667.564     2040.681      735.248        0.302        0.172       49.682       22.973        0.214      338.672       11.483      857.740
05/19/2014  08:14:00        1.370       72.978        6.066       35.150       28.854       25.607     1235.537      832.563      655.703        0.404        0.136       72.991       19.301        0.070      338.281       10.826      857.729
05/19/2014  08:15:00        8.306       52.233      -15.208       21.551       28.369       29.369      464.445      804.812      862.551        0.258        0.107       52.889       12.129        0.053      338.217       10.719      857.721
05/19/2014  08:16:00      -19.472       50.543       11.239       32.848       41.543       33.128     1079.000     1725.824     1097.468        0.348        0.195       54.164       31.373        0.336      338.539       11.259      857.719
05/19/2014  08:17:00       -2.979        1.269       21.794       27.905       15.377       14.087      778.698      236.444      198.453        0.085        0.061        3.238        8.047        6.176      338.756       11.624      857.721
05/19/2014  08:18:00        9.862      -32.748       12.898       34.556       20.892       24.940     1194.129      436.466      622.018        0.179        0.113       34.201       22.390        0.429      338.448       11.107      857.719
05/19/2014  08:19:00       44.406       26.465       38.760       37.610       35.414       28.580     1414.538     1254.136      816.840        0.383        0.174       51.694        8.965        0.030      338.556       11.287      857.710
05/19/2014  08:20:00       89.710       74.518       24.991       21.022       15.769       19.019      441.912      248.675      361.727        0.764        0.053      116.623        9.598        0.007      338.041       10.424      857.705
05/19/2014  08:21:00       61.486       67.418       20.062       21.036       18.122       21.140      442.522      328.397      446.896        0.497        0.061       91.246        9.041        0.010      338.257       10.786      857.706
05/19/2014  08:22:00       38.331       36.811       15.566       22.206       19.173       21.233      493.117      367.614      450.820        0.219        0.066       53.144       16.891        0.101      338.436       11.087      857.705
05/19/2014  08:23:00       -2.399       30.212        8.965       16.753       22.314       25.091      280.661      497.912      629.552        0.120        0.070       30.307       12.129        0.160      338.649       11.444      857.702
05/19/2014  08:24:00       29.425      -15.680       28.006       33.098       53.963       19.302     1095.476     2911.962      372.578        0.314        0.219       33.342       19.360        0.337      338.675       11.488      857.696
05/19/2014  08:25:00        1.418       -7.111       40.583       21.008       43.721       19.322      441.342     1911.483      373.340        0.221        0.136        7.251       16.987        5.488      339.033       12.091      857.701
05/19/2014  08:26:00       30.048       38.357       12.858       21.349       27.665       21.499      455.770      765.337      462.195        0.211        0.084       48.725       14.280        0.086      338.820       11.730      857.703
05/19/2014  08:27:00       15.335       27.349        4.543       28.606       33.335       27.134      818.287     1111.203      736.255        0.183        0.133       31.355       19.541        0.388      338.933       11.921      857.700
05/19/2014  08:28:00      -10.108       45.275       16.538       23.151       42.007       24.277      535.973     1764.584      589.353        0.266        0.144       46.389       24.716        0.284      338.940       11.935      857.695
05/19/2014  08:29:00       34.719       11.250        8.635       27.960       19.779       20.099      781.767      391.195      403.988        0.149        0.079       36.496       15.044        0.170      338.696       11.523      857.695
05/19/2014  08:30:00        5.375        2.779       10.500       15.663       10.837       20.134      245.332      117.444      405.374        0.046        0.038        6.051        7.791        1.658      339.147       12.282      857.703
05/19/2014  08:31:00      -12.879       23.610        9.338       21.628       26.427       24.677      467.774      698.407      608.967        0.129        0.089       26.894       20.829        0.600      339.176       12.330      857.715
05/19/2014  08:32:00        7.628       16.990       17.396       29.430       22.330       24.543      866.118      498.650      602.343        0.131        0.098       18.624       17.247        0.858      339.389       12.690      857.718
05/19/2014  08:33:00      -12.136       27.546        3.981       40.820       31.903       21.614     1666.291     1017.782      467.158        0.204        0.158       30.101       16.186        0.289      339.148       12.283      857.724
05/19/2014  08:34:00      -29.042        8.245       -8.613       28.163       23.143       23.003      793.182      535.581      529.158        0.142        0.093       30.189       13.246        0.193      338.880       11.834      857.725
05/19/2014  08:35:00       -8.066       53.523        8.101       28.955       41.810       27.441      838.374     1748.039      752.998        0.317        0.167       54.127       24.068        0.198      339.236       12.432      857.726
05/19/2014  08:36:00       31.678       53.198       -7.939       33.163       28.256       26.520     1099.760      798.419      703.311        0.325        0.130       61.915       20.689        0.112      338.795       11.690      857.720
05/19/2014  08:37:00       85.659       47.075        6.129       22.563       27.949       23.663      509.092      781.149      559.938        0.572        0.093       97.742       13.691        0.020      338.573       11.314      857.724
05/19/2014  08:38:00       71.388       28.429       -2.326       18.502       16.921       20.489      342.336      286.307      419.816        0.348        0.052       76.840       11.707        0.023      338.585       11.337      857.731
05/19/2014  08:39:00       41.099       43.759       12.041       29.115       22.182       22.769      847.695      492.030      518.424        0.280        0.093       60.033       15.581        0.067      338.733       11.584      857.737
05/19/2014  08:40:00       -1.038       28.123        6.526       17.878       20.176       20.954      319.634      407.071      439.082        0.100        0.058       28.142       18.680        0.441      339.150       12.287      857.740
05/19/2014  08:41:00       14.977       49.576       16.612       24.192       34.975       22.304      585.274     1223.228      497.476        0.263        0.115       51.789       18.587        0.129      339.391       12.693      857.746
05/19/2014  08:42:00       22.807       51.886       11.555       27.539       47.095       27.628      758.401     2217.960      763.308        0.354        0.187       56.677       19.325        0.116      338.879       11.832      857.744
05/19/2014  08:43:00       75.493       61.245        1.209       42.132       42.127       28.765     1775.080     1774.689      827.416        0.691        0.219       97.212       19.090        0.039      338.873       11.819      857.728
05/19/2014  08:44:00       59.884       38.701       12.384       49.259       29.180       26.042     2426.465      851.499      678.166        0.460        0.198       71.302       20.380        0.082      338.728       11.577      857.725
05/19/2014  08:45:00      -34.195       11.239        2.050       18.194       14.488       18.064      331.022      209.896      326.291        0.108        0.043       35.995        5.915        0.027      338.710       11.546      857.715
05/19/2014  08:46:00       15.565       17.336       11.089       24.099       15.565       17.294      580.753      242.279      299.072        0.089        0.056       23.298        6.623        0.081      339.088       12.182      857.700
05/19/2014  08:47:00        3.621       25.584       16.399       40.133       31.045       24.239     1610.657      963.810      587.552        0.205        0.158       25.839       16.402        0.403      339.242       12.440      857.689
05/19/2014  08:48:00       16.740       81.753       -0.307       31.295       46.086       23.750      979.399     2123.945      564.081        0.531        0.183       83.450       23.890        0.082      338.996       12.028      857.683
05/19/2014  08:49:00       77.614       54.838        8.853       40.229       32.578       20.427     1618.405     1061.314      417.266        0.610        0.155       95.032        7.432        0.006      338.921       11.900      857.673
05/19/2014  08:50:00       80.101       43.246       17.156       33.510       32.339       24.378     1122.931     1045.822      594.280        0.567        0.138       91.030       17.897        0.039      338.704       11.536      857.672
05/19/2014  08:51:00       88.732       72.460       50.658       77.441       30.588       35.836     5997.036      935.653     1284.200        1.195        0.411      114.559       33.792        0.087      338.817       11.725      857.667
05/19/2014  08:52:00       60.191       62.170       -5.509       47.840       38.921       38.146     2288.692     1514.837     1455.123        0.639        0.263       86.534       25.856        0.089      338.853       11.786      857.669
05/19/2014  08:53:00       89.339       70.869       22.351       51.937       28.084       32.482     2697.424      788.707     1055.089        0.902        0.227      114.035       15.840        0.019      338.873       11.821      857.660
05/19/2014  08:54:00      123.305      100.703       50.637       48.329       35.993       39.480     2335.671     1295.467     1558.666        1.655        0.259      159.202       28.170        0.031      338.729       11.578      857.656
05/19/2014  08:55:00       35.741       85.742       63.290       62.339       32.226       41.075     3886.174     1038.506     1687.190        0.962        0.331       92.894       44.036        0.225      338.932       11.919      857.648
05/19/2014  08:56:00       64.697       55.509       18.115       47.216       32.874       27.255     2229.309     1080.681      742.861        0.582        0.203       85.247       15.912        0.035      338.913       11.887      857.650
05/19/2014  08:57:00       23.207       43.510        8.889       35.416       34.141       22.058     1254.303     1165.591      486.534        0.271        0.145       49.312       20.191        0.168      339.153       12.291      857.646
05/19/2014  08:58:00       36.991       68.329        4.183       26.129       34.653       24.508      682.722     1200.803      600.662        0.427        0.124       77.699       18.766        0.058      339.034       12.091      857.653
05/19/2014  08:59:00       36.275       44.749       18.336       55.604       35.186       27.202     3091.809     1238.027      739.975        0.436        0.253       57.605       22.006        0.146      339.041       12.102      857.655
05/19/2014  09:00:00       92.355       83.607       -3.079       46.893       35.661       31.385     2198.924     1271.724      985.012        0.999        0.223      124.577       25.455        0.042      338.848       11.777      857.656
05/19/2014  09:01:00       56.894       77.211       14.124       61.459       43.890       32.624     3777.161     1926.370     1064.337        0.808        0.338       95.909       25.182        0.069      339.035       12.093      857.639
05/19/2014  09:02:00      111.284       73.513        8.088       56.669       36.056       33.431     3211.354     1300.045     1117.643        1.174        0.281      133.373       24.989        0.035      339.084       12.176      857.625
05/19/2014  09:03:00      129.795       61.506        2.549       32.689       37.445       30.461     1068.559     1402.108      927.888        1.202        0.170      143.630       18.831        0.017      339.004       12.041      857.607
05/19/2014  09:04:00      128.477       79.308       21.560       43.000       32.478       39.137     1848.991     1054.797     1531.711        1.385        0.222      150.983       25.799        0.029      338.977       11.995      857.600
05/19/2014  09:05:00       62.017       88.230       -0.682       47.878       32.567       29.854     2292.273     1060.596      891.256        0.794        0.212      107.846       24.102        0.050      338.858       11.796      857.590
05/19/2014  09:06:00       -0.792       65.963        3.137       23.990       38.090       28.147      575.512     1450.861      792.254        0.359        0.141       65.968       18.559        0.079      339.126       12.246      857.591
05/19/2014  09:07:00       -3.744       35.165       10.589       16.973       38.828       22.425      288.099     1507.611      502.884        0.183        0.115       35.364       21.629        0.374      339.392       12.693      857.596
05/19/2014  09:08:00       -4.787       50.279        2.369       18.013       34.015       24.255      324.457     1156.994      588.326        0.231        0.103       50.506       23.879        0.224      339.304       12.546      857.589
05/19/2014  09:09:00       25.692       56.802        3.653       25.726       28.207       20.911      661.847      795.622      437.276        0.290        0.095       62.342       19.149        0.094      339.056       12.127      857.608
05/19/2014  09:10:00        9.685       18.122       28.568       54.499       50.180       27.468     2970.108     2518.078      754.484        0.374        0.312       20.548       10.819        0.277      339.162       12.306      857.606
05/19/2014  09:11:00       45.585       21.217       58.166       36.645       33.919       24.187     1342.839     1150.521      585.003        0.449        0.154       50.281       12.016        0.057      339.363       12.645      857.605
05/19/2014  09:12:00       11.203      -39.208       22.494       29.420       55.522       26.037      865.555     3082.719      677.917        0.340        0.231       40.777       20.275        0.247      339.318       12.569      857.610
05/19/2014  09:13:00        6.822      -32.888       12.162       24.069       36.836       27.559      579.320     1356.889      759.515        0.199        0.135       33.588       13.493        0.161      339.527       12.921      857.602
05/19/2014  09:14:00       18.879      -54.180       25.513       35.504       38.859       35.041     1260.547     1510.020     1227.842        0.397        0.200       57.375       17.305        0.091      339.428       12.754      857.595
05/19/2014  09:15:00       83.439      -88.349      -15.925       37.199       63.001       28.379     1383.743     3969.160      805.380        1.059        0.308      121.522       21.079        0.030      338.981       12.002      857.588
05/19/2014  09:16:00        2.235       13.128       47.839       17.565       28.453       17.644      308.534      809.561      311.309        0.195        0.071       13.317        7.089        0.283      339.717       13.241      857.579
05/19/2014  09:17:00        1.595       30.129       47.259       25.930       26.729       13.919      672.377      714.449      193.740        0.236        0.079       30.171       11.076        0.135      339.731       13.265      857.578
05/19/2014  09:18:00       47.740       28.030       20.785       44.177       30.460       23.856     1951.585      927.823      569.116        0.347        0.172       55.361       20.085        0.132      339.276       12.498      857.584
05/19/2014  09:19:00      -10.941       65.999        9.744       27.890       44.892       28.520      777.870     2015.305      813.419        0.409        0.180       66.900       30.827        0.212      339.565       12.986      857.569
05/19/2014  09:20:00       47.361       26.311       23.124       40.481       27.738       28.850     1638.673      769.390      832.300        0.335        0.162       54.178       20.375        0.141      339.618       13.076      857.553
05/19/2014  09:21:00      115.457       82.627       19.164       76.762       65.517       45.998     5892.429     4292.445     2115.827        1.641        0.615      141.977       34.206        0.058      339.588       13.024      857.543
05/19/2014  09:22:00      208.545      141.596       17.470       49.851       46.435       47.037     2485.128     2156.249     2212.485        3.535        0.343      252.072       32.972        0.017      339.024       12.071      857.522
05/19/2014  09:23:00       88.904       71.493        3.479       67.016       64.438       43.743     4491.108     4152.306     1913.430        1.179        0.528      114.085       29.086        0.065      339.441       12.775      857.525
05/19/2014  09:24:00       60.256       93.202      -17.028       52.830       53.071       24.101     2791.004     2816.557      580.867        0.940        0.309      110.984       29.506        0.071      339.201       12.372      857.538
05/19/2014  09:25:00       -8.550       85.545      -10.638       25.529       36.479       24.503      651.739     1330.743      600.396        0.504        0.129       85.971       21.061        0.060      339.250       12.455      857.535
05/19/2014  09:26:00      -14.488       38.140       12.272       19.169       28.715       22.618      367.437      824.553      511.553        0.176        0.085       40.799       19.261        0.223      339.708       13.226      857.537
05/19/2014  09:27:00      -31.330       26.753       -0.104       21.059       28.127       22.157      443.470      791.148      490.946        0.171        0.086       41.198       13.302        0.104      339.409       12.724      857.528
05/19/2014  09:28:00      -13.335       -0.582      -12.893       27.558       44.402       19.095      759.456     1971.521      364.608        0.172        0.155       13.348       20.378        2.331      339.381       12.676      857.519
05/19/2014  09:29:00        7.923      -62.532        3.956       19.294       32.952       23.544      372.261     1085.856      554.317        0.300        0.101       63.032       16.353        0.067      339.462       12.812      857.493
05/19/2014  09:30:00      -11.757       -1.939       21.180       25.438       21.136       14.900      647.089      446.752      222.016        0.095        0.066       11.916       10.650        0.799      340.021       13.756      857.466
05/19/2014  09:31:00       -0.219        6.306       32.643       13.058       13.723       10.880      170.513      188.311      118.372        0.079        0.024        6.310        4.193        0.442      340.816       15.098      857.462
05/19/2014  09:32:00       16.135       50.835        8.448       31.990       36.840       27.557     1023.339     1357.151      759.394        0.303        0.157       53.334       23.511        0.194      340.120       13.922      857.461
05/19/2014  09:33:00       52.071       47.411        3.093       23.832       41.829       29.311      567.986     1749.673      859.137        0.407        0.159       70.422       19.894        0.080      339.628       13.093      857.452
05/19/2014  09:34:00       46.456       47.289        4.316       33.661       34.233       29.521     1133.061     1171.865      871.466        0.379        0.159       66.290       12.562        0.036      339.668       13.159      857.450
05/19/2014  09:35:00       74.237       55.014       -3.917       42.820       61.864       36.762     1833.539     3827.144     1351.471        0.778        0.351       92.400       21.473        0.054      339.794       13.372      857.432
05/19/2014  09:36:00       -6.420        9.302       26.068       49.926       54.187       34.569     2492.573     2936.226     1195.010        0.371        0.331       11.302       25.167        4.958      340.396       14.387      857.420
05/19/2014  09:37:00      106.200      -91.885       14.181       60.220       62.386       50.338     3626.465     3892.053     2533.930        1.499        0.503      140.433       48.435        0.119      339.802       13.385      857.404
05/19/2014  09:38:00       59.587      -53.999       10.538       64.044       73.196       57.416     4101.586     5357.685     3296.589        0.966        0.638       80.414       50.361        0.392      339.910       13.568      857.379
05/19/2014  09:39:00       43.113       14.444       63.469       56.048       48.349       38.209     3141.423     2337.598     1459.896        0.652        0.347       45.468       33.359        0.538      340.032       13.774      857.355
05/19/2014  09:40:00      117.619      -87.729       17.359       81.315       96.993       61.438     6612.084     9407.577     3774.671        2.081        0.990      146.734       63.393        0.187      339.881       13.517      857.329
05/19/2014  09:41:00      146.844       86.192       65.540       88.875       82.281       47.675     7898.747     6770.152     2272.906        2.511        0.847      170.271       20.382        0.014      339.613       13.064      857.321
05/19/2014  09:42:00        6.865       62.189       85.309       44.481       52.392       38.626     1978.554     2744.957     1491.983        0.870        0.311       62.567       34.970        0.312      340.142       13.958      857.333
05/19/2014  09:43:00       64.867        0.782       39.280       39.850       84.073       40.791     1588.059     7068.225     1663.940        0.803        0.516       64.872       47.112        0.527      339.636       13.106      857.340
05/19/2014  09:44:00      128.524       83.342       36.114       56.145       41.949       47.177     3152.241     1759.692     2225.659        1.595        0.357      153.180       35.546        0.054      339.411       12.726      857.326
05/19/2014  09:45:00      161.422      139.636       81.738       72.557       58.463       47.862     5264.568     3417.886     2290.770        3.160        0.549      213.437       36.043        0.029      339.505       12.881      857.328
05/19/2014  09:46:00       92.686      103.734       60.935       48.118       33.645       41.208     2315.358     1132.005     1698.066        1.410        0.257      139.109       10.269        0.005      339.363       12.644      857.319
05/19/2014  09:47:00      135.884       84.444       52.625       55.842       32.941       35.525     3118.380     1085.109     1262.053        1.691        0.273      159.985       31.060        0.038      339.580       13.009      857.320
05/19/2014  09:48:00       72.951       77.156       48.084       42.975       45.445       42.009     1846.891     2065.210     1764.774        0.963        0.284      106.183       24.129        0.052      339.548       12.957      857.325
05/19/2014  09:49:00       47.809      -59.031       12.437       48.928       68.688       48.108     2393.953     4718.078     2314.413        0.767        0.471       75.963       53.788        0.501      339.691       13.197      857.313
05/19/2014  09:50:00       85.063       -6.093       22.552       67.095       49.293       42.043     4501.717     2429.823     1767.581        0.824        0.435       85.281       39.344        0.213      339.675       13.172      857.310
05/19/2014  09:51:00       40.945      -14.587       10.695       66.096       32.402       33.629     4368.745     1049.913     1130.916        0.428        0.327       43.466       29.840        0.471      339.789       13.362      857.298
05/19/2014  09:52:00       61.831      -44.766       25.114       46.307       70.918       40.298     2144.345     5029.303     1623.968        0.763        0.440       76.336       43.814        0.329      339.642       13.116      857.300
05/19/2014  09:53:00       14.134      -36.289        9.391       46.757       56.257       33.205     2186.216     3164.830     1102.577        0.403        0.323       38.945       30.361        0.608      339.909       13.567      857.279
05/19/2014  09:54:00       87.232       33.210       52.209       60.162       69.673       51.230     3619.420     4854.258     2624.517        1.127        0.555       93.340       45.345        0.236      339.848       13.463      857.271
05/19/2014  09:55:00      121.901       65.796        9.317       93.464       73.993       40.480     8735.512     5474.992     1638.596        1.756        0.792      138.525       37.210        0.072      339.686       13.188      857.257
05/19/2014  09:56:00       71.254       56.553       34.958       44.244       52.367       27.987     1957.515     2742.352      783.277        0.749        0.274       90.969       15.698        0.030      339.970       13.670      857.270
05/19/2014  09:57:00       -5.004      -12.011       15.572       33.133       40.302       25.209     1097.789     1624.231      635.504        0.188        0.168       13.012       10.742        0.682      339.701       13.215      857.273
05/19/2014  09:58:00       18.817       41.368       55.802       34.766       30.821       28.102     1208.706      949.950      789.705        0.406        0.147       45.446       21.754        0.229      339.963       13.657      857.284
05/19/2014  09:59:00       91.194       57.370       14.213       67.285       45.545       34.643     4527.317     2074.358     1200.169        0.980        0.390      107.739       23.566        0.048      339.859       13.481      857.291
05/19/2014  10:00:00      179.763       92.627       26.670      125.455       64.215       52.026    15738.930     4123.575     2706.683        3.208        1.128      202.224       27.696        0.019      339.873       13.502      857.274
05/19/2014  10:01:00      169.209       99.357        4.521       78.276       54.003       42.808     6127.144     2916.286     1832.535        2.470        0.544      196.223       28.803        0.022      339.638       13.106      857.271
05/19/2014  10:02:00       27.769       84.115       -6.173       37.454       58.408       32.906     1402.811     3411.479     1082.787        0.689        0.295       88.581       34.956        0.156      339.763       13.321      857.265
05/19/2014  10:03:00       62.028       86.973       -6.394       45.800       54.207       36.712     2097.659     2938.443     1347.803        0.892        0.319      106.826       35.362        0.110      339.679       13.178      857.264
05/19/2014  10:04:00       84.249       92.679       -0.431       52.150       40.425       40.972     2719.658     1634.174     1678.666        1.086        0.302      125.249       26.690        0.045      339.718       13.244      857.267
05/19/2014  10:05:00      114.540       84.371        3.618       40.161       42.691       33.726     1612.887     1822.520     1137.476        1.241        0.229      142.260       24.873        0.031      339.606       13.054      857.268
05/19/2014  10:06:00       77.756       61.046       10.122       51.049       37.469       33.891     2605.990     1403.948     1148.633        0.752        0.258       98.856       31.383        0.101      339.983       13.691      857.264
05/19/2014  10:07:00       79.633       79.275        1.232       56.827       55.428       39.456     3229.345     3072.293     1556.743        1.024        0.393      112.365       33.997        0.092      339.970       13.667      857.254
05/19/2014  10:08:00      141.740       57.291       17.250       62.986       47.029       42.790     3967.275     2211.732     1830.968        1.584        0.400      152.880       32.173        0.044      340.080       13.853      857.235
05/19/2014  10:09:00      103.903       88.147       16.514       73.589       69.301       45.623     5415.347     4802.662     2081.472        1.557        0.615      136.255       24.400        0.032      340.146       13.965      857.229
05/19/2014  10:10:00       64.686      106.837       -1.445       73.801       65.305       44.052     5446.542     4264.728     1940.578        1.362        0.583      124.894       35.066        0.079      339.710       13.229      857.236
05/19/2014  10:11:00       -0.483       45.356       11.355       21.993       39.756       27.646      483.713     1580.506      764.314        0.251        0.141       45.358       25.709        0.321      340.049       13.802      857.221
05/19/2014  10:12:00       18.020       89.997       -3.495       43.915       36.091       26.587     1928.550     1302.534      706.894        0.619        0.197       91.783       16.301        0.032      340.112       13.908      857.189
05/19/2014  10:13:00        8.203       74.025        5.222       36.617       56.421       36.294     1340.820     3183.299     1317.263        0.571        0.292       74.478       28.828        0.150      340.269       14.174      857.169
05/19/2014  10:14:00       54.303      116.519       15.255       65.859       64.140       50.009     4337.434     4114.000     2500.930        1.385        0.548      128.551       41.620        0.105      340.238       14.121      857.165
05/19/2014  10:15:00      206.484      106.731        9.867       67.078       57.813       51.732     4499.467     3342.384     2676.249        3.232        0.526      232.438       35.585        0.023      339.754       13.300      857.165
05/19/2014  10:16:00       27.720       13.221       51.146       72.819       59.624       34.581     5302.620     3554.976     1195.826        0.680        0.503       30.711       22.484        0.536      340.070       13.837      857.160
05/19/2014  10:17:00       44.075       46.148       24.676       59.857       35.341       38.098     3582.867     1249.006     1451.466        0.548        0.314       63.814       36.376        0.325      340.028       13.766      857.152
05/19/2014  10:18:00      129.593       67.582        7.036       72.383       57.251       52.354     5239.260     3277.713     2740.926        1.633        0.563      146.157       31.250        0.046      340.264       14.163      857.152
05/19/2014  10:19:00      110.109      112.815       -0.887       76.673       73.706       59.293     5878.816     5432.606     3515.675        1.984        0.741      157.643       46.810        0.088      340.186       14.031      857.165
05/19/2014  10:20:00      148.096       90.858       14.741       87.636       86.568       48.668     7680.124     7494.074     2368.535        2.397        0.877      173.746       31.434        0.033      340.368       14.338      857.153
05/19/2014  10:21:00       89.874       60.517        4.558       52.408       53.989       42.603     2746.629     2914.814     1815.058        0.962        0.374      108.349       18.502        0.029      340.307       14.237      857.167
05/19/2014  10:22:00      -14.103       -7.389       33.295       32.111       51.479       27.405     1031.120     2650.089      751.041        0.290        0.222       15.922       22.200        1.944      340.601       14.734      857.169
05/19/2014  10:23:00      106.374      -64.559       18.946       51.520       63.233       42.308     2654.290     3998.422     1789.998        1.214        0.422      124.432       27.464        0.049      339.716       13.239      857.164
05/19/2014  10:24:00       20.026       38.129      -16.235       33.602       39.697       31.188     1129.115     1575.855      972.707        0.290        0.184       43.068       15.071        0.122      339.798       13.378      857.172
05/19/2014  10:25:00      -27.155       10.414       22.931       29.465       27.594       24.018      868.174      761.439      576.843        0.179        0.110       29.084       12.149        0.174      340.324       14.267      857.157
05/19/2014  10:26:00        0.956      -31.189       23.802       36.101       50.482       29.258     1303.282     2548.429      856.057        0.312        0.235       31.203       20.502        0.432      340.441       14.465      857.148
05/19/2014  10:27:00       33.007      -58.751       10.984       50.574       70.174       38.987     2557.687     4924.453     1519.949        0.683        0.450       67.388       46.451        0.475      340.355       14.320      857.129
05/19/2014  10:28:00       84.498     -136.739      -12.924       45.797       50.857       29.766     2097.385     2586.456      885.986        1.579        0.278      160.740       23.569        0.021      340.178       14.019      857.118
05/19/2014  10:29:00       40.559      -40.439       20.925       44.660       40.115       38.355     1994.540     1609.234     1471.097        0.440        0.254       57.274       23.746        0.172      340.560       14.665      857.120
05/19/2014  10:30:00       52.974       54.468       19.952       38.795       34.005       36.316     1505.062     1156.369     1318.869        0.507        0.199       75.981       21.284        0.078      340.324       14.267      857.128
05/19/2014  10:31:00       11.616      130.573      -12.931       46.575       49.395       28.622     2169.185     2439.880      819.229        1.139        0.271      131.089       31.911        0.059      340.099       13.886      857.135
05/19/2014  10:32:00      -18.780       88.650       -6.904       35.966       60.865       35.718     1293.576     3704.573     1275.748        0.727        0.314       90.617       33.122        0.134      340.520       14.597      857.130
05/19/2014  10:33:00      -44.189       68.190       -6.204       49.932       56.487       32.879     2493.216     3190.831     1081.001        0.670        0.338       81.256       28.805        0.126      340.560       14.664      857.125
05/19/2014  10:34:00      -63.596       77.324       -1.582       62.044       34.358       41.717     3849.454     1180.461     1740.274        0.840        0.339      100.117       35.257        0.124      340.379       14.360      857.118
05/19/2014  10:35:00      -40.349       53.724        9.181       48.182       48.195       34.636     2321.468     2322.768     1199.647        0.522        0.292       67.188       16.391        0.060      340.696       14.895      857.116
05/19/2014  10:36:00       -3.481       32.364        9.751       56.964       44.657       30.365     3244.895     1994.282      922.049        0.366        0.308       32.551       32.322        0.986      340.962       15.346      857.102
05/19/2014  10:37:00      -38.748      224.268      -13.279       41.649       90.483       36.939     1734.679     8187.175     1364.466        3.163        0.564      227.591       39.256        0.030      340.489       14.543      857.081
05/19/2014  10:38:00      -13.413      257.669      -28.014       35.738       65.811       31.700     1277.213     4331.055     1004.915        3.698        0.331      258.018       30.824        0.014      340.183       14.023      857.072
05/19/2014  10:39:00        5.740      139.851      -12.927       58.528       73.763       32.240     3425.560     5440.909     1039.392        1.483        0.495      139.969       34.732        0.062      340.306       14.235      857.073
05/19/2014  10:40:00       56.591       43.681       18.733       36.580       22.734       27.803     1338.126      516.840      773.019        0.404        0.131       71.488        7.590        0.011      340.108       13.901      857.067
05/19/2014  10:41:00        7.980      -42.995       -2.513       32.729       56.890       29.391     1071.189     3236.453      863.829        0.354        0.259       43.729       20.219        0.214      340.016       13.746      857.066
05/19/2014  10:42:00       36.077      -68.852       10.184       28.085       49.629       32.268      788.766     2463.083     1041.251        0.522        0.215       77.731       30.252        0.151      340.290       14.207      857.060
05/19/2014  10:43:00       30.228       14.800       21.301       36.957       48.300       29.253     1365.788     2332.933      855.721        0.307        0.228       33.656       24.433        0.527      340.628       14.781      857.061
05/19/2014  10:44:00       86.012      116.009       31.127       99.732       74.031       51.688     9946.425     5480.553     2671.605        1.996        0.905      144.417       52.996        0.135      340.807       15.082      857.050
05/19/2014  10:45:00      166.848      111.802       34.607      106.456       66.858       63.596    11332.923     4470.056     4044.449        3.069        0.992      200.843       40.570        0.041      340.594       14.720      857.042
05/19/2014  10:46:00      138.326       98.492       25.676       99.318       70.028       54.375     9864.104     4903.928     2956.634        2.361        0.886      169.808       43.993        0.067      340.690       14.882      857.011
05/19/2014  10:47:00      155.564       76.636       51.157       95.255       81.166       57.449     9073.466     6587.957     3300.409        2.582        0.948      173.417       28.988        0.028      340.836       15.129      856.992
05/19/2014  10:48:00      139.452      117.699       82.019      100.655       79.512       58.303    10131.429     6322.153     3399.294        2.994        0.993      182.482       49.431        0.073      340.929       15.287      856.980
05/19/2014  10:49:00       12.976      -15.622       23.474       56.427       82.691       45.301     3184.043     6837.830     2052.147        0.652        0.604       20.309       45.326        4.981      340.725       14.943      857.008
05/19/2014  10:50:00      -27.547      -26.578       20.152       39.988       47.616       24.205     1599.065     2267.273      585.859        0.316        0.223       38.278       24.581        0.412      340.796       15.065      857.002
05/19/2014  10:51:00        7.481       10.566       18.308       48.243       21.215       24.387     2327.363      450.091      594.735        0.194        0.169       12.947       14.388        1.235      340.706       14.913      857.006
05/19/2014  10:52:00       27.120       30.037        6.221       47.116       38.603       29.666     2219.946     1490.158      880.071        0.313        0.230       40.468       25.386        0.394      340.870       15.187      857.001
05/19/2014  10:53:00       35.575       46.587       33.938       37.871       37.401       30.090     1434.223     1398.832      905.391        0.416        0.187       58.617       22.720        0.150      340.756       14.997      857.004
05/19/2014  10:54:00       -7.401       -1.166       46.800       34.878       69.345       38.565     1216.482     4808.776     1487.228        0.488        0.376        7.492       39.524       27.828      340.818       15.101      856.987
05/19/2014  10:55:00       46.605       -4.555       14.660       61.867       62.017       31.159     3827.575     3846.138      970.872        0.552        0.432       46.827       23.781        0.258      340.912       15.262      856.981
05/19/2014  10:56:00      113.675       52.165       51.069      131.397       77.143       61.692    17265.137     5951.112     3805.953        2.263        1.351      125.073       70.705        0.320      340.817       15.099      856.959
05/19/2014  10:57:00      144.190      103.068       44.831      101.387       59.742       54.113    10279.363     3569.108     2928.254        2.510        0.839      177.239       62.736        0.125      340.342       14.294      856.962
05/19/2014  10:58:00       64.723       59.079       33.030       43.490       34.632       36.843     1891.417     1199.354     1357.378        0.661        0.222       87.632       10.458        0.014      340.454       14.486      856.958
05/19/2014  10:59:00       16.157       20.366       -2.329       45.011       30.177       19.816     2025.978      910.647      392.693        0.200        0.166       25.996       12.819        0.243      340.521       14.600      856.958
05/19/2014  11:00:00       -6.457      150.409       24.765      102.167      109.133       68.884    10438.079    11910.023     4745.020        2.518        1.355      150.548       68.783        0.209      340.635       14.790      856.951
05/19/2014  11:01:00      -60.393       80.334        7.477       38.242       50.943       36.479     1462.430     2595.175     1330.734        0.777        0.269      100.503       27.811        0.077      340.677       14.863      856.943
05/19/2014  11:02:00       42.639       89.291        3.225       80.034       57.477       36.378     6405.484     3303.631     1323.367        1.041        0.552       98.949       34.407        0.121      340.819       15.102      856.957
05/19/2014  11:03:00      160.507       98.551       44.386       97.200       78.503       66.453     9447.830     6162.790     4416.049        2.873        1.001      188.347       44.845        0.057      340.706       14.910      856.965
05/19/2014  11:04:00      161.364      111.578       10.932       83.400       51.865       47.721     6955.554     2690.020     2277.263        2.526        0.596      196.184       26.946        0.019      340.335       14.284      856.973
05/19/2014  11:05:00      117.210      101.266        4.828       71.100       61.158       49.828     5055.218     3740.348     2482.831        1.765        0.564      154.897       23.618        0.023      340.453       14.482      856.986
05/19/2014  11:06:00       43.681      107.509      -14.665       38.684       46.288       41.235     1496.434     2142.566     1700.287        0.951        0.267      116.044       29.288        0.064      340.488       14.542      856.994
05/19/2014  11:07:00        8.352       57.960        5.460       48.097       39.878       26.358     2313.306     1590.230      694.735        0.403        0.230       58.559       19.850        0.115      340.739       14.967      856.989
05/19/2014  11:08:00       69.443       53.910       -7.807       40.387       40.450       27.377     1631.106     1636.173      749.485        0.590        0.201       87.913       24.519        0.078      340.531       14.616      856.989
05/19/2014  11:09:00       32.926       -6.620       -8.338       34.809       35.409       33.788     1211.682     1253.780     1141.642        0.240        0.180       33.585       26.825        0.638      340.541       14.634      856.982
05/19/2014  11:10:00      -25.858        0.984        5.440       31.583       30.132       29.013      997.489      907.912      841.726        0.172        0.137       25.876       26.301        1.033      340.650       14.819      856.945
05/19/2014  11:11:00       53.893       49.320       15.150       45.278       34.297       30.001     2050.111     1176.272      900.034        0.485        0.206       73.054       23.465        0.103      340.946       15.319      856.935
05/19/2014  11:12:00       78.338       21.029       36.837       59.589       85.962       52.263     3550.872     7389.430     2731.472        1.080        0.684       81.112       48.098        0.352      340.766       15.013      856.926
05/19/2014  11:13:00       69.481      -44.175       39.043       77.544       91.799       60.605     6013.137     8427.086     3672.913        1.320        0.906       82.335       57.158        0.482      340.794       15.060      856.910
05/19/2014  11:14:00       90.262     -109.450      -10.873       41.889       45.791       31.746     1754.685     2096.822     1007.791        1.255        0.243      141.868       17.548        0.015      340.139       13.953      856.921
05/19/2014  11:15:00       22.605      -61.891        5.519       66.240       63.116       39.394     4387.759     3983.683     1551.906        0.715        0.496       65.890       43.746        0.441      340.717       14.930      856.915
05/19/2014  11:16:00     -113.143      -45.760       -9.863       71.377       39.523       28.461     5094.606     1562.074      810.046        1.123        0.373      122.046       12.062        0.010      340.449       14.477      856.902
05/19/2014  11:17:00     -111.809      -16.874      -17.459       50.980       38.473       19.739     2599.003     1480.162      389.630        0.878        0.223      113.075       10.414        0.008      340.305       14.234      856.886
05/19/2014  11:18:00      -12.208      -12.594        1.236       19.892       16.841       23.766      395.680      283.607      564.811        0.078        0.062       17.540       17.424        0.987      340.657       14.829      856.877
05/19/2014  11:19:00        8.778      -21.963        4.275       26.094       29.785       27.289      680.907      887.167      744.698        0.144        0.116       23.652       17.552        0.551      340.796       15.065      856.871
05/19/2014  11:20:00       45.537       12.368       22.728       52.767       49.053       36.197     2784.402     2406.243     1310.242        0.462        0.325       47.186       38.250        0.657      340.752       14.990      856.863
05/19/2014  11:21:00       55.679       19.715       27.288       48.180       56.832       32.555     2321.287     3229.826     1059.840        0.542        0.331       59.066       23.770        0.162      340.637       14.795      856.860
05/19/2014  11:22:00       36.726       49.103       85.007       49.707       60.188       37.879     2470.792     3622.608     1434.810        0.926        0.376       61.318       27.112        0.195      340.884       15.213      856.862
05/19/2014  11:23:00       73.527      -73.413        0.916       45.213       42.740       38.545     2044.200     1826.692     1485.723        0.808        0.268      103.902       30.366        0.085      340.544       14.638      856.876
05/19/2014  11:24:00       26.534       -4.690        0.611       36.261       47.372       21.830     1314.883     2244.076      476.537        0.238        0.202       26.945       14.179        0.277      340.808       15.085      856.873
05/19/2014  11:25:00       41.196      -32.307       23.252       49.761       50.128       36.839     2476.164     2512.768     1357.093        0.481        0.317       52.353       29.259        0.312      341.032       15.464      856.874
05/19/2014  11:26:00       46.896       31.441       44.836       36.764       28.432       30.489     1351.618      808.367      929.589        0.414        0.154       56.461       18.592        0.108      340.949       15.323      856.877
05/19/2014  11:27:00       49.718      -30.582       17.738       42.942       48.489       37.274     1844.016     2351.218     1389.373        0.465        0.279       58.370       35.195        0.364      341.044       15.485      856.870
05/19/2014  11:28:00       36.403       47.655       47.125       54.488       47.449       34.158     2968.913     2251.405     1166.770        0.610        0.319       59.968       11.559        0.037      341.292       15.903      856.852
05/19/2014  11:29:00       35.411       36.057       29.340       47.755       29.026       36.021     2280.510      842.508     1297.530        0.392        0.221       50.537       22.011        0.190      341.446       16.165      856.839
05/19/2014  11:30:00       74.835       12.363       60.746       95.670      112.490       66.155     9152.660    12654.004     4376.493        1.781        1.309       75.849       77.064        1.032      341.265       15.857      856.827
05/19/2014  11:31:00       76.063      -29.737       26.903       78.604       72.770       45.505     6178.648     5295.493     2070.736        1.047        0.677       81.669       40.883        0.251      341.286       15.892      856.825
05/19/2014  11:32:00      179.253      108.632       32.146       85.009       66.354       51.870     7226.586     4402.908     2690.515        2.964        0.716      209.601       47.514        0.051      341.177       15.706      856.805
05/19/2014  11:33:00      111.607       78.523       30.494       80.528       51.651       43.470     6484.826     2667.794     1889.659        1.529        0.552      136.462       38.506        0.080      341.490       16.238      856.813
05/19/2014  11:34:00       54.935      -23.156       10.624       65.392       63.846       47.134     4276.135     4076.311     2221.628        0.712        0.529       59.616       28.486        0.228      341.547       16.335      856.826
05/19/2014  11:35:00       27.282     -102.371       15.960       40.716       49.093       39.088     1657.809     2410.083     1527.879        0.854        0.280      105.944       32.797        0.096      341.160       15.681      856.817
05/19/2014  11:36:00       86.173     -122.877        1.200       39.096       41.619       39.390     1528.480     1732.140     1551.610        1.367        0.241      150.082       24.507        0.027      341.062       15.513      856.818
05/19/2014  11:37:00       69.686      -35.261       -2.420       40.814       49.534       39.655     1665.806     2453.661     1572.545        0.590        0.285       78.099       32.590        0.174      341.039       15.477      856.827
05/19/2014  11:38:00       30.380       23.005       55.845       39.813       32.631       29.669     1585.089     1064.762      880.220        0.405        0.177       38.107        8.008        0.044      341.588       16.405      856.826
05/19/2014  11:39:00       58.761       93.343        3.744       55.484       52.969       40.140     3078.464     2805.687     1611.238        0.984        0.375      110.299       27.415        0.062      341.113       15.600      856.828
05/19/2014  11:40:00       26.507       92.560       15.956       53.016       58.705       43.341     2810.671     3446.291     1878.423        0.883        0.407       96.280       37.377        0.151      341.441       16.156      856.816
05/19/2014  11:41:00      -17.592       66.987        1.644       30.073       60.104       33.590      904.409     3612.470     1128.292        0.522        0.282       69.258       37.296        0.290      341.290       15.901      856.815
05/19/2014  11:42:00        2.408       72.738        1.356       30.447       48.811       34.661      927.041     2382.552     1201.369        0.490        0.226       72.778       29.535        0.165      341.146       15.658      856.797
05/19/2014  11:43:00       67.143       70.043       -7.246       45.045       41.680       34.321     2029.055     1737.231     1177.910        0.720        0.247       97.027       24.753        0.065      341.077       15.539      856.787
05/19/2014  11:44:00       70.171      109.171       11.600       78.435       68.351       56.449     6151.987     4671.900     3186.474        1.549        0.701      129.778       40.732        0.099      341.120       15.611      856.773
05/19/2014  11:45:00       21.830      218.181      -23.163       48.503       98.122       46.397     2352.511     9627.961     2152.662        3.137        0.707      219.271       54.868        0.063      340.958       15.336      856.771
05/19/2014  11:46:00      -81.893      177.862      -28.032       34.907       87.466       25.720     1218.509     7650.254      661.497        2.433        0.477      195.809       13.128        0.004      340.699       14.898      856.767
05/19/2014  11:47:00      -62.390      -18.518       -1.942       34.620       37.386       23.079     1198.576     1397.702      532.636        0.368        0.156       65.080       20.027        0.095      340.797       15.066      856.751
05/19/2014  11:48:00      -71.780       71.476       -9.344       35.789       44.442       25.787     1280.852     1975.049      664.963        0.713        0.196      101.297       19.998        0.039      341.049       15.492      856.748
05/19/2014  11:49:00      -24.024       83.493        9.028       37.320       38.269       28.616     1392.785     1464.529      818.863        0.565        0.184       86.881       28.533        0.108      341.238       15.813      856.742
05/19/2014  11:50:00       -5.780      154.135      -11.767       36.566       65.147       33.848     1337.108     4244.190     1145.660        1.533        0.336      154.243       31.588        0.042      341.079       15.541      856.739
05/19/2014  11:51:00       37.529      117.771        3.870       61.119       71.857       50.693     3735.521     5163.470     2569.767        1.338        0.573      123.606       45.242        0.134      341.137       15.642      856.726
05/19/2014  11:52:00      123.621      111.482       -0.675       63.007       52.386       42.015     3969.832     2744.297     1765.240        1.809        0.424      166.464       36.201        0.047      340.813       15.091      856.716
05/19/2014  11:53:00       80.814       96.951        7.113       43.823       50.931       39.816     1920.433     2593.949     1585.312        1.104        0.305      126.216       29.384        0.054      340.873       15.194      856.725
05/19/2014  11:54:00       84.348       51.036       -5.352       39.032       27.466       28.726     1523.488      754.376      825.212        0.642        0.155       98.587       21.923        0.049      340.843       15.143      856.732
05/19/2014  11:55:00       11.851       -3.690       -4.751       27.311       29.668       25.762      745.874      880.190      663.668        0.123        0.114       12.412       22.741        3.357      341.037       15.471      856.714
05/19/2014  11:56:00       13.644        6.794       21.354       29.428       21.060       17.167      866.022      443.534      294.716        0.115        0.080       15.242        9.181        0.363      341.301       15.919      856.703
05/19/2014  11:57:00      -27.805       18.051       -3.582       28.640       44.429       17.209      820.252     1973.951      296.140        0.210        0.155       33.151       19.539        0.347      341.198       15.743      856.702
05/19/2014  11:58:00      -24.222      -65.982        1.169       45.740       86.241       26.199     2092.108     7437.554      686.367        0.758        0.511       70.287       13.349        0.036      340.905       15.249      856.697
05/19/2014  11:59:00       -4.824      -94.469        2.714       39.410       38.990       33.988     1553.123     1520.248     1155.200        0.659        0.211       94.592       32.665        0.119      340.758       15.000      856.693
05/19/2014  12:00:00      -11.649      -84.460        3.493       30.101       19.741       25.395      906.043      389.698      644.929        0.461        0.097       85.259       12.817        0.023      340.763       15.007      856.677
05/19/2014  12:01:00      -36.042      -40.782        4.520       27.864       47.687       30.398      776.428     2274.050      924.011        0.348        0.199       54.426       32.394        0.354      341.102       15.582      856.663
05/19/2014  12:02:00       25.252       27.833       23.899       41.346       44.872       31.457     1709.503     2013.491      989.513        0.335        0.236       37.581       26.284        0.489      341.321       15.953      856.659
05/19/2014  12:03:00      -20.767       47.023       32.214       32.925       42.217       31.246     1084.087     1782.301      976.318        0.376        0.192       51.404       18.653        0.132      341.616       16.452      856.644
05/19/2014  12:04:00      -23.861       94.782       -2.957       29.984       87.396       32.968      899.046     7638.102     1086.921        0.959        0.481       97.739       39.443        0.163      341.291       15.902      856.638
05/19/2014  12:05:00        8.631      182.378        2.362       38.759       78.548       40.964     1502.227     6169.759     1678.051        2.134        0.468      182.582       46.977        0.066      341.130       15.627      856.620
05/19/2014  12:06:00        4.029      136.767      -11.083       34.766       69.794       37.068     1208.681     4871.159     1374.043        1.315        0.373      136.826       37.164        0.074      340.982       15.381      856.611
05/19/2014  12:07:00      -22.522       20.390       -2.199       38.913       33.610       25.823     1514.225     1129.604      666.823        0.212        0.166       30.381       25.718        0.717      341.070       15.527      856.611
05/19/2014  12:08:00      -83.151      -17.669        1.574       28.798       33.436       19.928      829.301     1117.963      397.136        0.479        0.117       85.008       16.136        0.036      341.039       15.477      856.602
05/19/2014  12:09:00      -89.252        1.592       -9.455       32.824       32.399       18.004     1077.387     1049.705      324.150        0.525        0.123       89.266       10.829        0.015      341.011       15.428      856.599
05/19/2014  12:10:00      -26.860       23.626       11.979       31.139       25.601       23.439      969.621      655.408      549.407        0.180        0.109       35.772       19.743        0.305      341.385       16.061      856.603
05/19/2014  12:11:00      -26.351       15.616       13.266       49.920       31.676       29.702     2491.972     1003.372      882.210        0.274        0.219       30.630       30.015        0.960      341.471       16.206      856.612
05/19/2014  12:12:00     -136.495      -38.932       -0.420       77.980       53.381       36.567     6080.929     2849.563     1337.132        1.521        0.513      141.938       42.004        0.088      341.145       15.653      856.619
05/19/2014  12:13:00      -36.866       32.923       11.389       38.011       28.604       28.845     1444.805      818.161      832.023        0.283        0.155       49.427       26.431        0.286      341.567       16.369      856.615
05/19/2014  12:14:00     -157.892      -15.176      -13.119       65.100       61.190       29.111     4238.066     3744.268      847.458        1.708        0.441      158.619       23.294        0.022      341.221       15.783      856.616
05/19/2014  12:15:00     -194.093      -38.424      -21.348       59.055       54.306       36.209     3487.480     2949.193     1311.083        2.367        0.387      197.860       29.062        0.022      341.062       15.512      856.613
05/19/2014  12:16:00     -140.864      -44.031       -9.454       52.134       36.793       30.200     2717.946     1353.733      912.017        1.343        0.249      147.585       12.104        0.007      341.023       15.448      856.613
05/19/2014  12:17:00     -101.947      -27.769       -0.242       43.460       47.536       30.082     1888.734     2259.678      904.948        0.811        0.253      105.662       27.269        0.067      341.186       15.723      856.621
05/19/2014  12:18:00      -66.485       48.939       -0.693       73.256       55.104       33.544     5366.440     3036.399     1125.170        0.817        0.476       82.555       40.504        0.241      341.476       16.216      856.633
05/19/2014  12:19:00     -114.911      -34.364       -1.930       80.080       72.588       33.286     6412.746     5268.983     1107.943        1.359        0.639      119.939       41.917        0.122      341.433       16.141      856.636
05/19/2014  12:20:00     -160.854       10.362      -15.443       72.712       38.611       29.452     5287.092     1490.835      867.431        1.693        0.382      161.188       27.622        0.029      341.069       15.524      856.631
05/19/2014  12:21:00     -335.786     -150.921      -10.942       93.604      102.142       50.272     8761.711    10432.941     2527.260        7.868        1.086      368.143       42.414        0.013      341.059       15.506      856.610
05/19/2014  12:22:00     -319.990      -80.631      -13.382       67.792       59.960       36.341     4595.823     3595.258     1320.704        5.929        0.476      329.993       31.329        0.009      340.960       15.338      856.631
05/19/2014  12:23:00     -248.161       -4.570       -9.928       95.946      114.569       45.584     9205.673    13126.124     2077.945        4.305        1.220      248.204       47.475        0.037      341.105       15.584      856.628
05/19/2014  12:24:00     -216.921       46.444      -21.763       57.809       69.075       38.580     3341.896     4771.319     1488.436        2.964        0.480      221.837       26.044        0.014      341.086       15.551      856.612
05/19/2014  12:25:00     -182.338        7.241      -10.694       98.325       85.787       50.841     9667.712     7359.351     2584.854        2.651        0.981      182.482       50.309        0.076      341.248       15.826      856.594
05/19/2014  12:26:00     -325.952       98.834      -28.133      112.213       69.368       57.441    12591.797     4811.969     3299.523        6.875        1.035      340.607       62.600        0.034      340.905       15.244      856.611
05/19/2014  12:27:00     -153.222       94.086      -27.844       89.435       59.656       38.857     7998.556     3558.837     1509.904        2.308        0.653      179.803       44.239        0.061      340.940       15.307      856.613
05/19/2014  12:28:00     -124.305       57.516      -15.923       70.230       66.698       34.684     4932.288     4448.663     1202.967        1.480        0.529      136.966       32.913        0.058      341.107       15.588      856.597
05/19/2014  12:29:00     -165.597       59.594        6.812      140.424       94.513       59.799    19718.955     8932.769     3575.882        3.162        1.611      175.994       65.349        0.138      341.234       15.802      856.574
05/19/2014  12:30:00     -257.070      -21.158      -25.930      121.759       93.088       49.445    14825.183     8665.422     2444.763        4.656        1.297      257.939       23.752        0.008      341.094       15.566      856.581
05/19/2014  12:31:00     -376.868       19.402      -31.352      242.190      119.036       61.267    58655.796    14169.469     3753.596       10.997        3.829      377.367       81.690        0.047      341.143       15.648      856.556
05/19/2014  12:32:00     -596.398       -1.216      -59.918      121.111      129.323       69.321    14667.884    16724.487     4805.356       19.773        1.810      596.399       65.382        0.012      340.913       15.259      856.555
05/19/2014  12:33:00     -353.879      -92.176      -30.924      154.914       95.950       69.623    23998.195     9206.368     4847.318        8.636        1.903      365.687       63.122        0.030      341.076       15.534      856.554
05/19/2014  12:34:00     -148.066       32.959       -1.967      132.554       83.464       52.475    17570.436     6966.198     2753.641        2.515        1.365      151.690       69.882        0.212      341.392       16.070      856.555
05/19/2014  12:35:00     -324.695       75.955      -32.603       66.002       54.145       36.636     4356.307     2931.673     1342.168        6.044        0.432      333.460       26.788        0.006      340.956       15.332      856.541
05/19/2014  12:36:00     -151.637      -43.624       -5.307      117.892       79.650       54.371    13898.597     6344.151     2956.180        2.406        1.160      157.787       58.193        0.136      341.342       15.986      856.534
05/19/2014  12:37:00      -74.614     -133.130       -0.926       58.779       81.532       36.493     3454.954     6647.425     1331.757        1.736        0.572      152.613       18.018        0.014      341.013       15.429      856.510
05/19/2014  12:38:00      -61.627     -149.818       -7.702       50.046       65.198       31.453     2504.603     4250.773      989.274        1.702        0.387      161.998       23.489        0.021      341.074       15.533      856.465
05/19/2014  12:39:00       18.416      -37.339        8.207       41.784       26.558       27.610     1745.895      705.315      762.306        0.251        0.161       41.634       16.878        0.164      341.066       15.521      856.431
05/19/2014  12:40:00       44.751      -17.601       29.650       29.013       40.280       26.067      841.765     1622.494      679.483        0.317        0.157       48.088       24.159        0.252      341.143       15.651      856.388
05/19/2014  12:41:00       66.349       36.687       26.664       67.179       30.914       31.647     4513.070      955.659     1001.503        0.646        0.324       75.817       27.522        0.132      341.323       15.955      856.357
05/19/2014  12:42:00       30.617       51.952       -1.777       32.727       32.884       24.092     1071.088     1081.356      580.438        0.319        0.137       60.303       11.766        0.038      341.453       16.177      856.344
05/19/2014  12:43:00        4.114       -9.710       17.536       29.953       32.684       31.992      897.186     1068.215     1023.480        0.170        0.149       10.546       18.824        3.186      341.286       15.893      856.336
05/19/2014  12:44:00       -3.765       51.449       31.224       33.419       32.966       25.939     1116.841     1086.773      672.821        0.326        0.144       51.586       21.325        0.171      341.466       16.198      856.320
05/19/2014  12:45:00       34.252       -0.864       22.108       35.695       26.869       34.693     1274.112      721.918     1203.595        0.243        0.160       34.263       16.640        0.236      341.383       16.059      856.313
05/19/2014  12:46:00       30.359       17.773        2.399       32.089       22.296       20.825     1029.694      497.127      433.672        0.160        0.098       35.179       14.484        0.170      341.223       15.786      856.299
05/19/2014  12:47:00       32.040       -8.010       -5.703       27.852       43.298       26.673      775.744     1874.705      711.470        0.224        0.168       33.026        9.017        0.075      341.138       15.643      856.261
05/19/2014  12:48:00       18.874       -2.260       42.358       34.373       55.806       31.215     1181.527     3114.355      974.392        0.371        0.264       19.009       32.604        2.942      341.446       16.163      856.200
05/19/2014  12:49:00       44.706       86.574       91.369       61.053       68.974       78.058     3727.472     4757.475     6093.081        1.621        0.729       97.436       33.546        0.119      341.234       15.805      856.157
05/19/2014  12:50:00       57.000       88.638       84.157       56.674       53.220       42.169     3211.964     2832.358     1778.252        1.300        0.391      105.384       30.532        0.084      341.184       15.721      856.130
05/19/2014  12:51:00       75.450      -37.836       38.863       74.082       77.595       60.547     5488.214     6020.911     3665.925        1.190        0.759       84.406       64.807        0.590      341.210       15.766      856.086
05/19/2014  12:52:00       26.880       52.646       78.889       54.451       70.938       41.066     2964.894     5032.250     1686.387        0.970        0.484       59.111       35.837        0.368      341.265       15.859      856.061
05/19/2014  12:53:00       78.102       71.555       61.224       46.417       41.938       41.786     2154.525     1758.774     1746.093        1.031        0.283      105.924       24.561        0.054      341.442       16.158      856.053
05/19/2014  12:54:00       69.575       23.533        5.068       55.331       54.423       48.913     3061.503     2961.853     2392.525        0.692        0.421       73.447       34.948        0.226      341.560       16.357      856.045
05/19/2014  12:55:00       20.945       -2.256       30.595       44.976       43.275       29.720     2022.868     1872.741      883.308        0.308        0.239       21.066       24.979        1.406      342.177       17.405      856.044
05/19/2014  12:56:00       -7.070       -6.033        5.378       34.885       43.376       27.098     1216.954     1881.445      734.314        0.197        0.192        9.294       21.619        5.411      342.181       17.411      856.039
05/19/2014  12:57:00       46.751       48.753       21.025       46.740       47.705       38.295     2184.593     2275.803     1466.497        0.546        0.296       67.546       36.480        0.292      342.128       17.323      856.035
05/19/2014  12:58:00       76.231       55.851       19.429       67.944       49.846       44.655     4616.375     2484.654     1994.025        0.920        0.455       94.501       26.727        0.080      341.869       16.882      856.031
05/19/2014  12:59:00       98.105       82.866       39.873       42.774       33.113       38.802     1829.576     1096.454     1505.621        1.126        0.222      128.419       20.381        0.025      341.639       16.492      856.027
05/19/2014  13:00:00       55.490       33.887        2.075       49.588       38.971       30.721     2458.957     1518.757      943.774        0.458        0.246       65.019       22.874        0.124      341.796       16.759      856.016
05/19/2014  13:01:00       51.750       13.754       10.566       47.955       48.544       30.250     2299.655     2356.522      915.070        0.427        0.279       53.546       21.296        0.158      342.072       17.227      856.004
05/19/2014  13:02:00       99.698       57.294       34.768       62.244       41.519       40.244     3874.258     1723.865     1619.618        1.082        0.361      114.988       23.946        0.043      341.955       17.028      855.998
05/19/2014  13:03:00      146.304      117.511       44.067       59.398       40.932       40.500     3528.086     1675.451     1640.239        2.200        0.342      187.653       31.643        0.028      341.464       16.192      855.990
05/19/2014  13:04:00       93.588      -13.155       26.993       63.852      112.625       70.472     4077.090    12684.473     4966.235        1.569        1.086       94.508       82.283        0.758      341.543       16.327      855.957
05/19/2014  13:05:00      108.181     -112.664       15.695      106.307      166.893       59.821    11301.138    27853.173     3578.514        3.368        2.137      156.193       76.453        0.240      341.925       16.976      855.947
05/19/2014  13:06:00      137.715     -127.482       40.886      121.644      175.691       88.813    14797.258    30867.354     7887.718        4.521        2.678      187.662       97.359        0.269      341.854       16.853      855.925
05/19/2014  13:07:00       42.700     -145.637      -11.424       44.224       69.942       36.116     1955.740     4891.898     1304.332        1.566        0.408      151.768       21.643        0.020      341.475       16.213      855.983
05/19/2014  13:08:00       58.989     -149.897      -20.656       58.372       57.641       42.703     3407.318     3322.448     1823.578        1.746        0.428      161.086       30.055        0.035      341.620       16.457      855.973
05/19/2014  13:09:00       38.460      -40.972       49.092       42.688       93.037       39.347     1822.290     8655.948     1548.222        0.879        0.601       56.194       51.149        0.828      342.224       17.482      855.979
05/19/2014  13:10:00       25.455     -147.753      -16.321       58.045       76.657       46.788     3369.214     5876.345     2189.123        1.709        0.572      149.930       21.925        0.021      342.152       17.360      855.945
05/19/2014  13:11:00      -27.861      -46.107      -11.484      116.346       70.466       36.876    13536.411     4965.393     1359.832        1.144        0.993       53.871       58.506        1.179      342.223       17.482      855.964
05/19/2014  13:12:00     -103.420      -94.045        2.782       77.698       54.979       43.200     6036.975     3022.667     1866.225        1.523        0.546      139.786       40.005        0.082      342.394       17.772      855.963
05/19/2014  13:13:00      -41.043      -82.363       23.666       56.894      118.182       48.320     3236.887    13967.081     2334.831        1.428        0.977       92.022       61.119        0.441      342.518       17.983      855.965
05/19/2014  13:14:00        4.361     -152.745       -0.290      142.005      104.961       71.105    20165.427    11016.716     5055.886        2.979        1.812      152.807       29.704        0.038      342.170       17.390      855.934
05/19/2014  13:15:00       52.104       -3.412       43.994      104.762       95.054       69.190    10975.125     9035.325     4787.309        1.472        1.240       52.216       75.478        2.089      342.075       17.231      855.897
05/19/2014  13:16:00       -1.931      -58.345       41.587       52.535      104.062       65.522     2759.925    10828.963     4293.120        1.151        0.894       58.377       24.462        0.176      342.350       17.698      855.866
05/19/2014  13:17:00        1.770        3.868      124.286       75.517      204.652      122.027     5702.791    41882.448    14890.656        3.896        3.124        4.254      135.163     1009.707      342.201       17.444      855.815
05/19/2014  13:18:00       74.897       24.087       54.437       61.769       98.035       78.118     3815.364     9610.819     6102.460        1.434        0.976       78.675       84.175        1.145      341.514       16.280      855.862
05/19/2014  13:19:00      -32.058      -11.627       19.208       49.905       28.966       23.620     2490.511      839.005      557.907        0.271        0.194       34.102       13.965        0.168      342.856       18.560      855.854
05/19/2014  13:20:00      -68.658        4.285       18.198       54.047       54.940       30.537     2921.100     3018.426      932.491        0.597        0.344       68.792       24.017        0.122      342.713       18.317      855.859
05/19/2014  13:21:00      -24.797       15.427       15.599       62.430       40.802       34.614     3897.445     1664.802     1198.144        0.393        0.338       29.204       25.152        0.742      342.870       18.584      855.841
05/19/2014  13:22:00     -234.243        4.424       -7.580      100.907      113.096       46.159    10182.241    12790.798     2130.648        4.002        1.255      234.285       44.793        0.037      342.271       17.561      855.815
05/19/2014  13:23:00      -93.909     -131.486       13.486      129.819       73.056       48.801    16852.868     5337.149     2381.498        2.543        1.229      161.578       43.447        0.072      342.238       17.505      855.835
05/19/2014  13:24:00      -79.333      -62.292        3.012       64.406       42.175       33.894     4148.075     1778.731     1148.770        0.863        0.354      100.866       24.093        0.057      342.073       17.227      855.809
05/19/2014  13:25:00       50.792      -51.636       30.926       65.917       87.758       46.017     4345.108     7701.415     2117.582        1.018        0.708       72.430       44.228        0.373      342.177       17.406      855.818
05/19/2014  13:26:00       31.514       17.873       69.548       61.774       94.017       68.077     3815.999     8839.130     4634.542        1.172        0.864       36.230       60.492        2.788      341.894       16.924      855.771
05/19/2014  13:27:00       76.012     -156.618       -3.297       74.592      140.010       73.019     5563.896    19602.695     5331.820        3.040        1.525      174.089       91.638        0.277      341.815       16.787      855.751
05/19/2014  13:28:00      140.768     -141.469       -7.140       81.818       99.117       73.174     6694.221     9824.200     5354.498        3.087        1.094      199.572       73.893        0.137      341.750       16.675      855.723
05/19/2014  13:29:00       29.988      -25.921       37.878       44.121       69.724       54.344     1946.691     4861.467     2953.303        0.638        0.488       39.638       49.131        1.536      341.752       16.684      855.734
05/19/2014  13:30:00       73.985      -63.856        3.502       67.038       57.970       42.393     4494.117     3360.487     1797.207        0.961        0.483       97.732       35.481        0.132      341.271       15.869      855.721
05/19/2014  13:31:00      140.881     -189.232      -45.762       79.626       83.755       45.996     6340.248     7014.867     2115.656        3.661        0.774      235.915       31.968        0.018      341.785       16.737      855.766
05/19/2014  13:32:00       20.967     -192.619      -27.212      109.358       81.102       68.936    11959.168     6577.477     4752.174        3.078        1.164      193.756       58.221        0.090      341.915       16.956      855.767
05/19/2014  13:33:00       84.928     -143.320      -32.409       72.143       88.719       51.999     5204.594     7871.093     2703.848        2.229        0.789      166.594       35.637        0.046      341.804       16.768      855.751
05/19/2014  13:34:00      -16.399      -87.162        3.796       34.059       76.811       38.935     1160.031     5899.919     1515.932        0.823        0.429       88.691       36.579        0.170      341.790       16.746      855.752
05/19/2014  13:35:00     -152.791      -92.572       -4.882      117.654       71.652       42.985    13842.463     5134.063     1847.686        2.638        1.041      178.646       25.235        0.020      341.806       16.771      855.736
05/19/2014  13:36:00      -12.149      -55.695       27.521       41.950       66.712       30.214     1759.767     4450.467      912.899        0.556        0.356       57.005       30.876        0.293      342.162       17.378      855.746
05/19/2014  13:37:00      -49.831      -34.045       -3.982       19.762       60.274       21.939      390.527     3632.911      481.327        0.408        0.225       60.350       15.387        0.065      341.777       16.725      855.737
05/19/2014  13:38:00      -69.655       18.256      -12.411       27.509       14.926       15.526      756.730      222.793      241.058        0.328        0.061       72.008        9.457        0.017      341.747       16.674      855.702
05/19/2014  13:39:00      -68.186      -55.703      -15.092       51.599       67.798       32.857     2662.473     4596.525     1079.599        0.816        0.417       88.046       29.346        0.111      341.802       16.766      855.679
05/19/2014  13:40:00       -0.765      -53.232       14.450       30.516       41.373       25.283      931.226     1711.736      639.241        0.316        0.164       53.237       20.062        0.142      342.216       17.470      855.693
05/19/2014  13:41:00       22.508      -38.340       11.455       25.032       32.789       30.266      626.596     1075.108      916.043        0.236        0.131       44.458       19.972        0.202      342.345       17.690      855.676
05/19/2014  13:42:00      -17.097       24.437       36.240       23.105       30.961       21.914      533.849      958.562      480.234        0.209        0.099       29.825       19.185        0.414      342.484       17.926      855.661
05/19/2014  13:43:00      -24.654        2.894      -17.386       52.098       21.198       25.063     2714.238      449.373      628.130        0.235        0.190       24.823       13.376        0.290      341.900       16.935      855.653
05/19/2014  13:44:00     -130.826      -50.965        8.181       88.348       57.788       39.225     7805.284     3339.472     1538.635        1.623        0.634      140.402       39.256        0.078      342.398       17.780      855.665
05/19/2014  13:45:00     -120.301     -128.330        1.112       91.148       88.717       48.717     8307.884     7870.781     2373.349        2.474        0.928      175.900       44.082        0.063      341.927       16.979      855.669
05/19/2014  13:46:00      -67.917      -20.588       -0.519       56.205       54.557       20.707     3158.996     2976.439      428.781        0.580        0.328       70.969       17.028        0.058      342.034       17.161      855.634
05/19/2014  13:47:00     -271.881      -31.023      -14.446       86.053       49.941       42.492     7405.087     2494.055     1805.546        4.340        0.585      273.646       43.525        0.025      342.017       17.129      855.637
05/19/2014  13:48:00     -376.931      -17.918      -23.447      223.865      102.899       73.593    50115.575    10588.281     5415.863       10.452        3.306      377.357       91.528        0.059      341.991       17.085      855.592
05/19/2014  13:49:00     -318.258      -66.588        0.321      174.894      137.802       70.424    30587.823    18989.383     4959.518        8.012        2.727      325.149       73.311        0.051      342.230       17.490      855.512
05/19/2014  13:50:00     -169.138     -114.574       -2.575       67.122       81.820       35.775     4505.365     6694.553     1279.885        2.711        0.624      204.291       32.319        0.025      342.311       17.630      855.591
05/19/2014  13:51:00     -203.023     -110.985        9.666      119.126       71.596       53.525    14190.966     5125.948     2864.965        3.790        1.109      231.378       52.312        0.051      342.126       17.313      855.594
05/19/2014  13:52:00       15.379      -17.967       19.926       75.907       75.111       56.756     5761.817     5641.737     3221.198        0.779        0.731       23.650       53.244        5.068      342.287       17.590      855.585
05/19/2014  13:53:00       73.387       -5.916       32.321       41.559       36.290       38.122     1727.132     1316.937     1453.318        0.548        0.225       73.625       28.680        0.152      341.871       16.885      855.544
05/19/2014  13:54:00      -21.379      -99.246       -3.762       62.694      103.857       48.062     3930.535    10786.378     2309.963        1.367        0.851      101.523       62.652        0.381      342.393       17.770      855.559
05/19/2014  13:55:00       48.037      -63.844        2.502       67.990      100.420       43.044     4622.642    10084.121     1852.798        1.147        0.828       79.897       43.340        0.294      342.061       17.207      855.578
05/19/2014  13:56:00      -18.375      -84.704       14.338       52.135       54.773       35.653     2718.061     3000.061     1271.158        0.735        0.349       86.675       31.808        0.135      342.083       17.246      855.538
05/19/2014  13:57:00     -147.554      -90.911       -0.074       80.627       91.067       39.084     6500.708     8293.240     1527.581        2.318        0.816      173.312       32.227        0.035      342.148       17.352      855.539
05/19/2014  13:58:00      -90.560     -216.271       -2.079       89.540      141.247       56.618     8017.364    19950.664     3205.584        4.307        1.559      234.466       46.675        0.040      342.096       17.263      855.549
05/19/2014  13:59:00     -129.126     -136.541       -4.806       88.439      120.033       51.082     7821.431    14407.811     2609.337        3.008        1.242      187.928       61.593        0.107      342.296       17.604      855.522
05/19/2014  14:00:00     -262.125     -160.822       -0.676      143.064      108.884       48.599    20467.312    11855.680     2361.860        6.462        1.734      307.527       35.163        0.013      342.241       17.510      855.533
05/19/2014  14:01:00     -277.670     -121.525        2.181      144.472      138.156       71.731    20872.283    19087.072     5145.307        6.848        2.255      303.099       72.042        0.056      342.023       17.138      855.504
05/19/2014  14:02:00     -296.127     -230.559       -3.674      121.044      114.463       64.631    14651.747    13101.857     4177.176        8.639        1.597      375.298       59.866        0.025      342.049       17.183      855.489
05/19/2014  14:03:00     -257.803     -125.458        8.950      164.355      119.905       60.039    27012.671    14377.171     3604.661        6.363        2.250      286.709       77.157        0.072      342.197       17.435      855.474
05/19/2014  14:04:00     -323.253     -168.261       -6.161      151.657      137.952       65.619    22999.955    19030.748     4305.800        8.958        2.317      364.423       72.908        0.040      342.319       17.641      855.477
05/19/2014  14:05:00     -329.665     -158.376      -15.289      164.016      122.560       67.753    26901.101    15020.871     4590.449        9.024        2.326      365.735       69.625        0.036      342.163       17.375      855.449
05/19/2014  14:06:00     -197.713     -254.364       11.546      114.261      111.785       69.567    13055.465    12495.966     4839.625        6.715        1.520      322.167       54.338        0.028      342.328       17.658      855.468
05/19/2014  14:07:00      -34.531     -208.790      -10.097       84.913      108.111       56.975     7210.157    11687.984     3246.193        3.351        1.107      211.626       41.063        0.038      342.505       17.960      855.496
05/19/2014  14:08:00      -56.704      -37.049       16.615       78.765       90.937       38.094     6203.967     8269.559     1451.130        1.039        0.796       67.735       36.964        0.298      342.813       18.484      855.478
05/19/2014  14:09:00      -38.701      -48.827       12.657       72.952       60.740       51.062     5322.060     3689.296     2607.302        0.783        0.581       62.304       20.635        0.110      342.516       17.980      855.461
05/19/2014  14:10:00      -20.946      -84.598       12.108       98.309       56.551       59.339     9664.626     3198.006     3521.085        1.206        0.819       87.153       41.326        0.225      342.538       18.017      855.431
05/19/2014  14:11:00     -162.596      -92.329       -2.054      100.911      135.011       53.858    10183.116    18227.923     2900.697        3.313        1.566      186.982       79.365        0.180      342.428       17.829      855.438
05/19/2014  14:12:00     -133.167     -155.393       -2.274       95.937       80.880       44.482     9203.978     6541.510     1978.653        2.980        0.886      204.647       48.524        0.056      342.317       17.639      855.438
05/19/2014  14:13:00      -50.022     -138.209        4.312       74.321      106.950       31.206     5523.619    11438.325      973.816        1.978        0.897      146.983       30.063        0.042      342.253       17.532      855.451
05/19/2014  14:14:00     -119.666     -233.456       -4.962       89.806      198.679       49.097     8065.204    39473.317     2410.496        5.939        2.497      262.339       63.247        0.058      342.004       17.108      855.449
05/19/2014  14:15:00       98.640     -209.107        8.790      144.415      135.297       94.599    20855.566    18305.397     8949.056        5.081        2.406      231.205       75.244        0.106      342.296       17.604      855.362
05/19/2014  14:16:00      -71.019     -126.063        2.893      118.169       82.985       57.145    13963.834     6886.495     3265.517        2.253        1.206      144.692       38.821        0.072      342.369       17.728      855.357
05/19/2014  14:17:00     -112.325      -41.605       18.386       92.899       75.994       46.647     8630.252     5775.097     2175.934        1.563        0.829      119.782       41.456        0.120      342.431       17.835      855.321
05/19/2014  14:18:00     -174.106      -55.129       12.401      129.216      102.136       53.897    16696.726    10431.766     2904.935        3.176        1.502      182.626       59.033        0.104      342.514       17.974      855.321
05/19/2014  14:19:00     -233.287     -127.350       -9.444      151.324      111.299       57.012    22898.803    12387.528     3250.354        5.463        1.927      265.783       64.865        0.060      342.224       17.481      855.315
05/19/2014  14:20:00     -200.515     -136.316        9.520      161.881      130.678       66.178    26205.490    17076.649     4379.496        5.326        2.383      242.463       76.968        0.101      342.257       17.537      855.287
05/19/2014  14:21:00     -197.395     -118.233      -13.111      136.763      103.383       59.895    18704.202    10688.108     3587.368        4.304        1.649      230.095       66.682        0.084      342.207       17.452      855.274
05/19/2014  14:22:00     -180.351     -130.464        4.525      126.198      106.375       73.845    15925.897    11315.743     5453.022        4.112        1.635      222.593       71.665        0.104      342.342       17.683      855.260
05/19/2014  14:23:00     -209.097     -197.465       14.033      158.100      138.836       75.992    24995.488    19275.454     5774.784        6.647        2.502      287.600       75.558        0.069      342.265       17.551      855.240
05/19/2014  14:24:00     -242.132      -83.463        1.313      173.365      120.607       66.201    30055.530    14545.982     4382.558        5.728        2.449      256.113       77.394        0.091      342.316       17.637      855.204
05/19/2014  14:25:00     -240.152     -196.959       -8.391      144.330      129.447       77.466    20831.260    16756.446     6001.045        7.005        2.179      310.590       76.470        0.061      342.444       17.854      855.161
05/19/2014  14:26:00     -304.370     -252.922       -9.513      194.214      156.895       87.268    37718.958    24615.960     7615.745       11.331        3.498      395.741       88.788        0.050      342.130       17.321      855.156
05/19/2014  14:27:00     -249.265     -126.041        4.292      144.170      168.357       68.125    20784.972    28343.958     4641.076        6.589        2.689      279.319       77.644        0.077      342.390       17.764      855.158
05/19/2014  14:28:00      -86.882      -48.714       23.882      116.010       82.980       54.770    13458.400     6885.674     2999.741        1.691        1.167       99.607       55.066        0.306      342.525       17.994      855.154
05/19/2014  14:29:00     -201.575     -108.782        5.083      145.994       99.907       59.769    21314.111     9981.311     3572.323        4.367        1.743      229.054       71.182        0.097      342.533       18.007      855.149
05/19/2014  14:30:00     -139.790     -160.293       16.135      137.685      107.488       66.352    18957.220    11553.735     4402.595        4.020        1.746      212.685       78.386        0.136      342.519       17.984      855.144
05/19/2014  14:31:00     -189.662     -267.107       -2.438      120.750      137.745       58.574    14580.555    18973.710     3430.883        7.215        1.849      327.594       66.739        0.042      342.224       17.481      855.150
05/19/2014  14:32:00     -129.868     -168.379       -0.481      108.185       92.576       55.830    11703.908     8570.251     3117.004        3.430        1.170      212.643       50.244        0.056      342.316       17.637      855.125
05/19/2014  14:33:00     -276.846     -233.321       -3.775      179.099      106.141       71.387    32076.426    11265.901     5096.067        8.976        2.422      362.053       53.177        0.022      342.336       17.671      855.099
05/19/2014  14:34:00     -395.894     -270.104        2.924      224.816      181.508       98.335    50542.038    32945.088     9669.772       16.141        4.658      479.258      109.536        0.052      342.441       17.850      855.088
05/19/2014  14:35:00     -591.876     -270.641      -41.911      191.038      167.711       88.771    36495.552    28126.865     7880.305       24.890        3.625      650.818       80.567        0.015      342.183       17.412      855.060
05/19/2014  14:36:00     -447.226     -156.449      -14.813      214.024      182.936       95.992    45806.453    33465.759     9214.399       15.658        4.424      473.801      102.976        0.047      342.117       17.298      855.041
05/19/2014  14:37:00     -169.657     -208.220       14.971      137.662      173.029       89.013    18950.692    29938.902     7923.395        6.458        2.841      268.587       97.116        0.131      342.503       17.954      855.012
05/19/2014  14:38:00     -180.282      -69.718       20.120      128.165      110.262       61.851    16426.160    12157.780     3825.494        3.508        1.620      193.293       57.083        0.087      342.862       18.567      855.006
05/19/2014  14:39:00     -207.264      -79.491        6.595      110.157      104.275       61.809    12134.565    10873.247     3820.327        3.807        1.341      221.985       58.564        0.070      342.746       18.370      854.985
05/19/2014  14:40:00     -307.302     -123.193        2.890      176.723      161.071       80.343    31231.019    25943.773     6455.059        8.661        3.181      331.076       83.115        0.063      342.764       18.400      855.003
05/19/2014  14:41:00     -306.153     -196.083      -16.550      183.880      140.417       73.582    33811.961    19716.909     5414.280        9.569        2.947      363.563       81.535        0.050      342.500       17.952      855.005
05/19/2014  14:42:00     -307.611     -246.817       -5.409      167.585      135.011       89.427    28084.665    18227.878     7997.255       10.493        2.715      394.390       92.860        0.055      342.366       17.723      854.997
05/19/2014  14:43:00     -335.663     -188.145       -6.811      168.825      150.675       81.866    28501.878    22702.857     6702.088       10.300        2.895      384.796       88.965        0.053      342.312       17.631      855.002
05/19/2014  14:44:00     -338.347     -233.756      -17.076      164.731      131.730       69.844    27136.298    17352.890     4878.183       10.938        2.468      411.243       60.335        0.022      342.386       17.756      854.997
05/19/2014  14:45:00     -346.104     -207.540        7.555      178.616      138.029       81.934    31903.657    19051.966     6713.197       11.028        2.883      403.560       88.064        0.048      342.423       17.820      855.001
05/19/2014  14:46:00     -186.780      -75.034       18.766      130.851      111.077       69.818    17122.082    12337.995     4874.598        3.760        1.717      201.288       58.352        0.084      342.803       18.465      854.996
05/19/2014  14:47:00     -247.410     -125.785       -1.855      182.524      142.256       75.657    33315.153    20236.679     5724.002        6.814        2.964      277.549       87.967        0.100      342.741       18.361      854.991
05/19/2014  14:48:00     -394.857        9.229       -3.254      254.466      182.253       84.197    64752.772    33216.139     7089.095       13.051        5.253      394.965      101.038        0.065      342.790       18.444      854.964
05/19/2014  14:49:00     -221.797      -99.424       20.757      179.936      120.909       79.252    32377.050    14619.047     6280.919        5.638        2.664      243.062       82.014        0.114      343.129       19.021      854.997
05/19/2014  14:50:00     -414.911     -200.847       -8.232      238.200      173.141       81.787    56739.191    29977.727     6689.142       15.296        4.670      460.967       81.214        0.031      342.642       18.192      854.994
05/19/2014  14:51:00     -425.952     -160.250      -20.800      196.177      154.388       81.626    38485.281    23835.700     6662.814       13.825        3.449      455.100       88.849        0.038      342.759       18.389      854.996
05/19/2014  14:52:00     -410.741     -362.966       -6.549      246.879      193.099      107.500    60949.064    37287.239    11556.333       20.512        5.490      548.135      121.657        0.049      342.811       18.480      854.982
05/19/2014  14:53:00     -418.307     -170.879       10.574      233.344      217.163      104.879    54449.249    47159.753    10999.571       15.843        5.630      451.863      119.397        0.070      342.897       18.625      855.014
05/19/2014  14:54:00     -408.332     -222.165       -4.374      271.069      194.154      108.847    73478.147    37695.839    11847.657       16.954        6.151      464.857      103.705        0.050      342.504       17.956      855.040
05/19/2014  14:55:00     -291.137     -159.943        8.953      161.364      113.358       72.546    26038.351    12850.145     5262.865        7.728        2.208      332.178       80.441        0.059      342.660       18.222      855.039
05/19/2014  14:56:00     -489.415     -348.003      -21.942      230.877      180.682       95.874    53303.969    32645.944     9191.733       22.811        4.757      600.527      103.852        0.030      342.302       17.615      855.063
05/19/2014  14:57:00     -414.688     -222.874      -16.413      170.714      143.291       78.398    29143.111    20532.363     6146.223       13.885        2.791      470.785       63.554        0.018      342.199       17.439      855.073
05/19/2014  14:58:00     -546.203     -135.297      -39.030      229.202      200.652      106.562    52533.585    40261.105    11355.382       21.114        5.208      562.710      107.890        0.037      342.240       17.510      855.051
05/19/2014  14:59:00     -432.035     -199.402      -13.748      231.267      173.911      104.485    53484.590    30244.928    10917.209       16.061        4.732      475.831      113.567        0.057      342.243       17.513      855.073
05/19/2014  15:00:00     -205.811     -116.475       11.920      168.757      130.334       74.532    28478.907    16986.881     5554.978        5.353        2.551      236.484       74.741        0.100      342.455       17.875      855.099
05/19/2014  15:01:00     -355.843      -80.784        7.370      153.717      165.662       65.881    23628.987    27443.881     4340.349        9.430        2.771      364.898       60.922        0.028      342.422       17.817      855.105
05/19/2014  15:02:00     -260.130     -145.566        4.773      213.574      161.592       93.189    45613.833    26111.851     8684.140        8.463        4.020      298.089      110.072        0.136      342.276       17.568      855.081
05/19/2014  15:03:00     -293.994     -285.209       22.566      211.808      186.370      100.654    44862.800    34733.804    10131.286       12.899        4.486      409.605      112.631        0.076      342.258       17.539      855.068
05/19/2014  15:04:00     -354.909     -258.303      -11.270      200.620      189.134       87.182    40248.269    35771.647     7600.739       13.820        4.181      438.954       86.876        0.039      342.217       17.468      855.079
05/19/2014  15:05:00     -395.615     -256.293      -11.179      242.244      156.911      102.544    58682.194    24620.950    10515.311       15.805        4.691      471.378      101.455        0.046      342.205       17.448      855.060
05/19/2014  15:06:00     -280.503     -171.307       -0.911      199.452      126.030       88.326    39781.011    15883.630     7801.440        8.573        3.173      328.676       83.142        0.064      342.316       17.638      855.087
05/19/2014  15:07:00     -306.714     -178.732        5.031      170.329      145.363       70.543    29012.090    21130.345     4976.322        9.057        2.756      354.991       67.968        0.037      342.445       17.857      855.107
05/19/2014  15:08:00     -463.696     -229.125       -4.225      264.283      170.497       95.319    69845.558    29069.178     9085.770       18.774        5.400      517.216      123.190        0.057      342.108       17.283      855.083
05/19/2014  15:09:00     -527.576     -246.952      -22.872      290.498      159.979       88.756    84388.988    25593.414     7877.559       22.883        5.893      582.513       86.441        0.022      342.112       17.290      855.083
05/19/2014  15:10:00     -298.308     -207.324        3.861      180.636      117.581       73.156    32629.514    13825.216     5351.770        9.189        2.590      363.278       58.026        0.026      342.257       17.538      855.100
05/19/2014  15:11:00     -457.673     -302.844       -9.180      235.667      184.811       94.345    55539.051    34155.082     8901.073       19.991        4.930      548.798      104.926        0.037      342.025       17.144      855.081
05/19/2014  15:12:00     -354.722     -234.655       -0.377      155.901      147.437       85.155    24305.185    21737.779     7251.398       11.708        2.665      425.313       90.321        0.045      342.018       17.133      855.105
05/19/2014  15:13:00     -354.269     -202.318      -19.438      191.638      124.687       82.314    36725.054    15546.789     6775.529       11.292        2.952      407.969       89.248        0.048      342.246       17.519      855.087
05/19/2014  15:14:00     -295.920     -220.988        6.695      253.483      191.524      110.418    64253.672    36681.453    12192.215       12.477        5.656      369.330      144.546        0.153      342.472       17.903      855.056
05/19/2014  15:15:00     -388.822     -122.822       10.507      275.434      211.285      105.738    75863.758    44641.306    11180.565       14.901        6.584      407.760      133.626        0.107      342.326       17.655      855.062
05/19/2014  15:16:00     -331.520     -190.331       14.299      219.968      157.124       82.207    48386.007    24688.088     6758.034       11.307        3.992      382.271       98.961        0.067      342.361       17.712      855.107
05/19/2014  15:17:00     -220.384     -150.238      -10.151      123.532      108.426       66.841    15260.225    11756.295     4467.766        5.136        1.574      266.722       48.165        0.033      342.379       17.745      855.108
05/19/2014  15:18:00     -129.936     -190.048       12.337      119.521      150.244       58.789    14285.265    22573.135     3456.183        4.673        2.016      230.221       71.717        0.097      342.436       17.842      855.108
05/19/2014  15:19:00     -254.270     -303.480       -2.852      168.506      139.319       66.310    28394.155    19409.860     4397.047       10.447        2.610      395.920       76.376        0.037      342.164       17.380      855.115
05/19/2014  15:20:00     -451.605      -25.383      -15.025      229.873      144.599       85.442    52841.757    20908.939     7300.313       14.292        4.053      452.318      102.558        0.051      342.307       17.622      855.086
05/19/2014  15:21:00     -510.684     -172.467      -18.997      237.350      198.856      100.248    56335.159    39543.657    10049.659       19.839        5.296      539.020      113.353        0.044      342.124       17.311      855.074
05/19/2014  15:22:00     -121.346      -51.637       13.763      143.202       99.366       62.282    20506.676     9873.580     3879.050        2.591        1.713      131.876       74.054        0.315      342.492       17.939      855.081
05/19/2014  15:23:00     -200.732      -57.092       -1.043      152.410      103.416       60.404    23228.952    10694.964     3648.626        4.056        1.879      208.693       58.531        0.079      342.569       18.068      855.019
05/19/2014  15:24:00     -413.866      -37.858        4.586      221.880      114.375       84.848    49230.801    13081.647     7199.132       12.111        3.476      415.594      102.422        0.061      342.561       18.055      854.987
05/19/2014  15:25:00     -305.813     -148.891      -15.745      165.205      163.884       74.164    27292.770    26858.107     5500.356        8.778        2.983      340.133       72.796        0.046      342.826       18.504      855.019
05/19/2014  15:26:00     -518.467     -400.669      -25.068      268.744      196.506       96.940    72223.582    38614.419     9397.402       27.508        6.012      655.243       98.159        0.022      342.233       17.496      854.976
05/19/2014  15:27:00     -558.941     -325.159      -31.187      282.641      199.214      108.106    79886.173    39686.242    11686.800       27.516        6.563      646.640      126.841        0.038      342.059       17.200      854.988
05/19/2014  15:28:00     -577.266     -364.596      -26.730      271.922      206.862      117.581    73941.651    42792.004    13825.182       29.869        6.528      682.763      129.398        0.036      341.942       17.002      854.977
05/19/2014  15:29:00     -570.395     -337.586        2.720      227.647      217.168      120.997    51823.378    47161.825    14640.223       27.645        5.681      662.809      116.686        0.031      341.945       17.007      854.933
05/19/2014  15:30:00     -448.143     -267.052      -15.976      215.847      192.462       96.987    46589.930    37041.570     9406.497       18.270        4.652      521.679       85.745        0.027      342.030       17.150      854.954
05/19/2014  15:31:00     -333.499     -138.383       -6.057      138.529      160.499       78.956    19190.338    25760.076     6234.125        9.079        2.559      361.070       68.178        0.036      342.198       17.437      854.971
05/19/2014  15:32:00     -344.022     -190.653      -13.366      145.375      135.128       74.363    21133.782    18259.709     5529.800        9.989        2.246      393.318       69.488        0.031      342.066       17.211      854.956
05/19/2014  15:33:00     -314.312     -173.530       -9.961      129.378      127.759       71.523    16738.735    16322.323     5115.528        8.358        1.909      359.033       50.750        0.020      342.225       17.484      854.939
05/19/2014  15:34:00     -306.521     -280.863       -1.174      220.169      185.586      103.046    48474.317    34442.272    10618.566       13.317        4.677      415.739      118.411        0.081      342.215       17.466      854.928
05/19/2014  15:35:00     -454.481     -293.474      -20.985      245.791      160.882       90.314    60413.224    25882.912     8156.650       19.377        4.723      540.999      112.937        0.044      342.234       17.498      854.898
05/19/2014  15:36:00     -368.772     -267.685        0.433      190.040      125.982       82.772    36115.346    15871.523     6851.233       13.323        2.942      455.684       81.511        0.032      342.376       17.740      854.885
05/19/2014  15:37:00     -109.692     -171.619        8.352      153.813      129.234       60.182    23658.492    16701.482     3621.864        4.276        2.199      203.680       66.950        0.108      342.714       18.314      854.900
05/19/2014  15:38:00     -157.701     -231.122       17.498      146.288      119.071       72.022    21400.166    14177.995     5187.190        5.967        2.038      279.798       70.997        0.064      342.744       18.366      854.890
05/19/2014  15:39:00     -441.192     -204.948       -3.705      223.836      194.087      103.147    50102.338    37669.792    10639.398       16.752        4.921      486.471      113.108        0.054      342.344       17.684      854.870
05/19/2014  15:40:00     -452.768      -34.168        3.553      241.634      142.686       94.203    58386.769    20359.408     8874.241       14.688        4.381      454.056      112.275        0.061      342.482       17.920      854.852
05/19/2014  15:41:00     -421.809      -86.784      -15.201      188.098      179.949       77.652    35381.020    32381.633     6029.906       12.972        3.690      430.644       70.899        0.027      342.476       17.910      854.847
05/19/2014  15:42:00     -499.168     -280.770       14.552      257.057      240.484      119.950    66078.270    57832.467    14388.002       23.323        6.915      572.713      127.306        0.049      342.277       17.570      854.825
05/19/2014  15:43:00     -557.967     -346.108      -13.323      255.106      167.405       95.796    65078.909    28024.582     9176.804       26.677        5.114      656.596      104.011        0.025      342.235       17.499      854.829
05/19/2014  15:44:00     -505.316     -247.654      -18.959      232.983      180.372      108.219    54281.114    32534.062    11711.377       20.776        4.926      562.740      105.388        0.035      342.233       17.495      854.829
05/19/2014  15:45:00     -328.347     -204.228       -8.528      212.839      174.281       93.713    45300.490    30373.854     8782.180       11.701        4.223      386.679      109.164        0.080      342.475       17.908      854.825
05/19/2014  15:46:00     -496.793     -363.540       -8.139      194.450      189.109      107.208    37810.777    35762.332    11493.510       23.203        4.253      615.601       95.091        0.024      342.356       17.705      854.856
05/19/2014  15:47:00     -419.134     -230.122       19.212      296.269      195.775      111.528    87775.102    38327.824    12438.573       18.374        6.927      478.152      135.422        0.080      342.392       17.767      854.873
05/19/2014  15:48:00     -327.354     -254.228        9.861      217.618      185.747       98.778    47357.604    34502.025     9757.013       13.173        4.581      414.479      103.403        0.062      342.341       17.680      854.885
05/19/2014  15:49:00     -361.663     -173.201      -12.765      220.467      207.956       94.572    48605.842    43245.692     8943.865       13.086        5.040      400.997       94.465        0.055      342.451       17.866      854.901
05/19/2014  15:50:00     -333.638      -35.599      -17.166      219.773      204.561       98.646    48300.030    41845.401     9731.077       10.636        4.994      335.532      103.522        0.095      342.594       18.110      854.880
05/19/2014  15:51:00     -377.727      -78.889      -10.268      195.259      165.499       97.485    38126.243    27389.994     9503.355       11.200        3.751      385.877      106.408        0.076      342.604       18.126      854.840
05/19/2014  15:52:00     -129.984     -268.684        2.767      156.862      134.341       67.183    24605.743    18047.491     4513.578        6.812        2.358      298.474       58.394        0.038      342.224       17.480      854.841
05/19/2014  15:53:00     -332.334     -186.737      -26.029      218.705      167.471       82.644    47831.771    28046.534     6830.086       11.433        4.135      381.204      107.804        0.080      342.538       18.015      854.852
05/19/2014  15:54:00     -445.191      -84.135       -4.885      188.065      103.218       70.055    35368.373    10654.034     4907.746       12.810        2.547      453.071       73.947        0.027      342.654       18.211      854.839
05/19/2014  15:55:00     -469.007     -215.479        9.135      210.886      179.119      100.311    44472.872    32083.579    10062.321       17.653        4.331      516.138      107.407        0.043      342.584       18.093      854.865
05/19/2014  15:56:00     -327.642      -80.158       -1.548      254.099      194.607      103.250    64566.170    37871.951    10660.475       11.342        5.655      337.304      112.691        0.112      342.349       17.693      854.870
05/19/2014  15:57:00     -460.176     -220.103      -27.110      211.362      253.905       91.939    44673.868    64467.963     8452.827       18.924        5.880      510.105      108.172        0.045      342.342       17.681      854.922
05/19/2014  15:58:00     -267.432      -91.465       -4.184      123.539      130.306       73.005    15261.847    16979.567     5329.731        5.873        1.879      282.641       61.033        0.047      342.315       17.635      854.960
05/19/2014  15:59:00     -214.608     -114.227        7.983      153.785      144.425       72.930    23649.811    20858.629     5318.745        5.449        2.491      243.114       61.231        0.063      342.190       17.423      854.924
05/19/2014  16:00:00     -301.630      -67.211      -11.963      196.245      202.512       77.706    38511.992    41011.279     6038.250        9.058        4.278      309.027       92.285        0.089      342.113       17.292      854.922
05/19/2014  16:01:00     -446.085      -18.480      -31.324      261.609      212.103       82.081    68439.033    44987.599     6737.320       16.022        6.008      446.468       72.697        0.027      342.260       17.542      854.883
05/19/2014  16:02:00     -505.776     -189.198       -9.383      241.909      190.744      101.103    58520.048    36383.451    10221.797       19.839        5.256      540.005      103.043        0.036      342.441       17.852      854.833
05/19/2014  16:03:00     -525.371     -147.667      -16.259      299.590      227.677      104.159    89754.116    51836.670    10849.200       22.523        7.622      545.729      129.264        0.056      342.139       17.337      854.896
05/19/2014  16:04:00     -420.945     -186.787       -3.342      239.220      192.021      103.442    57226.397    36872.039    10700.333       15.843        5.240      460.526      118.276        0.066      342.192       17.426      854.907
05/19/2014  16:05:00     -526.489     -120.448      -22.308      181.915      158.171       86.740    33093.244    25018.003     7523.778       17.890        3.282      540.091       85.612        0.025      341.868       16.876      854.923
05/19/2014  16:06:00     -347.268     -101.599      -20.156      165.115      160.518       67.018    27262.840    25766.011     4491.451        9.441        2.876      361.825       64.517        0.032      341.972       17.053      854.898
05/19/2014  16:07:00     -258.526     -201.727       -2.449      169.504      137.184       80.066    28731.761    18819.438     6410.577        8.074        2.698      327.917       94.407        0.083      342.250       17.525      854.880
05/19/2014  16:08:00     -276.069     -220.594        1.833      190.998      168.633      107.814    36480.260    28436.986    11623.768       10.069        3.827      353.378      112.852        0.102      342.216       17.468      854.859
05/19/2014  16:09:00     -347.257     -156.413       -6.372      260.403      134.114       92.356    67809.486    17986.502     8529.699       11.969        4.716      380.857       96.820        0.065      342.254       17.532      854.888
05/19/2014  16:10:00     -358.032     -114.110       -0.205      222.919      159.373       89.495    49692.948    25399.767     8009.436       11.214        4.155      375.776      106.193        0.080      342.016       17.128      854.885
05/19/2014  16:11:00     -425.074     -114.305      -21.893      164.851      140.333       80.871    27175.774    19693.299     6540.046       12.381        2.670      440.175       83.446        0.036      342.207       17.451      854.902
05/19/2014  16:12:00     -463.356      -90.717      -16.184      245.061      145.414      100.152    60054.890    21145.105    10030.512       15.719        4.562      472.153      125.896        0.071      342.035       17.162      854.904
05/19/2014  16:13:00     -305.409     -235.835        9.348      180.245      149.372       78.795    32488.301    22312.026     6208.698       10.498        3.050      385.867       87.671        0.052      342.031       17.153      854.908
05/19/2014  16:14:00     -252.414     -106.707       -0.096      173.335      131.825       71.863    30045.074    17377.888     5164.249        6.383        2.629      274.042       73.059        0.071      342.173       17.395      854.902
05/19/2014  16:15:00     -386.078     -127.170       -7.127      220.728      151.905       85.818    48721.058    23075.086     7364.728       12.220        3.958      406.483       93.910        0.053      342.088       17.250      854.926
05/19/2014  16:16:00     -436.004     -160.385      -15.764      279.246      182.985       93.781    77978.153    33483.503     8794.940       16.814        6.013      464.567      111.420        0.058      341.915       16.955      854.976
05/19/2014  16:17:00     -509.843     -336.243      -30.151      310.923      248.731      138.332    96673.271    61867.301    19135.712       27.576        8.884      610.737      157.397        0.066      341.689       16.573      854.903
05/19/2014  16:18:00     -655.982     -303.767       -9.832      399.072      284.682      137.888   159258.338    81044.037    19013.063       39.095       12.966      722.902      164.010        0.051      341.508       16.266      854.902
05/19/2014  16:19:00     -651.578     -347.839      -32.599      361.992      302.615      146.460   131038.089    91575.856    21450.611       39.529       12.203      738.611      166.049        0.051      341.243       15.816      855.018
05/19/2014  16:20:00     -374.914      -85.274        0.892      246.516      165.048       97.786    60770.183    27240.696     9562.113       12.268        4.879      384.490      106.918        0.077      341.454       16.174      855.040
05/19/2014  16:21:00     -388.690     -118.905        4.276      259.408      199.831      106.598    67292.665    39932.390    11363.098       14.189        5.929      406.470      130.498        0.103      341.400       16.083      854.994
05/19/2014  16:22:00     -407.874     -165.644       -6.991      233.863      174.200      104.424    54691.777    30345.800    10904.432       14.488        4.797      440.226      112.541        0.065      341.530       16.303      855.030
05/19/2014  16:23:00     -748.318     -241.131      -14.268      248.264      207.443       94.998    61634.856    43032.407     9024.692       36.599        5.685      786.209      106.342        0.018      341.301       15.915      854.973
05/19/2014  16:24:00     -237.907     -178.979        4.645      234.421      112.775       85.380    54953.316    12718.206     7289.781        8.179        3.748      297.713      105.439        0.125      341.379       16.048      855.038
05/19/2014  16:25:00     -212.304     -100.281       -7.320      110.104       90.458       47.005    12122.851     8182.618     2209.464        3.884        1.126      234.797       39.779        0.029      341.549       16.335      854.988
05/19/2014  16:26:00     -158.244     -151.666       18.223      121.639      114.299       67.406    14795.929    13064.360     4543.545        4.038        1.620      219.188       70.995        0.105      341.814       16.784      854.945
05/19/2014  16:27:00     -244.339       -8.355       -8.328       88.341       75.935       41.929     7804.138     5766.066     1758.075        3.758        0.766      244.482       38.429        0.025      341.752       16.678      854.942
05/19/2014  16:28:00     -249.347       10.062      -18.490       64.818       58.100       36.136     4201.346     3375.555     1305.812        3.575        0.444      249.550       29.884        0.014      341.737       16.653      854.934
05/19/2014  16:29:00     -138.420      -58.333       -5.781       99.684       92.575       31.810     9936.913     8570.180     1011.869        2.105        0.976      150.209       36.803        0.060      341.852       16.849      854.921
05/19/2014  16:30:00     -247.098      -97.244      -31.236       83.745       74.298       37.434     7013.170     5520.239     1401.296        4.271        0.697      265.544       34.275        0.017      341.831       16.814      854.909
05/19/2014  16:31:00     -119.707      -10.610       -9.307       55.877       45.954       31.881     3122.290     2111.803     1016.368        1.039        0.313      120.176       28.065        0.055      341.956       17.029      854.898
05/19/2014  16:32:00      -47.743      -16.646        3.280       62.599       65.723       34.289     3918.577     4319.471     1175.728        0.599        0.471       50.562       30.302        0.359      341.983       17.074      854.876
05/19/2014  16:33:00     -215.157     -133.983       12.095      134.170      120.504       63.696    18001.458    14521.122     4057.142        5.048        1.829      253.464       60.201        0.056      341.842       16.833      854.888
05/19/2014  16:34:00     -367.443     -230.905       -4.527      155.138      105.479       71.187    24067.881    11125.918     5067.597       11.430        2.013      433.972       80.754        0.035      341.682       16.560      854.889
05/19/2014  16:35:00     -398.138      -11.758      -24.513       91.167      125.433       60.928     8311.344    15733.477     3712.208        9.350        1.388      398.312       40.216        0.010      341.615       16.447      854.899
05/19/2014  16:36:00     -315.626      -88.649      -26.184      136.650       76.340       47.521    18673.182     5827.766     2258.246        6.746        1.338      327.839       53.202        0.026      341.734       16.650      854.883
05/19/2014  16:37:00     -290.040     -160.121      -13.011      140.264      121.602       61.574    19674.026    14786.993     3791.314        7.408        1.913      331.303       72.110        0.047      341.878       16.893      854.917
05/19/2014  16:38:00     -115.506      -33.725       29.275      124.072      101.712       56.637    15393.935    10345.425     3207.722        2.214        1.447      120.328       63.200        0.276      342.324       17.654      854.892
05/19/2014  16:39:00     -154.361     -138.759       14.645      129.200      118.169       60.293    16692.528    13963.886     3635.283        3.879        1.715      207.560       54.127        0.068      342.244       17.516      854.906
05/19/2014  16:40:00     -301.003     -108.028       11.188      199.090      153.075       74.596    39636.712    23432.092     5564.517        8.550        3.432      319.801       90.898        0.081      342.418       17.811      854.853
05/19/2014  16:41:00     -251.211      -86.397        6.305      107.631       98.288       60.027    11584.421     9660.569     3603.220        4.772        1.242      265.653       60.665        0.052      342.580       18.085      854.861
05/19/2014  16:42:00     -319.242     -164.288       -7.869      212.077      154.393       85.638    44976.604    23837.140     7333.850       10.254        3.807      359.035      105.894        0.087      342.533       18.005      854.865
05/19/2014  16:43:00     -450.490     -146.135       -4.766      183.591      165.443       74.973    33705.609    27371.533     5620.885       14.550        3.335      473.599       87.489        0.034      342.181       17.409      854.854
05/19/2014  16:44:00     -247.943     -242.598       -3.107      163.156      193.487       74.284    26619.996    37437.059     5518.128        9.494        3.479      346.885       72.655        0.044      342.334       17.667      854.875
05/19/2014  16:45:00     -367.665     -191.948      -10.673      197.810      193.168       89.811    39128.785    37313.852     8065.998       12.831        4.225      414.754       91.953        0.049      342.163       17.379      854.853
05/19/2014  16:46:00     -184.198     -109.458       24.429      125.599      120.087       66.753    15775.118    14420.797     4456.022        4.057        1.733      214.267       68.906        0.103      342.458       17.879      854.863
05/19/2014  16:47:00      -94.707      -73.778       27.887      105.004       57.157       50.354    11025.934     3266.970     2535.537        1.601        0.841      120.053       53.930        0.202      342.733       18.350      854.845
05/19/2014  16:48:00     -276.745      -87.956       10.689      174.970      116.693       63.035    30614.581    13617.371     3973.431        6.631        2.410      290.386       68.254        0.055      342.523       17.989      854.855
05/19/2014  16:49:00     -491.345     -203.937      -20.796      165.997      166.733       88.309    27554.939    27799.762     7798.462       17.329        3.158      531.987       87.114        0.027      342.228       17.489      854.860
05/19/2014  16:50:00     -298.526     -206.136        1.066      172.290      127.836       82.437    29683.943    16342.123     6795.778        9.221        2.641      362.781       82.635        0.052      342.122       17.308      854.876
05/19/2014  16:51:00     -295.830     -138.666       12.841      185.053      147.614       70.522    34244.447    21789.976     4973.300        8.395        3.050      326.716       90.481        0.077      341.952       17.019      854.844
05/19/2014  16:52:00     -136.211     -388.187       12.072      172.055      180.744       96.248    29602.839    32668.453     9263.760       12.045        3.577      411.391       68.650        0.028      342.253       17.530      854.866
05/19/2014  16:53:00     -136.034     -200.061       22.654      143.686      105.516       65.154    20645.574    11133.644     4245.096        4.753        1.801      241.929       61.091        0.064      342.343       17.683      854.892
05/19/2014  16:54:00     -278.925     -201.993       -9.884      120.820      104.349       62.723    14597.550    10888.631     3934.142        7.405        1.471      344.384       67.930        0.039      342.026       17.145      854.843
05/19/2014  16:55:00     -243.592     -167.680       15.185      198.916      132.453       82.510    39567.406    17543.726     6807.829        7.579        3.196      295.726       85.097        0.083      342.295       17.601      854.833
05/19/2014  16:56:00     -590.646     -362.553      -35.120      206.265      188.354      102.364    42545.427    35477.051    10478.421       28.500        4.425      693.042      105.780        0.023      342.007       17.111      854.828
05/19/2014  16:57:00     -351.866     -254.413       -3.962      190.820      163.049       87.268    36412.104    26584.967     7615.633       12.957        3.531      434.207       95.528        0.048      342.128       17.318      854.851
05/19/2014  16:58:00     -222.284     -116.448       31.883      183.549      145.232       78.503    33690.287    21092.235     6162.741        6.245        3.047      250.938       76.347        0.093      342.270       17.559      854.837
05/19/2014  16:59:00     -381.909     -156.984      -18.320      138.262      186.777       77.994    19116.505    34885.572     6083.026       11.545        3.004      412.914       61.956        0.023      342.093       17.259      854.830
05/19/2014  17:00:00     -250.568      -90.712       13.194      164.696      154.084       81.781    27124.733    23742.026     6688.096        6.436        2.878      266.482       85.887        0.104      342.217       17.470      854.804
05/19/2014  17:01:00     -348.465      -79.594        3.653      160.368      131.924       87.847    25717.891    17403.814     7717.038        8.930        2.542      357.439       96.940        0.074      342.237       17.504      854.781
05/19/2014  17:02:00     -137.344        0.060       -4.578      130.768       97.945       47.853    17100.361     9593.282     2289.906        2.393        1.449      137.344       48.329        0.124      342.599       18.119      854.759
05/19/2014  17:03:00     -266.366     -143.598       -0.936      133.577      173.551       78.011    17842.804    30119.916     6085.715        7.280        2.702      302.608       79.524        0.069      342.418       17.811      854.787
05/19/2014  17:04:00     -381.783     -167.855      -10.702      187.348      151.059       85.387    35099.374    22818.751     7290.995       11.962        3.260      417.054       87.328        0.044      342.085       17.246      854.783
05/19/2014  17:05:00     -450.113     -173.038      -28.499      200.901      149.543       77.438    40361.391    22363.048     5996.587       15.102        3.436      482.227       68.223        0.020      342.094       17.261      854.785
05/19/2014  17:06:00     -123.231      -74.441       10.637      121.375      103.230       58.152    14731.984    10656.394     3381.617        2.480        1.438      143.970       57.841        0.161      342.226       17.486      854.771
05/19/2014  17:07:00     -230.978     -108.490        7.759      153.007      130.973       62.720    23411.087    17153.964     3933.752        5.483        2.225      255.188       69.435        0.074      342.491       17.935      854.771
05/19/2014  17:08:00     -192.787      -96.366        6.867      156.293      137.150       66.004    24427.472    18810.258     4356.524        4.704        2.380      215.530       66.046        0.094      342.578       18.085      854.773
05/19/2014  17:09:00     -293.028     -172.624      -14.421      165.788      132.551       77.972    27485.700    17569.685     6079.677        8.349        2.557      340.095       81.987        0.058      342.502       17.954      854.758
05/19/2014  17:10:00     -335.296     -116.081      -20.516      200.494      155.209       84.002    40197.916    24089.862     7056.419        9.882        3.567      354.821       83.929        0.056      342.251       17.526      854.736
05/19/2014  17:11:00     -292.539     -110.568        4.768      201.572      141.770       88.827    40631.465    20098.813     7890.248        8.321        3.431      312.737       98.701        0.100      342.548       18.030      854.752
05/19/2014  17:12:00     -173.302     -115.592       17.599      199.805      172.218       96.812    39921.938    29658.900     9372.645        6.131        3.948      208.315      122.202        0.344      342.640       18.191      854.753
05/19/2014  17:13:00     -453.092     -171.294        0.922      223.931      174.709       89.492    50145.131    30523.401     8008.770       16.164        4.434      484.390      108.570        0.050      342.185       17.415      854.723
05/19/2014  17:14:00     -423.226     -294.507      -10.411      185.325      153.685       82.959    34345.416    23618.969     6882.266       16.539        3.242      515.611       93.404        0.033      341.982       17.070      854.727
05/19/2014  17:15:00     -293.630     -281.945       -1.461      175.896      144.554       83.453    30939.569    20895.866     6964.325       11.224        2.940      407.077       70.856        0.030      341.981       17.067      854.727
05/19/2014  17:16:00     -152.384     -133.166       18.457      165.750      128.533       82.356    27473.065    16520.743     6782.576        4.603        2.539      202.371       79.874        0.156      342.272       17.563      854.688
05/19/2014  17:17:00     -246.466     -143.466        1.493      152.386      127.511       74.748    23221.376    16258.964     5587.213        6.319        2.253      285.180       80.995        0.081      342.318       17.640      854.689
05/19/2014  17:18:00     -218.353     -241.510        0.733      159.313      216.741       79.191    25380.583    46976.478     6271.170        9.230        3.931      325.584       91.836        0.080      342.285       17.585      854.663
05/19/2014  17:19:00     -543.868     -301.997       -6.903      202.464      173.348      105.248    40991.759    30049.569    11077.237       23.456        4.106      622.089      109.263        0.031      342.043       17.174      854.677
05/19/2014  17:20:00     -513.897     -159.815       -9.315      227.389      218.234      105.919    51705.905    47626.089    11218.864       20.011        5.528      538.174      106.972        0.040      342.093       17.257      854.651
05/19/2014  17:21:00     -455.140     -265.195      -17.456      209.182      183.539      100.131    43757.175    33686.520    10026.279       18.261        4.373      526.764       82.970        0.025      342.068       17.215      854.657
05/19/2014  17:22:00     -343.856     -299.050      -14.930      197.144      195.561       91.723    38865.620    38244.040     8413.115       14.669        4.276      455.706       94.075        0.043      342.071       17.220      854.663
05/19/2014  17:23:00     -208.892     -174.812      -18.853      150.385      131.708       61.509    22615.556    17347.123     3783.415        5.914        2.187      272.388       66.822        0.060      342.219       17.473      854.646
05/19/2014  17:24:00     -390.002     -286.065        0.724      264.558      179.205       96.612    69990.759    32114.366     9333.891       17.266        5.572      483.667      110.484        0.052      342.005       17.108      854.599
05/19/2014  17:25:00     -496.626     -276.173      -19.728      216.093      150.074       86.035    46696.393    22522.189     7401.993       19.994        3.831      568.251       87.943        0.024      342.058       17.198      854.582
05/19/2014  17:26:00     -419.712     -215.425      -19.582      198.134      130.816       93.063    39257.047    17112.844     8660.654       14.398        3.252      471.769       99.904        0.045      342.181       17.407      854.597
05/19/2014  17:27:00     -306.805     -127.535       10.969      169.714      152.500       82.576    28802.921    23256.202     6818.839        8.468        2.944      332.257       92.930        0.078      342.366       17.723      854.650
05/19/2014  17:28:00     -372.576     -254.216       -8.463      257.897      167.931      102.034    66511.026    28200.699    10410.991       15.430        5.256      451.042      123.124        0.075      341.926       16.976      854.618
05/19/2014  17:29:00     -318.988     -102.233      -14.821      234.200      172.613       82.133    54849.439    29795.267     6745.900       10.189        4.570      334.971       91.682        0.075      342.188       17.420      854.628
05/19/2014  17:30:00     -287.286     -166.908       -5.562      206.222      173.989      100.121    42527.438    30272.285    10024.257        9.661        4.141      332.252      117.886        0.126      342.136       17.332      854.619
05/19/2014  17:31:00     -197.875     -142.536       12.122      180.723      142.095       96.697    32660.721    20190.854     9350.316        6.090        3.110      243.867      100.336        0.169      342.214       17.464      854.656
05/19/2014  17:32:00     -371.614      -62.575      -25.603      149.698      126.632       68.095    22409.459    16035.612     4636.948        9.287        2.154      376.845       54.218        0.021      342.012       17.122      854.657
05/19/2014  17:33:00     -233.388      -67.465        5.725      143.262      114.211       61.379    20524.063    13044.252     3767.336        4.819        1.867      242.944       63.770        0.069      342.179       17.405      854.637
05/19/2014  17:34:00     -211.631     -226.442        5.782      160.144      178.760       88.649    25646.121    31955.265     7858.719        8.077        3.273      309.941      107.894        0.121      342.160       17.372      854.641
05/19/2014  17:35:00     -190.705     -160.271       10.297      117.496      130.681       70.709    13805.223    17077.458     4999.701        4.901        1.794      249.109       62.985        0.064      342.318       17.642      854.625
05/19/2014  17:36:00     -396.610     -273.140        2.691      219.211      174.224       95.425    48053.478    30354.158     9105.912       15.970        4.376      481.565      113.232        0.055      341.983       17.071      854.621
05/19/2014  17:37:00     -276.647     -290.677        1.897      196.704      234.468      106.823    38692.623    54975.335    11411.191       13.303        5.254      401.282      116.232        0.084      341.981       17.068      854.602
05/19/2014  17:38:00     -294.365     -305.615        0.424      173.854      145.141       70.665    30225.063    21065.937     4993.543       11.816        2.814      424.325       74.204        0.031      342.000       17.100      854.608
05/19/2014  17:39:00     -451.259     -323.898      -15.912      149.583      134.644       88.009    22375.219    18129.000     7745.497       17.851        2.412      555.468       88.072        0.025      341.845       16.836      854.600
05/19/2014  17:40:00     -221.297      -83.864       10.216      150.419      118.784       69.065    22625.883    14109.648     4769.963        4.880        2.075      236.655       80.725        0.116      342.097       17.266      854.603
05/19/2014  17:41:00     -376.264     -134.921      -18.869      283.536      157.669       77.030    80392.777    24859.482     5933.656       13.564        5.559      399.723       93.207        0.054      342.163       17.377      854.607
05/19/2014  17:42:00     -432.570      -99.909      -26.273      267.947      154.684       77.553    71795.361    23927.220     6014.478       14.974        5.087      443.958      100.420        0.051      341.920       16.964      854.605
05/19/2014  17:43:00     -505.427      -43.736      -33.586      174.138      149.396       91.398    30324.043    22319.020     8353.632       15.973        3.050      507.316       90.380        0.032      342.031       17.153      854.582
05/19/2014  17:44:00     -398.015      -60.808      -23.960      217.482      151.543       86.597    47298.509    22965.152     7499.071       12.021        3.888      402.634      104.683        0.068      342.088       17.249      854.568
05/19/2014  17:45:00     -408.902      -90.481      -29.055      235.433      157.774       89.264    55428.471    24892.510     7968.117       13.224        4.414      418.794       92.665        0.049      342.079       17.235      854.583
05/19/2014  17:46:00     -469.635     -200.909      -14.315      176.387      119.997       82.255    31112.266    14399.202     6765.850       15.669        2.614      510.805       81.267        0.025      342.063       17.207      854.547
05/19/2014  17:47:00     -425.634     -225.076      -12.450      224.196      142.201       76.374    50263.820    20221.087     5832.984       15.413        3.816      481.481       95.786        0.040      342.021       17.136      854.574
05/19/2014  17:48:00     -436.866      -75.131      -29.834      130.362      141.819       75.250    16994.367    20112.540     5662.517       12.007        2.138      443.279       70.746        0.025      342.035       17.159      854.582
05/19/2014  17:49:00     -346.738      -14.081      -14.919      125.190      144.820       61.038    15672.660    20972.746     3725.657        8.050        2.019      347.023       49.256        0.020      342.210       17.457      854.593
05/19/2014  17:50:00     -366.527     -150.108       -6.111      288.965      162.590       88.067    83500.961    26435.508     7755.775       13.728        5.885      396.073      113.672        0.082      342.225       17.482      854.595
05/19/2014  17:51:00     -389.707      -86.183       -8.508      184.495      171.303       77.054    34038.334    29344.848     5937.372       11.433        3.466      399.122       80.977        0.041      342.103       17.275      854.595
05/19/2014  17:52:00     -489.105      -59.270      -30.584      227.610      169.394       95.354    51806.360    28694.298     9092.470       16.661        4.480      492.683      107.478        0.048      342.061       17.204      854.569
05/19/2014  17:53:00     -401.340     -264.818      -29.557      221.285      216.847       87.507    48967.126    47022.423     7657.558       16.784        5.182      480.835      110.359        0.053      342.121       17.305      854.558
05/19/2014  17:54:00     -347.294     -289.620        1.465      287.202      181.297      127.464    82485.109    32868.488    16247.022       16.802        6.580      452.208      148.139        0.107      342.005       17.108      854.559
05/19/2014  17:55:00     -234.278     -149.250        0.716      204.483      161.357      103.365    41813.490    26035.925    10684.312        7.783        3.927      277.779      109.889        0.156      342.001       17.101      854.566
05/19/2014  17:56:00     -417.172     -138.805      -20.205      208.436      207.340      101.549    43445.654    42989.900    10312.242       14.521        4.837      439.658       90.019        0.042      342.018       17.129      854.551
05/19/2014  17:57:00     -381.125     -233.281       -2.629      212.409      159.828       88.654    45117.690    25545.121     7859.524       13.909        3.926      446.852      104.567        0.055      341.912       16.951      854.523
05/19/2014  17:58:00     -359.167     -186.127       -7.707      181.614      151.753       83.906    32983.641    23028.968     7040.181       11.337        3.153      404.529       94.949        0.055      342.117       17.300      854.517
05/19/2014  17:59:00     -312.081     -101.970       13.576      189.181      166.769       97.713    35789.345    27811.744     9547.758        9.055        3.657      328.318      105.723        0.104      342.294       17.599      854.555
05/19/2014  18:00:00     -341.717      -72.284        1.151      258.428      149.282       86.474    66785.154    22284.989     7477.748       10.925        4.827      349.278      109.390        0.098      342.078       17.234      854.569
05/19/2014  18:01:00     -270.530      -44.944       16.506      166.825      145.840       80.128    27830.455    21269.307     6420.509        6.549        2.776      274.238       84.340        0.095      342.049       17.182      854.573
05/19/2014  18:02:00     -290.601     -202.148       -7.226      114.669      130.833       64.979    13148.928    17117.169     4222.308        7.992        1.724      353.995       60.303        0.029      341.925       16.973      854.580
05/19/2014  18:03:00     -393.974     -103.544       -4.904      176.430      135.988       64.189    31127.552    18492.637     4120.215       10.984        2.687      407.353       56.688        0.019      341.741       16.660      854.589
05/19/2014  18:04:00     -187.347      -72.444       -3.135      135.256       97.125       49.376    18294.267     9433.344     2438.026        3.526        1.508      200.865       61.142        0.093      341.927       16.978      854.582
05/19/2014  18:05:00     -148.419      -24.356        3.939      198.911       89.250       62.664    39565.670     7965.540     3926.789        3.704        2.573      150.405       76.028        0.256      341.917       16.961      854.561
05/19/2014  18:06:00     -347.801     -160.824       -2.910      174.962      152.124       80.503    30611.713    23141.699     6480.709       10.352        3.012      383.184       86.108        0.050      341.738       16.655      854.564
05/19/2014  18:07:00     -199.483      -79.690       11.584      176.646      104.910       71.454    31203.657    11006.083     5105.695        4.679        2.366      214.812       73.141        0.116      341.823       16.800      854.569
05/19/2014  18:08:00     -354.898      -85.435       -8.784      199.785      119.070       75.146    39914.188    14177.585     5646.867        9.652        2.987      365.037       73.650        0.041      341.702       16.595      854.574
05/19/2014  18:09:00     -208.356     -137.644      -13.547      142.689      103.966       60.186    20360.181    10809.003     3622.299        4.866        1.740      249.716       56.729        0.052      341.774       16.718      854.543
05/19/2014  18:10:00      -46.330      -28.436       29.453      125.487      102.491       58.112    15747.098    10504.370     3377.039        1.672        1.481       54.360       58.246        1.148      341.920       16.967      854.530
05/19/2014  18:11:00     -311.202     -129.626      -11.561      186.132      120.472       64.546    34645.030    14513.505     4166.238        8.354        2.666      337.119       79.004        0.055      341.780       16.726      854.527
05/19/2014  18:12:00     -219.787     -168.166       24.751      187.100      166.711       86.860    35006.277    27792.516     7544.665        7.376        3.517      276.742      104.391        0.142      341.759       16.691      854.527
05/19/2014  18:13:00     -384.301     -232.173      -16.233      200.021      186.328       86.421    40008.246    34718.159     7468.645       14.201        4.110      448.990      101.072        0.051      341.623       16.462      854.514
05/19/2014  18:14:00     -370.269     -223.858      -30.353      215.862      162.209       98.431    46596.237    26311.815     9688.650       13.535        4.130      432.679      119.502        0.076      341.639       16.487      854.510
05/19/2014  18:15:00     -275.585     -148.853       -1.458      137.277      161.394       87.543    18844.947    26048.054     7663.805        7.532        2.628      313.216       80.883        0.067      341.659       16.521      854.490
05/19/2014  18:16:00     -293.593     -104.740        3.370      214.901      141.082       79.701    46182.287    19904.140     6352.223        8.479        3.622      311.717      100.724        0.104      341.634       16.478      854.481
05/19/2014  18:17:00     -305.687     -196.130      -16.524      137.262      112.507       68.447    18840.779    12657.898     4684.999        8.418        1.809      363.196       71.804        0.039      341.742       16.663      854.502
05/19/2014  18:18:00     -444.786      -49.015      -18.364      176.110      135.137       73.508    31014.714    18261.993     5403.492       12.762        2.734      447.479       71.806        0.026      341.646       16.499      854.517
05/19/2014  18:19:00     -290.934     -106.015       -2.021      161.835      119.368       76.327    26190.589    14248.626     5825.837        7.107        2.313      309.648       81.143        0.069      341.621       16.457      854.510
05/19/2014  18:20:00     -320.091     -152.288      -24.023      110.668      147.421       68.931    12247.417    21732.827     4751.433        8.247        1.937      354.471       58.066        0.027      341.727       16.637      854.497
05/19/2014  18:21:00     -164.176       41.996       13.070      170.421      123.936       68.759    29043.450    15360.085     4727.830        3.900        2.457      169.462       77.114        0.207      341.743       16.666      854.506
05/19/2014  18:22:00     -233.548      -44.505      -12.831      138.904      128.751       54.084    19294.247    16576.786     2925.031        4.774        1.940      237.751       58.884        0.061      341.753       16.682      854.515
05/19/2014  18:23:00     -304.408     -162.342        9.158      148.198      101.394       73.095    21962.605    10280.719     5342.861        7.834        1.879      344.992       72.383        0.044      341.724       16.632      854.518
05/19/2014  18:24:00     -252.505      -56.733       -8.254      147.591      105.921       65.767    21783.064    11219.334     4325.352        5.218        1.866      258.800       78.248        0.091      341.662       16.527      854.505
05/19/2014  18:25:00     -239.980      -28.123      -13.443      111.679      103.089       43.460    12472.161    10627.366     1888.731        4.177        1.249      241.622       46.251        0.037      341.698       16.590      854.472
05/19/2014  18:26:00     -250.618      -10.301       -1.760      150.359       95.703       60.066    22607.937     9159.105     3607.930        4.914        1.769      250.829       76.381        0.093      341.685       16.566      854.472
05/19/2014  18:27:00     -249.447      -81.687       -4.368      172.263      131.602       70.238    29674.503    17319.171     4933.332        6.041        2.596      262.481       66.616        0.064      341.758       16.691      854.479
05/19/2014  18:28:00     -321.166     -235.634       15.140      243.677      155.880       96.695    59378.581    24298.516     9349.870       12.594        4.651      398.335      104.779        0.069      341.724       16.632      854.487
05/19/2014  18:29:00     -362.157     -141.001      -16.685      171.559      120.224       75.604    29432.574    14453.863     5715.921       10.045        2.480      388.637       90.268        0.054      341.662       16.527      854.533
05/19/2014  18:30:00     -312.621     -157.516      -14.265      147.947      160.989       70.911    21888.326    25917.348     5028.364        8.778        2.642      350.061       75.808        0.047      341.662       16.528      854.536
05/19/2014  18:31:00     -145.410      -79.212       17.319      118.528       91.346       56.315    14048.973     8344.046     3171.347        2.664        1.278      165.585       57.675        0.121      341.737       16.655      854.550
05/19/2014  18:32:00     -236.599     -113.255        5.226      187.689      151.499       82.601    35227.079    22951.986     6822.857        6.690        3.250      262.308       96.144        0.134      341.687       16.569      854.558
05/19/2014  18:33:00     -286.177      -23.984       -1.539      176.139      134.403       84.249    31025.071    18064.120     7097.874        6.932        2.809      287.180       71.795        0.063      341.638       16.486      854.571
05/19/2014  18:34:00     -511.903      -84.107      -26.225      198.881      155.499       81.801    39553.489    24180.031     6691.456       17.010        3.521      518.766      103.212        0.040      341.480       16.218      854.577
05/19/2014  18:35:00     -371.321      -36.818      -13.533      180.922      164.667       86.726    32732.764    27115.261     7521.369       10.338        3.368      373.142       88.296        0.056      341.496       16.246      854.591
05/19/2014  18:36:00     -331.720      -86.298      -20.549      155.271      130.906       75.862    24109.092    17136.304     5755.020        8.244        2.350      342.762       48.689        0.020      341.522       16.289      854.598
05/19/2014  18:37:00     -291.488      -27.259       -7.224      141.971      120.972       66.174    20155.854    14634.320     4378.961        6.246        1.958      292.760       68.879        0.055      341.586       16.397      854.631
05/19/2014  18:38:00     -397.316      -39.671       -7.954      185.591      183.814       87.023    34443.905    33787.610     7573.031       11.764        3.790      399.292       80.551        0.041      341.456       16.178      854.636
05/19/2014  18:39:00     -416.513      -60.391      -16.461      211.000      120.639       80.783    44521.008    14553.767     6525.819       12.149        3.280      420.868       97.866        0.054      341.513       16.274      854.655
05/19/2014  18:40:00     -616.438      -95.769      -33.730      267.251      162.340       92.721    71423.265    26354.273     8597.116       24.832        5.319      623.833      100.167        0.026      341.359       16.014      854.655
05/19/2014  18:41:00     -194.235      -68.719       19.362      158.299      129.169       69.715    25058.458    16684.649     4860.199        4.470        2.330      206.033       78.162        0.144      341.577       16.383      854.685
05/19/2014  18:42:00     -338.791     -138.119       -6.031      190.561      104.655       71.428    36313.623    10952.752     5101.950        9.312        2.618      365.863       82.392        0.051      341.503       16.260      854.707
05/19/2014  18:43:00     -469.573      -30.612      -23.494      188.293      132.643       84.428    35454.334    17594.034     7128.017       14.107        3.009      470.569       80.824        0.030      341.427       16.129      854.729
05/19/2014  18:44:00     -394.381     -149.681       15.048      266.716      180.250      107.837    71137.426    32489.962    11628.809       14.669        5.763      421.831      121.393        0.083      341.283       15.885      854.709
05/19/2014  18:45:00     -370.011     -252.105       -5.457      275.388      169.158      117.823    75838.645    28614.313    13882.266       15.939        5.917      447.733      138.083        0.095      341.274       15.870      854.723
05/19/2014  18:46:00     -364.260     -100.668        1.235      274.025      159.070       96.626    75089.590    25303.360     9336.501       12.625        5.486      377.914       85.165        0.051      341.288       15.894      854.731
05/19/2014  18:47:00     -449.301     -197.930      -10.986      233.559      196.506      103.370    54549.955    38614.412    10685.425       17.249        5.192      490.966      115.888        0.056      341.178       15.707      854.759
05/19/2014  18:48:00     -461.393     -199.978       -2.503      260.357      211.414      117.143    67785.978    44695.746    13722.429       18.952        6.310      502.867      143.313        0.081      341.094       15.565      854.766
05/19/2014  18:49:00     -298.187     -163.575       -8.238      229.203      152.608       97.645    52533.950    23289.156     9534.551       10.053        4.268      340.106       84.859        0.062      341.181       15.712      854.773
05/19/2014  18:50:00     -433.673     -101.429      -28.691      204.858      240.648       93.700    41966.784    57911.504     8779.681       15.390        5.433      445.376       88.980        0.040      341.097       15.570      854.797
05/19/2014  18:51:00     -497.588     -133.851      -15.413      238.461      201.999      104.311    56863.610    40803.561    10880.750       18.713        5.427      515.277      121.796        0.056      340.975       15.365      854.795
05/19/2014  18:52:00     -503.948     -226.092      -13.041      249.160      234.684      106.076    62080.632    55076.676    11252.178       21.680        6.420      552.341      115.846        0.044      340.967       15.349      854.784
05/19/2014  18:53:00     -471.053      -35.324      -13.233      223.340      174.070       99.912    49880.898    30300.293     9982.374       15.672        4.508      472.376      110.068        0.054      340.942       15.307      854.799
05/19/2014  18:54:00     -558.231     -185.820       -9.736      315.750      216.094      123.799    99697.781    46696.611    15326.291       25.395        8.086      588.345      154.566        0.069      340.922       15.274      854.789
05/19/2014  18:55:00     -546.352      -59.516      -31.600      276.120      198.701       91.557    76242.521    39482.151     8382.758       21.355        6.205      549.584       89.012        0.026      340.876       15.195      854.803
05/19/2014  18:56:00     -539.860     -121.675      -22.384      271.554      272.909      107.141    73741.677    74479.411    11479.256       23.320        7.985      553.402       95.448        0.030      340.874       15.193      854.819
05/19/2014  18:57:00     -370.502      -48.192        9.054      234.787      160.702      102.029    55125.089    25824.991    10409.919       11.550        4.568      373.623      105.324        0.079      340.935       15.297      854.835
05/19/2014  18:58:00     -408.135     -154.094      -15.805      280.916      184.535      119.679    78913.741    34053.052    14323.047       15.890        6.364      436.256      138.204        0.100      340.889       15.217      854.869
05/19/2014  18:59:00     -324.219     -207.208       -3.680      249.355      177.852      101.282    62178.121    31631.391    10257.996       12.605        5.203      384.777      113.471        0.087      340.901       15.239      854.875
05/19/2014  19:00:00     -441.584     -155.370      -24.883      245.291      161.140       85.723    60167.722    25966.131     7348.349       15.660        4.674      468.120       77.675        0.028      340.892       15.223      854.916
05/19/2014  19:01:00     -392.196     -134.830       -6.250      309.323      196.693      105.274    95680.622    38688.191    11082.576       15.871        7.273      414.725      136.824        0.109      340.894       15.227      854.925
05/19/2014  19:02:00     -404.882      -79.243       -7.776      228.106      178.752       98.685    52032.233    31952.321     9738.725       13.198        4.686      412.564      111.979        0.074      340.867       15.180      854.965
05/19/2014  19:03:00     -181.418      -46.278        0.698      158.484      159.053       79.240    25117.255    25297.706     6279.031        4.586        2.835      187.227       80.863        0.187      340.960       15.339      854.959
05/19/2014  19:04:00     -289.622      -94.062      -11.861      225.322      172.613       89.317    50770.146    29795.197     7977.551        9.069        4.427      304.513      103.907        0.116      340.909       15.253      854.981
05/19/2014  19:05:00     -274.197     -182.401        8.358      203.011      171.035       88.103    41213.451    29252.890     7762.099        9.336        3.911      329.323      102.416        0.097      340.881       15.204      855.031
05/19/2014  19:06:00     -266.145     -123.188        2.700      192.699      196.333       91.459    37132.733    38546.745     8364.736        8.501        4.202      293.272       98.548        0.113      340.861       15.171      855.016
05/19/2014  19:07:00     -374.434      -67.318       -7.450      181.621      165.822       87.723    32986.160    27496.773     7695.298       10.647        3.409      380.437       87.059        0.052      340.832       15.120      855.039
05/19/2014  19:08:00     -314.145      -83.855        6.710      212.812      155.934       82.540    45288.810    24315.547     6812.799        9.108        3.821      325.144       88.943        0.075      340.816       15.096      855.057
05/19/2014  19:09:00     -437.484     -227.470      -14.290      258.471      226.914      103.209    66807.398    51489.972    10652.023       18.612        6.447      493.087      125.090        0.064      340.761       15.002      855.060
05/19/2014  19:10:00     -398.036     -196.654       -8.492      251.458      167.645       97.998    63231.250    28104.679     9603.569       14.904        5.047      443.965      112.823        0.065      340.705       14.906      855.083
05/19/2014  19:11:00     -414.802     -163.053      -21.672      226.052      214.378       99.598    51099.433    45957.946     9919.718       15.303        5.349      445.698      106.518        0.057      340.691       14.884      855.105
05/19/2014  19:12:00     -456.905     -194.794      -22.037      204.238      169.189       96.685    41713.172    28625.072     9348.022       16.342        3.984      496.696       93.819        0.036      340.672       14.850      855.128
05/19/2014  19:13:00     -222.391     -189.071       24.137      232.716      177.892      102.090    54156.764    31645.590    10422.462        9.099        4.811      291.900      112.467        0.148      340.713       14.922      855.113
05/19/2014  19:14:00     -431.145     -188.185      -11.233      248.877      234.781       92.465    61939.800    55121.948     8549.747       17.349        6.281      470.425      116.145        0.061      340.679       14.864      855.157
05/19/2014  19:15:00     -515.225     -242.134       -3.807      264.435      166.401       89.501    69925.688    27689.196     8010.356       21.484        5.281      569.285      110.894        0.038      340.620       14.762      855.159
05/19/2014  19:16:00     -380.891     -215.627      -13.501      217.635      156.475       96.837    47365.176    24484.344     9377.442       13.648        4.061      437.691      105.678        0.058      340.650       14.814      855.166
05/19/2014  19:17:00     -452.496     -244.142      -18.228      182.143      141.152       84.661    33176.021    19923.794     7167.442       16.247        3.013      514.157       85.017        0.027      340.621       14.764      855.190
05/19/2014  19:18:00     -206.851     -144.080        9.507      175.702      165.167       68.985    30871.195    27280.191     4758.987        6.326        3.146      252.084       84.414        0.112      340.691       14.885      855.210
05/19/2014  19:19:00     -428.305      -30.275      -14.908      175.925      156.199       67.032    30949.612    24397.982     4493.231       12.220        2.992      429.373       64.212        0.022      340.631       14.782      855.216
05/19/2014  19:20:00     -266.791     -110.197        0.344      173.019      148.088       89.847    29935.744    21930.203     8072.429        7.162        2.997      288.654       85.002        0.087      340.625       14.772      855.228
05/19/2014  19:21:00     -206.553     -131.049       14.918      142.372      123.098       61.872    20269.823    15153.195     3828.134        4.965        1.963      244.618       71.819        0.086      340.683       14.868      855.255
05/19/2014  19:22:00     -222.367      -19.550       11.188      144.685      122.022       65.335    20933.763    14889.331     4268.667        4.502        2.005      223.225       69.561        0.097      340.690       14.881      855.271
05/19/2014  19:23:00     -399.196      -36.204      -17.794      179.495      135.574       80.118    32218.523    18380.443     6418.852       10.899        2.851      400.834       80.084        0.040      340.637       14.792      855.303
05/19/2014  19:24:00     -387.110     -154.208      -23.626      177.129      187.879       79.683    31374.741    35298.430     6349.388       12.359        3.651      416.694       87.510        0.044      340.600       14.729      855.334
05/19/2014  19:25:00     -480.579     -195.417      -42.715      168.831      175.672       87.299    28504.035    30860.698     7621.048       16.896        3.349      518.791       89.946        0.030      340.560       14.661      855.363
05/19/2014  19:26:00     -351.470     -138.792      -20.751      188.492      141.340       79.605    35529.302    19977.000     6337.007       10.252        3.092      377.881       93.659        0.061      340.605       14.739      855.403
05/19/2014  19:27:00     -224.166     -159.584      -11.096      203.902      134.374       71.355    41576.172    18056.342     5091.476        7.027        3.236      275.168       97.739        0.126      340.606       14.741      855.466
05/19/2014  19:28:00     -331.115     -175.924       -6.358      136.096      137.498       67.274    18522.062    18905.724     4525.833        9.128        2.098      374.949       70.168        0.035      340.558       14.656      855.535
05/19/2014  19:29:00     -210.669     -201.719       16.409      164.915      152.725       87.541    27197.077    23324.875     7663.410        7.175        2.909      291.671       93.770        0.103      340.559       14.661      855.591
05/19/2014  19:30:00     -291.928     -188.193      -12.483      154.253      110.044       64.086    23794.138    12109.680     4107.003        8.039        2.001      347.331       74.011        0.045      340.510       14.577      855.583
05/19/2014  19:31:00     -176.289       24.850       -6.390      113.655       83.548       50.895    12917.365     6980.240     2590.317        2.711        1.124      178.032       62.672        0.124      340.548       14.644      855.517
05/19/2014  19:32:00     -232.624       32.293      -16.835      103.600       83.561       63.814    10733.059     6982.413     4072.185        3.861        1.089      234.855       60.992        0.067      340.558       14.658      855.420
05/19/2014  19:33:00     -245.371      -85.636        0.566      124.733      122.036       60.232    15558.262    14892.881     3627.890        5.080        1.704      259.886       56.565        0.047      340.620       14.765      855.329
05/19/2014  19:34:00     -440.752      -20.844      -23.173      169.639      142.471       77.140    28777.419    20298.032     5950.563       12.512        2.751      441.245       73.563        0.028      340.551       14.647      855.337
05/19/2014  19:35:00     -441.991      -20.427      -24.456      291.875      167.524      109.204    85191.013    28064.249    11925.618       16.075        6.259      442.463      144.976        0.107      340.482       14.530      855.283
05/19/2014  19:36:00     -500.187      -63.413      -15.653      268.635      173.704       92.288    72164.981    30172.972     8517.156       18.263        5.543      504.191      117.492        0.054      340.500       14.561      855.275
05/19/2014  19:37:00     -769.561     -110.940      -61.454      239.941      151.136       94.685    57571.580    22842.234     8965.171       34.883        4.469      777.517      102.589        0.017      340.401       14.393      855.277
05/19/2014  19:38:00     -416.514       16.017      -46.973      120.713      159.731       69.736    14571.527    25514.121     4863.108       11.044        2.247      416.822       55.995        0.018      340.397       14.386      855.308
05/19/2014  19:39:00     -375.217      -87.814      -10.582      279.451      129.316       80.312    78092.982    16722.667     6449.980       12.492        5.063      385.355       95.688        0.062      340.401       14.393      855.256
05/19/2014  19:40:00     -661.130     -408.941       -7.991      393.169      294.114      159.398   154581.957    86503.151    25407.602       43.539       13.325      777.384      193.998        0.062      340.105       13.892      855.243
05/19/2014  19:41:00     -626.479     -165.811      -31.030      279.031      205.880      105.949    77858.321    42386.651    11225.233       27.617        6.574      648.050       60.545        0.009      340.031       13.768      855.292
05/19/2014  19:42:00     -336.584      127.754      -41.414      182.700      277.497       99.490    33379.111    77004.318     9898.237       12.578        6.014      360.014       95.867        0.071      340.088       13.862      855.336
05/19/2014  19:43:00     -259.783      168.469      -40.993      154.340      211.213       87.691    23820.803    44610.884     7689.728        8.682        3.806      309.627      120.912        0.152      340.072       13.836      855.313
05/19/2014  19:44:00     -331.990     -154.968      -13.373      186.335      135.460       92.046    34720.756    18349.345     8472.455        9.796        3.077      366.377       93.893        0.066      340.085       13.857      855.326
05/19/2014  19:45:00     -419.069     -159.988      -31.744      183.514      173.787       74.589    33677.539    30201.824     5563.502       13.582        3.472      448.570       59.566        0.018      340.082       13.853      855.355
05/19/2014  19:46:00     -540.689     -117.557      -12.971      219.876      196.189      104.567    48345.367    38490.017    10934.358       20.203        4.888      553.321       99.148        0.032      340.023       13.753      855.392
05/19/2014  19:47:00     -355.984      -23.726        0.101      314.676      179.126      114.522    99020.931    32086.015    13115.192       13.573        7.211      356.774      138.734        0.151      340.004       13.723      855.421
05/19/2014  19:48:00     -428.308      -18.666      -11.244      222.106      174.247       86.671    49331.106    30362.183     7511.878       13.555        4.360      428.715       93.163        0.047      339.931       13.599      855.390
05/19/2014  19:49:00     -351.434      -40.299      -39.336      132.589      122.758       73.489    17579.773    15069.497     5400.628        8.236        1.902      353.737       73.206        0.043      339.901       13.547      855.413
05/19/2014  19:50:00     -320.264      -42.584       -8.619      147.342      110.993       54.692    21709.691    12319.349     2991.246        7.073        1.851      323.082       55.403        0.029      339.931       13.599      855.419
05/19/2014  19:51:00     -233.738      -82.693       -8.548      153.962      141.951       67.033    23704.399    20150.057     4493.435        5.494        2.417      247.935       78.723        0.101      340.003       13.722      855.411
05/19/2014  19:52:00     -258.448      -23.459        8.461      166.068      142.714       79.336    27578.422    20367.188     6294.124        6.082        2.712      259.511       67.090        0.067      339.951       13.633      855.424
05/19/2014  19:53:00     -184.449      -11.623      -13.183      109.143       87.629       61.586    11912.256     7678.850     3792.800        2.885        1.169      184.815       45.755        0.061      340.062       13.822      855.415
05/19/2014  19:54:00     -251.269      172.907      -44.012      139.072      139.756       72.037    19340.909    19531.753     5189.260        6.951        2.203      305.014       81.019        0.071      340.085       13.859      855.412
05/19/2014  19:55:00     -336.373      -74.010      -16.275      210.126      146.071       75.788    44153.078    21336.733     5743.886        9.505        3.562      344.419       61.928        0.032      340.189       14.035      855.324
05/19/2014  19:56:00     -214.933      -73.675      -14.157      120.825      114.292       62.585    14598.607    13062.686     3916.880        4.170        1.579      227.210       63.331        0.078      340.192       14.039      855.350
05/19/2014  19:57:00     -168.336      -39.629      -11.084      115.412      105.861       51.080    13319.912    11206.589     2609.209        2.858        1.357      172.937       50.670        0.086      340.244       14.128      855.351
05/19/2014  19:58:00     -298.073      -61.306      -54.990      130.568       84.508       66.043    17048.072     7141.667     4361.639        6.208        1.428      304.312       49.974        0.027      340.237       14.114      855.354
05/19/2014  19:59:00     -292.487      -76.736      -14.156       95.778      104.579       60.109     9173.499    10936.864     3613.110        5.768        1.186      302.386       51.934        0.029      340.222       14.088      855.364
05/19/2014  20:00:00     -300.936      -80.629      -18.063      120.191       74.213       52.642    14445.862     5507.551     2771.161        6.005        1.136      311.550       48.998        0.025      340.263       14.160      855.374
05/19/2014  20:01:00     -258.356      -30.759      -18.944      138.175      124.512       54.321    19092.392    15503.202     2950.731        5.279        1.877      260.181       54.488        0.044      340.369       14.341      855.375
05/19/2014  20:02:00     -192.664       18.344      -40.559       84.852       87.300       54.971     7199.784     7621.354     3021.840        2.847        0.892      193.536       45.272        0.055      340.397       14.387      855.385
05/19/2014  20:03:00     -148.751       67.290      -20.369      118.492       63.091       48.844    14040.281     3980.468     2385.744        2.373        1.020      163.263       54.250        0.110      340.408       14.405      855.395
05/19/2014  20:04:00     -216.281       13.820      -36.638       81.841       77.798       40.439     6698.025     6052.545     1635.314        3.135        0.719      216.722       16.701        0.006      340.476       14.520      855.392
05/19/2014  20:05:00     -234.090      -48.120      -25.542       89.695      122.701       57.324     8045.146    15055.590     3286.079        4.207        1.319      238.985       40.791        0.029      340.434       14.447      855.390
05/19/2014  20:06:00     -223.893      -68.495      -11.615      110.887       97.388       60.242    12295.956     9484.515     3629.094        4.018        1.270      234.136       49.999        0.046      340.424       14.434      855.396
05/19/2014  20:07:00     -375.096       -3.646      -33.373      104.770      127.197       58.004    10976.663    16179.157     3364.508        8.617        1.526      375.114       35.571        0.009      340.390       14.374      855.419
05/19/2014  20:08:00     -367.969      -76.933      -20.673      185.269       95.549       74.160    34324.540     9129.652     5499.733        9.534        2.448      375.925       78.674        0.044      340.374       14.345      855.432
05/19/2014  20:09:00     -466.724      -73.421      -25.635      220.424      173.381       77.631    48586.731    30061.017     6026.606       15.426        4.234      472.464       96.283        0.042      340.402       14.395      855.420
05/19/2014  20:10:00     -393.199      -25.511      -14.512      158.818      153.330       75.380    25223.276    23510.106     5682.087       10.493        2.721      394.026       77.571        0.039      340.406       14.402      855.421
05/19/2014  20:11:00     -331.039     -115.659       10.341      267.899      164.676       95.395    71769.814    27118.182     9100.166       11.551        5.399      350.662      125.997        0.129      340.389       14.373      855.435
05/19/2014  20:12:00     -376.814     -145.728       -1.745      211.182      138.704       86.201    44597.754    19238.872     7430.582       11.723        3.563      404.012      102.292        0.064      340.358       14.320      855.423
05/19/2014  20:13:00     -408.115      -92.284      -21.383      150.184      166.557       74.597    22555.289    27741.357     5564.703       11.569        2.793      418.419       73.387        0.031      340.376       14.351      855.456
05/19/2014  20:14:00     -421.394     -109.171       -5.761      149.400      127.618       77.064    22320.386    16286.274     5938.818       11.703        2.227      435.306       83.856        0.037      340.290       14.205      855.482
05/19/2014  20:15:00     -445.802       41.847      -36.527      133.117      161.192       63.184    17720.156    25982.947     3992.240       12.475        2.385      447.761       58.180        0.017      340.299       14.220      855.489
05/19/2014  20:16:00     -353.266      -62.371      -25.634      127.392      114.214       55.527    16228.795    13044.795     3083.208        8.084        1.618      358.730       65.494        0.033      340.290       14.205      855.479
05/19/2014  20:17:00     -381.439       50.551      -31.502      137.938      100.811       55.320    19026.868    10162.951     3060.341        9.064        1.613      384.774       61.335        0.025      340.315       14.248      855.497
05/19/2014  20:18:00     -393.995     -102.098      -18.270      150.168      135.291       81.104    22550.469    18303.709     6577.854       10.670        2.372      407.008       73.229        0.032      340.262       14.156      855.471
05/19/2014  20:19:00     -399.160      -51.365      -16.966      181.911      109.192       74.378    33091.683    11922.844     5532.043       10.639        2.527      402.451       85.390        0.045      340.199       14.052      855.478
05/19/2014  20:20:00     -210.846      -32.274       -1.873      159.606      147.270       71.126    25473.989    21688.403     5058.891        4.885        2.611      213.302       81.428        0.146      340.239       14.119      855.471
05/19/2014  20:21:00     -163.913        2.792        1.958      111.807       95.480       51.857    12500.870     9116.406     2689.168        2.559        1.215      163.936       54.181        0.109      340.327       14.269      855.504
05/19/2014  20:22:00     -271.511       23.320      -11.707      146.743      154.873       70.591    21533.366    23985.630     4983.144        6.244        2.525      272.511       73.349        0.072      340.183       14.024      855.529
05/19/2014  20:23:00     -270.955      111.437      -31.856      107.605      115.445       59.149    11578.900    13327.626     3498.563        5.762        1.420      292.975       53.312        0.033      340.234       14.110      855.546
05/19/2014  20:24:00     -255.573      -60.624      -20.766      202.152      121.815       81.351    40865.442    14838.808     6617.967        6.586        3.116      262.664       97.249        0.137      340.115       13.911      855.523
05/19/2014  20:25:00     -209.211      -66.755        8.058      114.661      119.480       53.533    13147.071    14275.567     2865.730        3.928        1.514      219.602       56.677        0.067      340.173       14.007      855.570
05/19/2014  20:26:00     -395.563     -116.344      -23.798      155.158      109.256       62.953    24074.132    11936.821     3963.121       10.527        1.999      412.318       58.886        0.020      340.004       13.722      855.598
05/19/2014  20:27:00     -262.280      -27.213       -7.485      157.072      174.139       77.891    24671.670    30324.296     6066.934        6.531        3.053      263.688       70.386        0.071      340.012       13.736      855.605
05/19/2014  20:28:00     -262.521        3.246      -22.370      127.090      159.568       74.301    16151.745    25462.038     5520.628        5.827        2.357      262.541       62.722        0.057      340.070       13.835      855.587
05/19/2014  20:29:00     -152.264      -51.428       -0.209      143.992       92.205       64.987    20733.788     8501.773     4223.326        2.964        1.673      160.715       70.890        0.195      340.027       13.761      855.617
05/19/2014  20:30:00     -200.366       41.643      -22.024      127.108      126.660       74.252    16156.362    16042.757     5513.346        4.003        1.886      204.647       68.549        0.112      339.999       13.714      855.590
05/19/2014  20:31:00     -195.296      -44.511        8.396      174.528       99.021       81.804    30459.991     9805.152     6691.939        4.357        2.348      200.305       82.907        0.171      339.953       13.637      855.627
05/19/2014  20:32:00     -269.721      -22.391       -2.641      178.391      103.275       66.312    31823.231    10665.704     4397.285        6.006        2.344      270.649       77.672        0.082      339.919       13.580      855.681
05/19/2014  20:33:00     -404.822      -49.578      -13.538      162.431      133.654       61.226    26383.687    17863.259     3748.565       10.725        2.400      407.847       67.201        0.027      339.940       13.614      855.718
05/19/2014  20:34:00     -641.981     -248.379      -42.452      209.385      266.575      109.708    43842.047    71062.448    12035.772       30.126        6.347      688.355       92.877        0.018      339.809       13.393      855.689
05/19/2014  20:35:00     -477.671      -99.267      -67.528      173.029      183.944       89.301    29938.895    33835.548     7974.643       15.715        3.587      487.877       81.823        0.028      339.874       13.503      855.667
05/19/2014  20:36:00     -469.329      -35.099      -27.824      254.056      148.380       87.664    64544.479    22016.726     7685.029       15.824        4.712      470.640      116.625        0.061      339.903       13.550      855.666
05/19/2014  20:37:00     -510.474     -132.318      -42.891      155.769      143.478       80.199    24263.944    20585.959     6431.825       16.560        2.564      527.344       81.076        0.024      339.874       13.502      855.659
05/19/2014  20:38:00     -414.132     -156.998      -15.665      215.654      140.878       83.047    46506.437    19846.718     6896.849       13.481        3.663      442.892       93.637        0.045      339.860       13.479      855.654
05/19/2014  20:39:00     -136.970      -18.349       34.310      177.826      155.597       85.212    31622.256    24210.436     7261.150        4.167        3.155      138.194      102.944        0.555      339.856       13.475      855.610
05/19/2014  20:40:00     -281.198      -40.772        1.480      171.815      117.654       76.920    29520.236    13842.434     5916.735        6.500        2.464      284.139       76.995        0.073      339.818       13.410      855.663
05/19/2014  20:41:00     -188.396        3.000      -29.843       76.195       83.230       53.149     5805.672     6927.205     2824.775        2.597        0.778      188.419       38.215        0.041      339.930       13.598      855.662
05/19/2014  20:42:00     -141.075        8.649        5.699      115.153      115.901       64.209    13260.151    13433.047     4122.751        2.541        1.541      141.340       52.366        0.137      339.865       13.489      855.642
05/19/2014  20:43:00     -109.417       17.489       -2.013       56.709       79.228       66.117     3215.855     6277.093     4371.482        1.307        0.693      110.806       47.145        0.181      339.902       13.553      855.621
05/19/2014  20:44:00     -122.799       -7.855       -8.812       86.768      111.842       43.006     7528.737    12508.543     1849.552        1.855        1.094      123.050       42.251        0.118      339.888       13.531      855.634
05/19/2014  20:45:00     -178.973       53.569      -45.198      128.206      166.148       86.684    16436.852    27605.042     7514.098        4.424        2.578      186.818       78.071        0.175      339.754       13.302      855.631
05/19/2014  20:46:00     -123.637       61.811        0.573      150.194      175.122       85.353    22558.210    30667.541     7285.152        3.980        3.026      138.227       80.067        0.336      339.691       13.195      855.639
05/19/2014  20:47:00     -268.038       89.361      -33.584      133.825      139.145       75.842    17909.194    19361.269     5752.040        6.198        2.151      282.542       78.986        0.078      339.658       13.139      855.637
05/19/2014  20:48:00     -151.839      151.713      -18.344      106.424      127.665       63.851    11325.969    16298.311     4077.006        3.905        1.585      214.643       66.662        0.096      339.685       13.186      855.638
05/19/2014  20:49:00     -144.602      153.734       -5.153      109.007      138.712       71.106    11882.449    19241.102     5056.023        4.037        1.809      211.054       37.820        0.032      339.635       13.101      855.637
05/19/2014  20:50:00     -177.349      149.046      -29.736       91.956      104.504       75.446     8455.845    10921.005     5692.154        3.981        1.253      231.662       45.197        0.038      339.532       12.925      855.633
05/19/2014  20:51:00     -152.666       25.512      -20.094       85.766       94.305       60.403     7355.736     8893.369     3648.471        2.213        0.995      154.783       42.683        0.076      339.562       12.980      855.666
05/19/2014  20:52:00     -180.803       94.448      -39.086      138.280      154.314       60.440    19121.453    23812.660     3653.003        4.485        2.329      203.986       61.562        0.091      339.492       12.858      855.670
05/19/2014  20:53:00     -200.825       38.850      -14.879      110.687      130.138       80.956    12251.615    16935.859     6553.870        3.889        1.787      204.548       75.979        0.138      339.531       12.925      855.661
05/19/2014  20:54:00     -275.720      150.166      -37.670      171.920      142.494       87.753    29556.326    20304.640     7700.606        7.876        2.878      313.961       73.856        0.055      339.482       12.842      855.650
05/19/2014  20:55:00     -370.023      171.391      -43.068      161.924      134.661       85.883    26219.294    18133.641     7375.832       10.993        2.586      407.789       67.125        0.027      339.438       12.769      855.681
05/19/2014  20:56:00     -176.681       48.332       -5.130      134.876      115.489       85.810    18191.664    13337.656     7363.296        3.623        1.945      183.173       75.551        0.170      339.478       12.836      855.693
05/19/2014  20:57:00     -251.814       82.927      -16.954      122.654      232.547      112.396    15043.958    54077.922    12632.829        7.615        4.088      265.117      107.094        0.163      339.426       12.748      855.707
05/19/2014  20:58:00     -258.751      125.381      -34.617      116.812      126.080       68.138    13645.057    15896.189     4642.849        5.902        1.709      287.528       61.457        0.046      339.386       12.679      855.753
05/19/2014  20:59:00     -290.823       74.671      -57.025      140.018      172.550       86.463    19605.160    29773.622     7475.822        7.512        2.843      300.257       79.584        0.070      339.396       12.698      855.765
05/19/2014  21:00:00     -137.045      -11.919       25.412      179.751       94.841       83.569    32310.584     8994.756     6983.819        3.392        2.414      137.562      101.926        0.549      339.371       12.656      855.777
05/19/2014  21:01:00     -228.539       92.918      -43.207      126.500      120.996       64.729    16002.355    14640.144     4189.892        4.877        1.742      246.706       43.764        0.031      339.359       12.636      855.815
05/19/2014  21:02:00     -180.290      -38.587      -11.392      132.939      141.296       79.262    17672.744    19964.565     6282.519        3.901        2.196      184.373       81.674        0.196      339.388       12.684      855.823
05/19/2014  21:03:00     -228.396       53.570      -34.806      152.057      142.589       70.631    23121.479    20331.736     4988.735        5.233        2.422      234.594       71.711        0.093      339.346       12.613      855.854
05/19/2014  21:04:00     -207.521      127.777      -20.216      181.656      111.049       75.355    32998.891    12331.852     5678.430        5.539        2.550      243.705       96.207        0.156      339.348       12.618      855.882
05/19/2014  21:05:00     -124.770       -9.699       -3.642      103.951       78.939       60.595    10805.825     6231.310     3671.728        1.819        1.035      125.146       61.665        0.243      339.333       12.593      855.880
05/19/2014  21:06:00     -288.092      122.983      -42.750      124.528       85.526       68.469    15507.116     7314.631     4688.013        6.372        1.375      313.244       66.502        0.045      339.275       12.493      855.902
05/19/2014  21:07:00     -258.376      164.404      -50.504      135.174      104.549       62.205    18271.941    10930.431     3869.450        6.470        1.654      306.246       67.625        0.049      339.321       12.570      855.919
05/19/2014  21:08:00     -215.704      153.651      -29.458      138.976      159.221       74.857    19314.193    25351.440     5603.595        6.063        2.513      264.833       62.252        0.055      339.260       12.468      855.899
05/19/2014  21:09:00     -272.759      254.190      -59.869      118.395      125.729       74.435    14017.325    15807.733     5540.640        8.897        1.768      372.840       64.895        0.030      339.241       12.434      855.897
05/19/2014  21:10:00     -175.509      214.587      -23.978      137.840      149.275       62.372    18999.897    22283.098     3890.238        6.129        2.259      277.220       65.441        0.056      339.265       12.477      855.887
05/19/2014  21:11:00     -276.616       92.624      -61.393      190.043      155.376       74.565    36116.494    24141.604     5559.989        7.733        3.291      291.711       87.420        0.090      339.293       12.523      855.927
05/19/2014  21:12:00     -250.680      133.117      -26.547      182.099      127.397       75.907    33159.908    16229.999     5761.869        6.820        2.758      283.832       86.075        0.092      339.276       12.497      855.957
05/19/2014  21:13:00     -200.207       92.890       -4.581      143.291      128.202       59.710    20532.262    16435.679     3565.271        4.462        2.027      220.707       55.645        0.064      339.287       12.514      855.959
05/19/2014  21:14:00     -144.596      129.339      -29.195       95.747      175.874       55.300     9167.422    30931.658     3058.055        4.081        2.158      194.001       40.183        0.043      339.290       12.520      855.955
05/19/2014  21:15:00     -215.846       69.739      -30.875      134.241      165.040       77.415    18020.696    27238.250     5993.026        5.182        2.563      226.833       71.735        0.100      339.331       12.587      855.971
05/19/2014  21:16:00     -107.505      112.378       -1.418      109.726      144.140       67.324    12039.762    20776.222     4532.522        3.076        1.867      155.519       66.861        0.185      339.294       12.527      855.977
05/19/2014  21:17:00     -240.723      316.047      -56.847      116.836      113.510       71.410    13650.575    12884.460     5099.330        9.634        1.582      397.282       69.451        0.031      339.185       12.341      856.005
05/19/2014  21:18:00     -188.404      277.231      -39.339      115.265      144.094       61.215    13286.058    20762.982     3747.273        7.584        1.890      335.191       58.924        0.031      339.192       12.354      856.004
05/19/2014  21:19:00     -166.794      152.001      -30.620      154.694      100.043       66.824    23930.255    10008.505     4465.504        4.513        1.920      225.664       76.332        0.114      339.149       12.283      855.996
05/19/2014  21:20:00     -177.059      212.019      -30.365      107.377      179.657       66.574    11529.835    32276.509     4432.108        6.272        2.412      276.228       79.299        0.082      339.189       12.350      856.003
05/19/2014  21:21:00     -151.831      255.154      -26.809      120.284      117.513       67.465    14468.330    13809.246     4551.592        6.085        1.641      296.911       70.164        0.056      339.124       12.240      856.040
05/19/2014  21:22:00     -127.158      212.945      -39.085       90.227       97.980       57.077     8140.886     9600.162     3257.801        4.202        1.050      248.022       46.072        0.035      339.129       12.247      856.035
05/19/2014  21:23:00     -103.513      238.177      -34.105      102.064      106.530       59.518    10417.015    11348.681     3542.335        4.695        1.265      259.698       61.966        0.057      339.155       12.292      856.016
05/19/2014  21:24:00     -134.078      342.559      -37.892       95.448      143.073       58.708     9110.233    20469.903     3446.600        8.489        1.651      367.863       50.023        0.018      339.176       12.327      856.025
05/19/2014  21:25:00     -140.579      308.091      -33.126      100.376      117.661       65.108    10075.262    13844.201     4238.999        7.196        1.408      338.648       56.068        0.027      339.220       12.401      856.055
05/19/2014  21:26:00     -234.028      237.808      -61.439      107.877      130.929       61.231    11637.519    17142.403     3749.252        7.381        1.626      333.649       51.677        0.024      339.229       12.415      856.102
05/19/2014  21:27:00     -226.639      208.491      -39.662       86.116       89.021       52.771     7415.964     7924.726     2784.771        5.726        0.906      307.951       44.919        0.021      339.281       12.503      856.159
05/19/2014  21:28:00     -164.634      169.362      -29.327      121.849      100.738       61.813    14847.126    10148.206     3820.835        4.273        1.441      236.195       52.024        0.049      339.307       12.547      856.207
05/19/2014  21:29:00     -127.691      206.689      -20.118       81.932       93.146       58.924     6712.868     8676.265     3472.076        3.914        0.943      242.951       50.468        0.043      339.276       12.496      856.236
05/19/2014  21:30:00     -147.663      215.262      -31.101       90.604       96.200       51.131     8209.146     9254.348     2614.386        4.459        1.004      261.040       53.330        0.042      339.214       12.391      856.280
05/19/2014  21:31:00     -123.540      193.218      -26.408       62.287      100.658       48.053     3879.729    10132.077     2309.101        3.480        0.816      229.337       37.107        0.026      339.258       12.466      856.324
05/19/2014  21:32:00     -147.515      198.648      -28.867       58.821       92.153       43.581     3459.879     8492.152     1899.314        3.795        0.693      247.430       31.648        0.016      339.207       12.380      856.353
05/19/2014  21:33:00     -170.476      170.528      -32.627       97.636       76.401       43.740     9532.839     5837.055     1913.221        3.824        0.864      241.126       37.603        0.024      339.246       12.445      856.388
05/19/2014  21:34:00      -97.571       75.166      -21.130       47.840       74.440       35.418     2288.655     5541.334     1254.461        1.235        0.454      123.166       31.333        0.065      339.330       12.589      856.413
05/19/2014  21:35:00     -105.287       84.763       -6.355       97.036      107.063       49.180     9416.058    11462.387     2418.644        2.080        1.165      135.167       53.799        0.158      339.316       12.565      856.440
05/19/2014  21:36:00     -120.078      267.051      -40.949      116.647       98.139       54.261    13606.436     9631.231     2944.211        5.679        1.309      292.806       58.748        0.040      339.226       12.412      856.470
05/19/2014  21:37:00     -100.502      234.675      -22.089       82.980      129.629       50.738     6885.611    16803.656     2574.346        4.596        1.313      255.290       52.987        0.043      339.290       12.520      856.499
05/19/2014  21:38:00     -138.647      241.842      -22.763       81.459      117.876       58.262     6635.578    13894.687     3394.443        5.107        1.196      278.766       61.416        0.049      339.300       12.535      856.530
05/19/2014  21:39:00     -175.910      125.444      -37.417       71.641       90.212       44.719     5132.488     8138.231     1999.826        3.167        0.764      216.057       41.054        0.036      339.362       12.639      856.564
05/19/2014  21:40:00     -101.189      165.768      -10.374       87.517       86.998       62.030     7659.195     7568.708     3847.695        2.845        0.954      194.212       59.926        0.095      339.371       12.655      856.575
05/19/2014  21:41:00     -135.754      106.080      -16.032       64.215      108.053       47.164     4123.512    11675.404     2224.471        2.398        0.901      172.285       56.801        0.109      339.351       12.623      856.615
05/19/2014  21:42:00     -118.992       41.899      -12.556       72.280       61.401       44.031     5224.425     3770.023     1938.731        1.350        0.547      126.154       45.604        0.131      339.507       12.887      856.647
05/19/2014  21:43:00     -188.315      -33.962      -18.786       59.892       52.122       35.203     3587.001     2716.708     1239.221        2.225        0.377      191.353       32.171        0.028      339.329       12.585      856.687
05/19/2014  21:44:00     -122.480      -47.345       -4.121       92.331       72.932       47.844     8524.947     5319.049     2289.024        1.669        0.807      131.312       30.420        0.054      339.343       12.611      856.694
05/19/2014  21:45:00     -111.212      -22.238       -1.951       81.534       66.835       41.935     6647.729     4466.953     1758.564        1.287        0.644      113.414       41.296        0.133      339.309       12.552      856.707
05/19/2014  21:46:00      -70.886       41.399      -10.771       43.482       58.039       31.538     1890.687     3368.488      994.626        0.655        0.313       82.090       25.634        0.098      339.448       12.788      856.720
05/19/2014  21:47:00     -143.970      135.547      -37.147       57.476       96.304       38.412     3303.452     9274.532     1475.470        2.726        0.703      197.739       34.700        0.031      339.418       12.737      856.741
05/19/2014  21:48:00     -157.311      180.373      -39.255       78.662       88.011       55.428     6187.635     7746.005     3072.242        3.791        0.850      239.335       45.685        0.036      339.340       12.603      856.759
05/19/2014  21:49:00     -110.625      133.351      -10.292       88.695       87.754       50.937     7866.829     7700.742     2594.533        2.414        0.908      173.263       46.629        0.072      339.387       12.683      856.754
05/19/2014  21:50:00     -157.699      261.096      -35.161      103.315      143.595       61.803    10673.991    20619.432     3819.638        6.469        1.756      305.024       67.078        0.048      339.312       12.558      856.760
05/19/2014  21:51:00     -216.129      259.390      -52.465       93.529       97.608       66.298     8747.757     9527.400     4395.407        6.970        1.134      337.632       62.129        0.034      339.281       12.504      856.775
05/19/2014  21:52:00     -189.964      280.065      -41.732       80.246       91.447       60.393     6439.474     8362.536     3647.350        6.735        0.922      338.412       54.259        0.026      339.258       12.465      856.779
05/19/2014  21:53:00     -110.394      125.930       -6.825       79.347      111.667       48.758     6295.909    12469.445     2377.385        2.461        1.057      167.467       51.280        0.094      339.348       12.618      856.770
05/19/2014  21:54:00      -18.458      157.731      -22.443       81.753      110.603       44.212     6683.519    12232.962     1954.667        2.329        1.044      158.808       52.641        0.110      339.308       12.549      856.742
05/19/2014  21:55:00      -45.291      183.641      -33.991       69.976       86.547       31.615     4896.606     7490.391      999.477        2.516        0.669      189.144       36.305        0.037      339.234       12.424      856.732
05/19/2014  21:56:00      -73.453      108.197      -18.934       52.250       73.747       34.753     2730.073     5438.661     1207.764        1.342        0.469      130.774       38.523        0.087      339.355       12.630      856.760
05/19/2014  21:57:00      -29.494      238.256      -18.837       77.295      142.835       56.829     5974.571    20401.707     3229.539        4.379        1.480      240.074       73.656        0.094      339.267       12.481      856.759
05/19/2014  21:58:00     -143.826      227.381      -44.233       80.985      118.093       49.245     6558.596    13945.929     2425.042        4.863        1.146      269.050       52.786        0.038      339.255       12.460      856.770
05/19/2014  21:59:00     -100.993      258.767      -42.096      106.731       79.934       46.312    11391.591     6389.458     2144.833        4.942        0.996      277.777       45.666        0.027      339.226       12.409      856.786
05/19/2014  22:00:00      -84.356      215.153      -24.272       78.656       97.175       50.032     6186.835     9443.010     2503.240        3.606        0.907      231.099       49.511        0.046      339.288       12.517      856.804
05/19/2014  22:01:00      -80.068      328.172      -39.433       72.524      108.181       46.743     5259.776    11703.075     2184.889        6.740        0.957      337.799       50.235        0.022      339.146       12.277      856.833
05/19/2014  22:02:00     -101.640      355.372      -37.798       89.503      116.863       53.459     8010.805    13657.008     2857.834        8.128        1.226      369.621       53.972        0.021      339.119       12.233      856.843
05/19/2014  22:03:00     -118.178      366.833      -49.064       80.914       94.609       44.918     6547.155     8950.887     2017.625        8.422        0.876      385.399       40.730        0.011      339.085       12.173      856.851
05/19/2014  22:04:00     -129.664      219.911      -28.106       88.521      120.665       51.667     7836.048    14560.148     2669.495        4.551        1.253      255.291       50.798        0.040      339.181       12.335      856.850
05/19/2014  22:05:00      -33.595      356.118      -50.203       94.079      137.388       55.626     8850.817    18875.509     3094.290        8.064        1.541      357.699       64.714        0.033      339.125       12.241      856.847
05/19/2014  22:06:00      -56.570      428.298      -47.974       82.635       95.364       51.752     6828.584     9094.216     2678.263       10.377        0.930      432.018       43.144        0.010      339.099       12.195      856.862
05/19/2014  22:07:00      -61.199      377.146      -58.941       82.680       89.062       41.595     6836.056     7931.966     1730.185        8.297        0.825      382.079       37.373        0.010      339.100       12.200      856.882
05/19/2014  22:08:00      -82.999      170.645      -36.753       59.231       92.523       35.923     3508.369     8560.591     1290.475        2.536        0.668      189.759       35.876        0.036      339.217       12.397      856.904
05/19/2014  22:09:00      -98.743      166.534      -32.931       48.445       83.213       39.179     2346.883     6924.423     1534.992        2.468        0.540      193.607       41.341        0.046      339.202       12.372      856.917
05/19/2014  22:10:00     -107.155      156.296      -37.705       52.263       52.398       32.058     2731.420     2745.516     1027.710        2.192        0.325      189.501       34.651        0.033      339.096       12.194      856.929
05/19/2014  22:11:00      -75.013      120.179      -24.764       26.539       52.803       29.963      704.318     2788.191      897.799        1.254        0.220      141.669       22.693        0.026      339.193       12.357      856.932
05/19/2014  22:12:00      -53.820      111.798       -9.379       33.062       42.254       24.221     1093.070     1785.442      586.668        0.947        0.173      124.078       24.894        0.040      339.140       12.269      856.945
05/19/2014  22:13:00      -58.395       62.580      -17.275       39.794       38.081       19.786     1583.596     1450.167      391.492        0.552        0.171       85.594       17.860        0.044      339.210       12.387      856.954
05/19/2014  22:14:00      -24.587       35.422       -3.327       37.513       31.672       34.899     1407.256     1003.145     1217.943        0.275        0.181       43.118        6.163        0.020      339.136       12.263      856.968
05/19/2014  22:15:00       26.731       77.318       -5.010       26.282       30.121       26.134      690.762      907.282      683.001        0.450        0.114       81.809       20.338        0.062      339.143       12.274      856.977
05/19/2014  22:16:00      -17.712       87.032      -11.890       46.132       36.638       21.179     2128.198     1342.337      448.552        0.597        0.196       88.816       14.549        0.027      339.225       12.413      857.001
05/19/2014  22:17:00      -39.996      115.459      -16.191       41.240       77.884       39.883     1700.761     6065.947     1590.686        1.227        0.468      122.191       39.935        0.107      339.179       12.334      857.012
05/19/2014  22:18:00      -92.348      112.261      -19.792       55.999       38.994       26.434     3135.912     1520.510      698.756        1.344        0.268      145.364       13.357        0.008      339.137       12.263      857.006
05/19/2014  22:19:00     -161.362       98.142      -34.964       74.598       82.383       49.745     5564.834     6786.932     2474.533        2.586        0.741      188.864       42.799        0.051      339.107       12.211      857.005
05/19/2014  22:20:00     -102.334      155.584      -32.479       71.209      113.732       42.271     5070.727    12934.939     1786.875        2.776        0.990      186.222       55.928        0.090      339.082       12.171      856.999
05/19/2014  22:21:00      -67.523      274.809      -55.927      158.559      104.123       51.931    25141.010    10841.508     2696.880        6.094        1.934      282.983       43.415        0.024      339.050       12.115      856.987
05/19/2014  22:22:00      -12.607      312.380      -56.975       66.682       63.290       31.048     4446.488     4005.664      964.009        5.520        0.471      312.635       25.320        0.007      338.926       11.905      856.982
05/19/2014  22:23:00      -34.210      286.413      -47.307       66.505       81.097       33.636     4422.856     6576.771     1131.374        4.878        0.607      288.449       37.629        0.017      338.947       11.941      856.990
05/19/2014  22:24:00     -127.078      257.010      -49.731       92.676       73.716       41.340     8588.855     5434.088     1709.018        5.020        0.787      286.711       40.734        0.020      338.946       11.939      856.997
05/19/2014  22:25:00      -56.605      207.762      -19.339       56.299       94.616       43.911     3169.622     8952.262     1928.167        3.039        0.703      215.335       50.903        0.056      339.009       12.046      856.986
05/19/2014  22:26:00       36.926      180.988      -14.853       65.455       80.763       47.992     4284.300     6522.615     2303.201        2.372        0.656      184.717       51.251        0.077      338.923       11.902      856.976
05/19/2014  22:27:00       45.563      246.310      -43.639       78.418      106.502       46.925     6149.415    11342.629     2201.983        4.217        0.985      250.489       54.211        0.047      338.876       11.823      856.975
05/19/2014  22:28:00       48.951      181.383      -11.355       93.089      115.165       66.792     8665.592    13263.018     4461.109        3.090        1.319      187.872       54.444        0.084      338.844       11.770      856.976
05/19/2014  22:29:00       27.069      358.264      -53.089       68.472      141.802       56.580     4688.440    20107.721     3201.274        7.995        1.400      359.286       72.687        0.041      338.801       11.696      856.992
05/19/2014  22:30:00      -73.686      383.857      -59.091       82.653       88.704       39.508     6831.452     7868.319     1560.879        8.626        0.813      390.866       43.487        0.012      338.795       11.686      857.003
05/19/2014  22:31:00       79.785      296.153      -39.312       76.430      107.234       62.893     5841.608    11499.107     3955.491        5.845        1.065      306.712       57.332        0.035      338.805       11.702      857.012
05/19/2014  22:32:00       13.024      285.651      -45.806       70.973      103.906       44.043     5037.191    10796.561     1939.754        5.082        0.889      285.948       45.802        0.026      338.805       11.702      857.037
05/19/2014  22:33:00      -33.593      310.532      -37.941       76.202       83.122       42.339     5806.752     6909.233     1792.626        5.675        0.725      312.344       45.213        0.021      338.821       11.730      857.044
05/19/2014  22:34:00      -62.881      237.315      -38.545       78.851       80.215       37.897     6217.451     6434.411     1436.180        3.792        0.704      245.505       32.523        0.018      338.815       11.717      857.067
05/19/2014  22:35:00       13.450      205.527      -33.089       75.900       90.026       40.668     5760.780     8104.711     1653.864        2.952        0.776      205.966       37.893        0.034      338.887       11.842      857.066
05/19/2014  22:36:00       54.589      282.696      -41.803       63.854       76.911       43.301     4077.315     5915.270     1875.015        4.825        0.593      287.919       34.423        0.014      338.770       11.646      857.065
05/19/2014  22:37:00       33.865      174.172      -23.485       57.222       82.906       46.545     3274.389     6873.398     2166.427        2.217        0.616      177.434       43.604        0.060      338.796       11.689      857.044
05/19/2014  22:38:00        5.697      155.707      -32.616       59.686       70.240       31.126     3562.437     4933.662      968.830        1.740        0.473      155.811       31.554        0.041      338.797       11.693      857.032
05/19/2014  22:39:00       -3.255      131.301      -27.702       42.660       60.047       24.585     1819.859     3605.598      604.408        1.202        0.301      131.341       25.931        0.039      338.853       11.787      857.014
05/19/2014  22:40:00       31.899      155.252      -19.218       47.233       77.464       32.766     2230.951     6000.683     1073.640        1.740        0.465      158.495       42.313        0.071      338.806       11.705      856.997
05/19/2014  22:41:00       -9.493      177.087      -38.102       71.522       67.705       31.811     5115.458     4583.974     1011.933        2.180        0.536      177.342       40.976        0.053      338.858       11.794      856.991
05/19/2014  22:42:00      -45.098      347.719      -42.738       74.071       70.284       38.715     5486.488     4939.790     1498.838        6.834        0.596      350.631       36.819        0.011      338.773       11.650      856.997
05/19/2014  22:43:00      -68.135      289.867      -44.567       63.234       74.486       39.569     3998.528     5548.111     1565.707        5.088        0.556      297.767       39.002        0.017      338.823       11.732      856.980
05/19/2014  22:44:00     -108.784      216.557      -32.294       75.098       85.216       41.621     5639.682     7261.699     1732.301        3.720        0.732      242.345       49.248        0.041      338.840       11.763      856.965
05/19/2014  22:45:00      -49.030      201.559      -23.176       72.028       70.025       40.446     5188.082     4903.515     1635.880        2.764        0.586      207.436       36.389        0.031      338.870       11.813      856.951
05/19/2014  22:46:00      -30.929      281.058      -35.822       54.393      111.008       38.001     2958.580    12322.724     1444.101        4.898        0.836      282.755       50.736        0.032      338.857       11.792      856.943
05/19/2014  22:47:00      -63.740      202.266      -32.725       65.350      102.174       31.348     4270.560    10439.616      982.695        3.087        0.785      212.072       44.073        0.043      338.862       11.800      856.936
05/19/2014  22:48:00      -33.032      113.488       -7.010       45.535       73.379       30.960     2073.437     5384.506      958.492        1.122        0.421      118.198       34.877        0.087      338.932       11.920      856.943
05/19/2014  22:49:00      -70.162       54.233       -5.005       54.019       54.736       29.328     2918.013     2996.079      860.143        0.733        0.339       88.678       27.890        0.099      339.016       12.061      856.952
05/19/2014  22:50:00     -109.402      271.822      -49.895       96.131       88.844       47.180     9241.265     7893.294     2225.930        5.385        0.968      293.012       40.636        0.019      338.790       11.677      856.967
05/19/2014  22:51:00      -73.293      216.326      -33.999       70.329      126.365       36.521     4946.128    15968.137     1333.749        3.778        1.112      228.405       38.481        0.028      338.831       11.748      856.965
05/19/2014  22:52:00     -107.021      211.798      -27.623       75.122      117.921       52.166     5643.374    13905.306     2721.276        3.967        1.113      237.301       46.516        0.038      338.797       11.690      856.971
05/19/2014  22:53:00     -168.564      222.950      -44.866       73.579       87.772       40.533     5413.935     7703.929     1642.925        4.744        0.738      279.501       36.911        0.017      338.767       11.639      856.976
05/19/2014  22:54:00      -65.774      227.245      -35.557       54.873       96.353       41.563     3011.028     9283.923     1727.479        3.562        0.701      236.573       47.994        0.041      338.732       11.582      856.979
05/19/2014  22:55:00       -3.843      277.801      -45.728       67.432       62.360       27.619     4547.051     3888.795      762.791        4.424        0.460      277.828       27.816        0.010      338.709       11.541      856.981
05/19/2014  22:56:00      -81.623      228.656      -32.183       50.720       54.900       28.022     2572.552     3013.956      785.221        3.318        0.319      242.787       23.601        0.009      338.754       11.615      856.976
05/19/2014  22:57:00      -53.024      181.418      -21.578       39.778       77.845       46.007     1582.320     6059.917     2116.666        2.297        0.488      189.008       47.827        0.064      338.760       11.628      856.977
05/19/2014  22:58:00      -48.801      192.376      -27.695       52.175       85.733       31.314     2722.207     7350.214      980.576        2.560        0.553      198.469       38.766        0.038      338.785       11.671      856.972
05/19/2014  22:59:00     -130.924      179.611      -28.679       73.857       76.505       41.110     5454.816     5853.038     1690.045        3.161        0.650      222.264       36.047        0.026      338.727       11.571      856.979
05/19/2014  23:00:00     -148.681      181.586      -37.591       85.702       74.841       52.276     7344.881     5601.172     2732.815        3.608        0.784      234.690       59.365        0.064      338.682       11.496      856.997
05/19/2014  23:01:00     -125.345      164.891      -22.071       69.150       78.224       43.470     4781.656     6119.032     1889.633        2.809        0.640      207.125       36.804        0.032      338.667       11.471      857.013
05/19/2014  23:02:00     -147.863      161.180      -33.987       83.804       76.904       48.091     7023.104     5914.192     2312.698        3.212        0.762      218.729       55.786        0.065      338.624       11.399      857.026
05/19/2014  23:03:00     -176.212      169.721      -31.382      100.988       96.528       50.801    10198.572     9317.750     2580.717        4.146        1.105      244.655       55.562        0.052      338.599       11.356      857.025
05/19/2014  23:04:00     -111.643      117.215        0.874       99.403       93.337       53.689     9880.953     8711.821     2882.543        2.384        1.074      161.875       46.486        0.082      338.633       11.414      857.022
05/19/2014  23:05:00     -122.298      189.754      -22.155       58.148       66.938       40.553     3381.169     4480.647     1644.518        3.048        0.475      225.751       36.289        0.026      338.595       11.351      857.032
05/19/2014  23:06:00      -96.928      143.938      -23.513       53.994       82.253       36.784     2915.391     6765.540     1353.089        2.085        0.552      173.532       35.237        0.041      338.692       11.514      857.030
05/19/2014  23:07:00      -97.403      100.161       -6.120       90.517       85.023       44.480     8193.270     7228.844     1978.506        1.848        0.870      139.713       32.744        0.055      338.726       11.572      857.031
05/19/2014  23:08:00     -130.280      132.229      -20.751       62.755       61.250       44.966     3938.210     3751.561     2021.917        2.230        0.486      185.627       30.537        0.027      338.649       11.442      857.026
05/19/2014  23:09:00     -155.094      135.612      -26.334       63.875       67.201       46.339     4080.053     4516.029     2147.346        2.694        0.537      206.022       36.656        0.032      338.661       11.462      857.035
05/19/2014  23:10:00     -137.481      175.785      -18.983       91.260      150.111       59.963     8328.422    22533.443     3595.564        4.230        1.723      223.162       60.826        0.074      338.583       11.330      857.036
05/19/2014  23:11:00     -120.248      161.742      -31.094       90.428       76.756       52.188     8177.157     5891.489     2723.613        2.919        0.840      201.544       55.463        0.076      338.599       11.357      857.046
05/19/2014  23:12:00      -90.279      158.147      -21.190       76.289      119.030       52.015     5819.984    14168.162     2705.575        2.815        1.135      182.101       63.364        0.121      338.555       11.285      857.057
05/19/2014  23:13:00     -155.405      240.416      -31.434       74.087       83.307       55.794     5488.863     6940.105     3113.010        4.924        0.777      286.270       46.834        0.027      338.517       11.219      857.076
05/19/2014  23:14:00      -74.836      240.304      -40.307       55.171      107.909       37.863     3043.868    11644.329     1433.607        4.054        0.806      251.687       39.505        0.025      338.542       11.261      857.085
05/19/2014  23:15:00     -134.768      204.998      -32.706       99.066       94.660       51.160     9814.098     8960.517     2617.384        4.132        1.070      245.329       49.334        0.040      338.552       11.279      857.102
05/19/2014  23:16:00     -195.120      251.450      -58.298      112.587      125.438       60.866    12675.825    15734.631     3704.673        6.840        1.606      318.275       75.449        0.056      338.480       11.158      857.109
05/19/2014  23:17:00     -126.935      231.226      -20.131       61.123       95.224       58.740     3736.001     9067.622     3450.363        4.312        0.813      263.777       61.574        0.054      338.491       11.176      857.105
05/19/2014  23:18:00     -173.177      282.196      -42.405      105.619      127.299       64.011    11155.273    16204.946     4097.353        7.143        1.573      331.096       67.926        0.042      338.471       11.143      857.116
05/19/2014  23:19:00     -121.512      217.394      -24.915       66.181      110.439       47.873     4379.905    12196.750     2291.848        4.075        0.943      249.049       49.633        0.040      338.506       11.201      857.128
05/19/2014  23:20:00     -163.058      257.451      -40.475       80.282      111.241       55.913     6445.220    12374.634     3126.229        5.822        1.097      304.744       54.122        0.032      338.450       11.106      857.143
05/19/2014  23:21:00     -175.142      338.361      -52.480      103.144      153.442       71.501    10638.663    23544.546     5112.388        9.360        1.965      381.002       81.125        0.045      338.407       11.035      857.154
05/19/2014  23:22:00     -119.115      167.332      -20.699       85.417       70.583       55.139     7296.017     4981.974     3040.327        2.896        0.766      205.398       48.058        0.055      338.477       11.153      857.148
05/19/2014  23:23:00     -150.508      229.855      -39.167       81.630      105.942       53.320     6663.536    11223.767     2843.003        4.887        1.037      274.747       60.083        0.048      338.432       11.076      857.161
05/19/2014  23:24:00     -130.364      274.187      -34.424       75.117      114.942       60.888     5642.569    13211.670     3707.345        5.796        1.128      303.601       46.182        0.023      338.415       11.046      857.148
05/19/2014  23:25:00     -166.787      321.000      -40.733      102.621      102.776       60.571    10531.067    10562.990     3668.883        7.864        1.238      361.745       62.722        0.030      338.395       11.014      857.134
05/19/2014  23:26:00      -97.491      306.154      -33.266       63.041       99.143       48.149     3974.229     9829.347     2318.366        6.023        0.806      321.302       49.411        0.024      338.382       10.993      857.127
05/19/2014  23:27:00      -82.037      327.185      -38.715       64.634      110.888       47.437     4177.579    12296.124     2250.250        6.700        0.936      337.313       43.088        0.016      338.350       10.939      857.121
05/19/2014  23:28:00     -125.822      143.099      -20.162       86.550       64.394       47.860     7490.837     4146.531     2290.534        2.532        0.696      190.548       33.644        0.031      338.459       11.122      857.122
05/19/2014  23:29:00     -110.870      295.934      -33.662       82.021      125.209       61.556     6727.398    15677.256     3789.144        6.359        1.310      316.021       61.275        0.038      338.389       11.003      857.117
05/19/2014  23:30:00     -107.693      267.337      -14.981       80.231      102.387       60.609     6436.947    10483.187     3673.394        5.194        1.030      288.214       57.056        0.039      338.392       11.009      857.130
05/19/2014  23:31:00     -147.530      178.974      -20.678       88.628       95.428       49.522     7854.974     9106.542     2452.386        3.682        0.971      231.941       48.168        0.043      338.412       11.043      857.137
05/19/2014  23:32:00     -145.400      128.864      -20.663       73.701       90.246       48.234     5431.838     8144.293     2326.547        2.704        0.795      194.286       40.183        0.043      338.419       11.056      857.135
05/19/2014  23:33:00     -194.728      127.940      -40.652       80.741       94.861       57.187     6519.184     8998.676     3270.336        3.736        0.939      232.998       55.621        0.057      338.378       10.986      857.154
05/19/2014  23:34:00     -154.232      146.427      -22.141       82.796       71.533       48.840     6855.186     5117.022     2385.335        3.004        0.718      212.669       46.523        0.048      338.414       11.048      857.153
05/19/2014  23:35:00     -158.684      245.305      -37.339      105.819      105.844       54.661    11197.679    11202.926     2987.808        5.606        1.269      292.156       60.943        0.044      338.297       10.849      857.159
05/19/2014  23:36:00     -115.659      180.934      -11.727       67.753      104.453       46.400     4590.512    10910.342     2152.984        3.195        0.883      214.742       41.363        0.037      338.341       10.925      857.156
05/19/2014  23:37:00      -56.087      200.554        4.039       78.533      105.640       57.508     6167.386    11159.901     3307.203        3.201        1.032      208.249       45.208        0.047      338.326       10.899      857.146
05/19/2014  23:38:00     -197.642      124.296      -42.716       76.618       65.247       44.445     5870.267     4257.136     1975.368        3.422        0.605      233.478       38.104        0.027      338.386       10.997      857.155
05/19/2014  23:39:00      -96.809      180.951      -21.800       75.080      113.178       49.511     5636.992    12809.154     2451.340        3.174        1.045      205.220       48.760        0.056      338.319       10.889      857.163
05/19/2014  23:40:00     -116.360      222.548      -33.933       68.337       81.209       49.015     4669.880     6594.979     2402.461        3.894        0.683      251.132       38.168        0.023      338.330       10.905      857.174
05/19/2014  23:41:00     -119.797      135.304      -15.410       76.116       64.940       42.124     5793.691     4217.193     1774.426        2.234        0.589      180.716       40.180        0.049      338.438       11.086      857.173
05/19/2014  23:42:00     -139.044      176.692      -32.734       73.146       68.332       44.457     5350.410     4669.312     1976.449        3.181        0.600      224.841       31.521        0.020      338.412       11.043      857.178
05/19/2014  23:43:00     -125.642      149.393      -13.429       89.906       77.587       55.619     8083.163     6019.815     3093.520        2.774        0.860      195.203       39.366        0.041      338.389       11.004      857.189
05/19/2014  23:44:00     -136.000      264.172      -43.318       86.408      114.589       52.872     7466.314    13130.691     2795.492        5.677        1.170      297.125       61.367        0.043      338.315       10.880      857.173
05/19/2014  23:45:00     -119.201      272.068      -33.120       82.335      114.890       54.029     6779.079    13199.657     2919.107        5.611        1.145      297.035       60.175        0.041      338.277       10.817      857.149
05/19/2014  23:46:00     -143.161      221.053      -32.483       89.966       91.896       54.013     8093.865     8444.959     2917.361        4.493        0.973      263.362       55.422        0.044      338.285       10.829      857.140
05/19/2014  23:47:00     -140.854      204.361      -24.184       77.428      104.873       50.688     5995.102    10998.416     2569.236        4.087        0.978      248.200       46.854        0.036      338.266       10.798      857.140
05/19/2014  23:48:00     -100.854      158.994       -2.334       72.790       96.282       53.590     5298.376     9270.139     2871.879        2.644        0.872      188.284       51.552        0.075      338.280       10.824      857.098
05/19/2014  23:49:00      -80.206      215.679      -29.103       74.015       92.550       49.639     5478.178     8565.594     2463.986        3.515        0.825      230.110       41.347        0.032      338.215       10.712      857.069
05/19/2014  23:50:00     -118.120      396.243      -52.117      110.453      112.624       63.695    12199.890    12684.182     4057.060       10.130        1.447      413.474       52.328        0.016      338.225       10.727      857.057
05/19/2014  23:51:00     -142.718      347.314      -62.591       86.661      137.312       59.860     7510.212    18854.667     3583.220        8.742        1.497      375.494       70.363        0.035      338.259       10.785      857.067
05/19/2014  23:52:00     -173.642      356.691      -44.490       91.404      122.240       61.064     8354.678    14942.635     3728.804        9.319        1.351      396.712       59.882        0.023      338.276       10.815      857.085
05/19/2014  23:53:00     -167.319      250.499      -38.338       67.383       92.838       50.289     4540.449     8618.807     2529.006        5.395        0.784      301.240       47.627        0.025      338.227       10.732      857.094
05/19/2014  23:54:00     -122.394      223.972      -30.953       87.133      104.037       48.594     7592.200    10823.611     2361.352        4.344        1.039      255.232       51.915        0.041      338.183       10.658      857.109
05/19/2014  23:55:00     -133.905      169.510      -29.526       84.262       77.644       45.093     7100.036     6028.550     2033.354        3.135        0.758      216.019       40.044        0.034      338.185       10.661      857.125
05/19/2014  23:56:00     -113.052      113.340      -17.451       78.522       76.230       46.833     6165.701     5811.027     2193.321        2.005        0.709      160.084       46.777        0.085      338.317       10.884      857.124
05/19/2014  23:57:00     -165.460      135.946      -22.715      100.815       75.753       50.269    10163.580     5738.513     2527.004        3.240        0.921      214.146       45.393        0.045      338.175       10.647      857.110
05/19/2014  23:58:00     -187.679      220.650      -33.051       76.267      117.581       59.406     5816.643    13825.251     3529.113        5.408        1.159      289.672       50.483        0.030      338.102       10.521      857.115
05/19/2014  23:59:00     -153.710      213.711      -26.851       74.567      113.406       53.135     5560.236    12860.926     2823.339        4.563        1.062      263.247       43.765        0.028      338.156       10.612      857.136
